<?xml version="1.0" encoding="UTF-8" standalone="no" ?>
<gpx xmlns="http://www.topografix.com/GPX/1/1" xmlns:xsi="http://www.w3.org/2001/XMLSchema-instance" xsi:schemaLocation="http://www.topografix.com/GPX/1/1 http://www.topografix.com/GPX/1/1/gpx.xsd" version="1.1" creator="VisuGPX - https://www.visugpx.com">
  <metadata>
    <name>Pont Saint Martin   Vertou   Ile de Nantes</name>
    <desc><![CDATA[Pont Saint Martin   Vertou   Ile de Nantes]]></desc>
  </metadata>
  <trk>
    <name><![CDATA[2014-04-18 17:07]]></name>
    <desc><![CDATA[<h1>OruxMaps</h1><br /><hr align="center" width="480" style="height: 2px; width: 517px"/><h2>Nom: 2014-04-18 17:07</h2><br /><p>Temps de départ: 04/18/2014 17:14</p><p>Temps d'arrivée: 04/18/2014 19:21</p><p>Distance: 47,5 km (02:06)</p><p>Temps déplacement: 01:55</p><p>Vitesse moyenne: 22,4 km/h</p><p>Vitesse moyenne: 24,6 km/h</p><p>Vitess Max.: 57,1 km/h</p><p>Altitude minimale: -335 m</p><p>Altitude maximale: 49 m</p><p>Vitesse d'élévation: 1058,3 m/h</p><p>Vitesse de descente: -878,7 m/h</p><p>Gain Altitude: 689 m</p><p>Perte Altitude: -755 m</p><p>Temps d'élévation: 00:39</p><p>Temps de descente: 00:51</p><hr align="center" width="480" style="height: 2px; width: 517px"/>]]></desc>
    <trkseg>
      <trkpt lat="47.16476" lon="-1.62621">
        <ele>49.33</ele>
        <time>2014-04-18T15:14:13Z</time>
      </trkpt>
      <trkpt lat="47.16525" lon="-1.6257">
        <ele>4.13</ele>
        <time>2014-04-18T15:14:14Z</time>
      </trkpt>
      <trkpt lat="47.16507" lon="-1.62563">
        <ele>-39.66</ele>
        <time>2014-04-18T15:14:53Z</time>
      </trkpt>
      <trkpt lat="47.16488" lon="-1.62557">
        <ele>-38.95</ele>
        <time>2014-04-18T15:14:56Z</time>
      </trkpt>
      <trkpt lat="47.16469" lon="-1.62549">
        <ele>-38.41</ele>
        <time>2014-04-18T15:14:59Z</time>
      </trkpt>
      <trkpt lat="47.16452" lon="-1.62543">
        <ele>-37.78</ele>
        <time>2014-04-18T15:15:02Z</time>
      </trkpt>
      <trkpt lat="47.16433" lon="-1.62543">
        <ele>-37.12</ele>
        <time>2014-04-18T15:15:05Z</time>
      </trkpt>
      <trkpt lat="47.16416" lon="-1.62556">
        <ele>-36.66</ele>
        <time>2014-04-18T15:15:08Z</time>
      </trkpt>
      <trkpt lat="47.16401" lon="-1.62572">
        <ele>-36.3</ele>
        <time>2014-04-18T15:15:11Z</time>
      </trkpt>
      <trkpt lat="47.16383" lon="-1.62582">
        <ele>-36.29</ele>
        <time>2014-04-18T15:15:14Z</time>
      </trkpt>
      <trkpt lat="47.16365" lon="-1.62584">
        <ele>-36.39</ele>
        <time>2014-04-18T15:15:17Z</time>
      </trkpt>
      <trkpt lat="47.16343" lon="-1.62579">
        <ele>-36.35</ele>
        <time>2014-04-18T15:15:20Z</time>
      </trkpt>
      <trkpt lat="47.16323" lon="-1.62569">
        <ele>-36.37</ele>
        <time>2014-04-18T15:15:23Z</time>
      </trkpt>
      <trkpt lat="47.16303" lon="-1.62558">
        <ele>-36.4</ele>
        <time>2014-04-18T15:15:26Z</time>
      </trkpt>
      <trkpt lat="47.16284" lon="-1.62551">
        <ele>-36.28</ele>
        <time>2014-04-18T15:15:29Z</time>
      </trkpt>
      <trkpt lat="47.16264" lon="-1.62546">
        <ele>-36.39</ele>
        <time>2014-04-18T15:15:32Z</time>
      </trkpt>
      <trkpt lat="47.16244" lon="-1.62544">
        <ele>-36.34</ele>
        <time>2014-04-18T15:15:35Z</time>
      </trkpt>
      <trkpt lat="47.16225" lon="-1.62542">
        <ele>-36.42</ele>
        <time>2014-04-18T15:15:38Z</time>
      </trkpt>
      <trkpt lat="47.16204" lon="-1.6254">
        <ele>-37.22</ele>
        <time>2014-04-18T15:15:41Z</time>
      </trkpt>
      <trkpt lat="47.16182" lon="-1.6254">
        <ele>-37.78</ele>
        <time>2014-04-18T15:15:44Z</time>
      </trkpt>
      <trkpt lat="47.16163" lon="-1.62539">
        <ele>-37.77</ele>
        <time>2014-04-18T15:15:47Z</time>
      </trkpt>
      <trkpt lat="47.16144" lon="-1.62538">
        <ele>-36.92</ele>
        <time>2014-04-18T15:15:50Z</time>
      </trkpt>
      <trkpt lat="47.16117" lon="-1.62533">
        <ele>-35.58</ele>
        <time>2014-04-18T15:15:54Z</time>
      </trkpt>
      <trkpt lat="47.16092" lon="-1.62532">
        <ele>-35.33</ele>
        <time>2014-04-18T15:15:57Z</time>
      </trkpt>
      <trkpt lat="47.16071" lon="-1.6253">
        <ele>-35.21</ele>
        <time>2014-04-18T15:15:59Z</time>
      </trkpt>
      <trkpt lat="47.16046" lon="-1.6253">
        <ele>-35.04</ele>
        <time>2014-04-18T15:16:02Z</time>
      </trkpt>
      <trkpt lat="47.16023" lon="-1.62533">
        <ele>-35.03</ele>
        <time>2014-04-18T15:16:05Z</time>
      </trkpt>
      <trkpt lat="47.16001" lon="-1.62549">
        <ele>-35.12</ele>
        <time>2014-04-18T15:16:08Z</time>
      </trkpt>
      <trkpt lat="47.15986" lon="-1.62571">
        <ele>-35.22</ele>
        <time>2014-04-18T15:16:11Z</time>
      </trkpt>
      <trkpt lat="47.15975" lon="-1.62602">
        <ele>-35.44</ele>
        <time>2014-04-18T15:16:15Z</time>
      </trkpt>
      <trkpt lat="47.15979" lon="-1.62636">
        <ele>-35.28</ele>
        <time>2014-04-18T15:16:18Z</time>
      </trkpt>
      <trkpt lat="47.15979" lon="-1.62671">
        <ele>-35.03</ele>
        <time>2014-04-18T15:16:21Z</time>
      </trkpt>
      <trkpt lat="47.15961" lon="-1.62695">
        <ele>-35.15</ele>
        <time>2014-04-18T15:16:25Z</time>
      </trkpt>
      <trkpt lat="47.15937" lon="-1.62696">
        <ele>-35.46</ele>
        <time>2014-04-18T15:16:28Z</time>
      </trkpt>
      <trkpt lat="47.15915" lon="-1.62699">
        <ele>-35.86</ele>
        <time>2014-04-18T15:16:31Z</time>
      </trkpt>
      <trkpt lat="47.15892" lon="-1.62704">
        <ele>-36.16</ele>
        <time>2014-04-18T15:16:34Z</time>
      </trkpt>
      <trkpt lat="47.15873" lon="-1.6271">
        <ele>-36.35</ele>
        <time>2014-04-18T15:16:37Z</time>
      </trkpt>
      <trkpt lat="47.15848" lon="-1.62711">
        <ele>-36.51</ele>
        <time>2014-04-18T15:16:40Z</time>
      </trkpt>
      <trkpt lat="47.15827" lon="-1.62713">
        <ele>-36.89</ele>
        <time>2014-04-18T15:16:43Z</time>
      </trkpt>
      <trkpt lat="47.15805" lon="-1.6272">
        <ele>-37.06</ele>
        <time>2014-04-18T15:16:47Z</time>
      </trkpt>
      <trkpt lat="47.15779" lon="-1.62721">
        <ele>-36.9</ele>
        <time>2014-04-18T15:16:51Z</time>
      </trkpt>
      <trkpt lat="47.15759" lon="-1.6272">
        <ele>-36.85</ele>
        <time>2014-04-18T15:16:54Z</time>
      </trkpt>
      <trkpt lat="47.15737" lon="-1.62737">
        <ele>-36.95</ele>
        <time>2014-04-18T15:16:58Z</time>
      </trkpt>
      <trkpt lat="47.15725" lon="-1.62758">
        <ele>-36.72</ele>
        <time>2014-04-18T15:17:02Z</time>
      </trkpt>
      <trkpt lat="47.1573" lon="-1.62789">
        <ele>-36.89</ele>
        <time>2014-04-18T15:17:06Z</time>
      </trkpt>
      <trkpt lat="47.15727" lon="-1.62817">
        <ele>-37.08</ele>
        <time>2014-04-18T15:17:09Z</time>
      </trkpt>
      <trkpt lat="47.1572" lon="-1.62846">
        <ele>-37.09</ele>
        <time>2014-04-18T15:17:12Z</time>
      </trkpt>
      <trkpt lat="47.15709" lon="-1.62867">
        <ele>-36.79</ele>
        <time>2014-04-18T15:17:15Z</time>
      </trkpt>
      <trkpt lat="47.15698" lon="-1.6289">
        <ele>-36.63</ele>
        <time>2014-04-18T15:17:18Z</time>
      </trkpt>
      <trkpt lat="47.15686" lon="-1.62914">
        <ele>-37.01</ele>
        <time>2014-04-18T15:17:21Z</time>
      </trkpt>
      <trkpt lat="47.15667" lon="-1.62927">
        <ele>-36.97</ele>
        <time>2014-04-18T15:17:24Z</time>
      </trkpt>
      <trkpt lat="47.15651" lon="-1.62944">
        <ele>-36.44</ele>
        <time>2014-04-18T15:17:27Z</time>
      </trkpt>
      <trkpt lat="47.15637" lon="-1.62961">
        <ele>-35.62</ele>
        <time>2014-04-18T15:17:30Z</time>
      </trkpt>
      <trkpt lat="47.15623" lon="-1.62985">
        <ele>-34.55</ele>
        <time>2014-04-18T15:17:33Z</time>
      </trkpt>
      <trkpt lat="47.15612" lon="-1.63008">
        <ele>-33.21</ele>
        <time>2014-04-18T15:17:36Z</time>
      </trkpt>
      <trkpt lat="47.15596" lon="-1.63025">
        <ele>-32.03</ele>
        <time>2014-04-18T15:17:39Z</time>
      </trkpt>
      <trkpt lat="47.15576" lon="-1.63044">
        <ele>-30.85</ele>
        <time>2014-04-18T15:17:43Z</time>
      </trkpt>
      <trkpt lat="47.15558" lon="-1.63067">
        <ele>-29.35</ele>
        <time>2014-04-18T15:17:47Z</time>
      </trkpt>
      <trkpt lat="47.15544" lon="-1.63086">
        <ele>-27.87</ele>
        <time>2014-04-18T15:17:50Z</time>
      </trkpt>
      <trkpt lat="47.15528" lon="-1.63102">
        <ele>-26.8</ele>
        <time>2014-04-18T15:17:53Z</time>
      </trkpt>
      <trkpt lat="47.15514" lon="-1.63122">
        <ele>-25.96</ele>
        <time>2014-04-18T15:17:56Z</time>
      </trkpt>
      <trkpt lat="47.15499" lon="-1.63142">
        <ele>-25.16</ele>
        <time>2014-04-18T15:17:59Z</time>
      </trkpt>
      <trkpt lat="47.15483" lon="-1.63167">
        <ele>-24.14</ele>
        <time>2014-04-18T15:18:03Z</time>
      </trkpt>
      <trkpt lat="47.15472" lon="-1.63197">
        <ele>-23.05</ele>
        <time>2014-04-18T15:18:07Z</time>
      </trkpt>
      <trkpt lat="47.15462" lon="-1.63221">
        <ele>-21.72</ele>
        <time>2014-04-18T15:18:10Z</time>
      </trkpt>
      <trkpt lat="47.1545" lon="-1.63244">
        <ele>-20.78</ele>
        <time>2014-04-18T15:18:13Z</time>
      </trkpt>
      <trkpt lat="47.15438" lon="-1.63266">
        <ele>-20.05</ele>
        <time>2014-04-18T15:18:16Z</time>
      </trkpt>
      <trkpt lat="47.1542" lon="-1.63277">
        <ele>-19.76</ele>
        <time>2014-04-18T15:18:19Z</time>
      </trkpt>
      <trkpt lat="47.154" lon="-1.63289">
        <ele>-20.32</ele>
        <time>2014-04-18T15:18:22Z</time>
      </trkpt>
      <trkpt lat="47.15385" lon="-1.63307">
        <ele>-20.44</ele>
        <time>2014-04-18T15:18:25Z</time>
      </trkpt>
      <trkpt lat="47.15372" lon="-1.63325">
        <ele>-19.62</ele>
        <time>2014-04-18T15:18:28Z</time>
      </trkpt>
      <trkpt lat="47.1536" lon="-1.63346">
        <ele>-18.65</ele>
        <time>2014-04-18T15:18:31Z</time>
      </trkpt>
      <trkpt lat="47.15343" lon="-1.63367">
        <ele>-16.99</ele>
        <time>2014-04-18T15:18:35Z</time>
      </trkpt>
      <trkpt lat="47.15327" lon="-1.6339">
        <ele>-15.56</ele>
        <time>2014-04-18T15:18:39Z</time>
      </trkpt>
      <trkpt lat="47.15311" lon="-1.63412">
        <ele>-14.07</ele>
        <time>2014-04-18T15:18:43Z</time>
      </trkpt>
      <trkpt lat="47.15295" lon="-1.63426">
        <ele>-12.99</ele>
        <time>2014-04-18T15:18:46Z</time>
      </trkpt>
      <trkpt lat="47.1528" lon="-1.63441">
        <ele>-11.99</ele>
        <time>2014-04-18T15:18:49Z</time>
      </trkpt>
      <trkpt lat="47.15261" lon="-1.63463">
        <ele>-10.93</ele>
        <time>2014-04-18T15:18:53Z</time>
      </trkpt>
      <trkpt lat="47.15244" lon="-1.63484">
        <ele>-10.33</ele>
        <time>2014-04-18T15:18:57Z</time>
      </trkpt>
      <trkpt lat="47.15231" lon="-1.63504">
        <ele>-9.21</ele>
        <time>2014-04-18T15:19:00Z</time>
      </trkpt>
      <trkpt lat="47.15217" lon="-1.63531">
        <ele>-7.58</ele>
        <time>2014-04-18T15:19:04Z</time>
      </trkpt>
      <trkpt lat="47.15202" lon="-1.63548">
        <ele>-6.75</ele>
        <time>2014-04-18T15:19:07Z</time>
      </trkpt>
      <trkpt lat="47.15189" lon="-1.63566">
        <ele>-6.38</ele>
        <time>2014-04-18T15:19:10Z</time>
      </trkpt>
      <trkpt lat="47.15171" lon="-1.63588">
        <ele>-5.91</ele>
        <time>2014-04-18T15:19:14Z</time>
      </trkpt>
      <trkpt lat="47.15154" lon="-1.63572">
        <ele>-5.74</ele>
        <time>2014-04-18T15:19:17Z</time>
      </trkpt>
      <trkpt lat="47.15138" lon="-1.63549">
        <ele>-5.73</ele>
        <time>2014-04-18T15:19:21Z</time>
      </trkpt>
      <trkpt lat="47.15122" lon="-1.63527">
        <ele>-6.38</ele>
        <time>2014-04-18T15:19:24Z</time>
      </trkpt>
      <trkpt lat="47.15109" lon="-1.63506">
        <ele>-6.99</ele>
        <time>2014-04-18T15:19:27Z</time>
      </trkpt>
      <trkpt lat="47.15094" lon="-1.63481">
        <ele>-6.29</ele>
        <time>2014-04-18T15:19:31Z</time>
      </trkpt>
      <trkpt lat="47.15082" lon="-1.63455">
        <ele>-4.74</ele>
        <time>2014-04-18T15:19:35Z</time>
      </trkpt>
      <trkpt lat="47.1507" lon="-1.63429">
        <ele>-2.75</ele>
        <time>2014-04-18T15:19:39Z</time>
      </trkpt>
      <trkpt lat="47.15055" lon="-1.63404">
        <ele>-0.97</ele>
        <time>2014-04-18T15:19:43Z</time>
      </trkpt>
      <trkpt lat="47.15042" lon="-1.6338">
        <ele>0.7</ele>
        <time>2014-04-18T15:19:47Z</time>
      </trkpt>
      <trkpt lat="47.15028" lon="-1.63356">
        <ele>2.63</ele>
        <time>2014-04-18T15:19:51Z</time>
      </trkpt>
      <trkpt lat="47.15012" lon="-1.63335">
        <ele>4.61</ele>
        <time>2014-04-18T15:19:55Z</time>
      </trkpt>
      <trkpt lat="47.14998" lon="-1.63319">
        <ele>5.54</ele>
        <time>2014-04-18T15:19:58Z</time>
      </trkpt>
      <trkpt lat="47.1498" lon="-1.63301">
        <ele>5.83</ele>
        <time>2014-04-18T15:20:01Z</time>
      </trkpt>
      <trkpt lat="47.14965" lon="-1.63282">
        <ele>5.79</ele>
        <time>2014-04-18T15:20:04Z</time>
      </trkpt>
      <trkpt lat="47.14951" lon="-1.63258">
        <ele>6.28</ele>
        <time>2014-04-18T15:20:08Z</time>
      </trkpt>
      <trkpt lat="47.14937" lon="-1.63237">
        <ele>7.57</ele>
        <time>2014-04-18T15:20:12Z</time>
      </trkpt>
      <trkpt lat="47.1492" lon="-1.63225">
        <ele>8.76</ele>
        <time>2014-04-18T15:20:17Z</time>
      </trkpt>
      <trkpt lat="47.14902" lon="-1.63204">
        <ele>6.83</ele>
        <time>2014-04-18T15:20:21Z</time>
      </trkpt>
      <trkpt lat="47.14897" lon="-1.63177">
        <ele>4.88</ele>
        <time>2014-04-18T15:20:24Z</time>
      </trkpt>
      <trkpt lat="47.14893" lon="-1.6315">
        <ele>1.83</ele>
        <time>2014-04-18T15:20:27Z</time>
      </trkpt>
      <trkpt lat="47.14892" lon="-1.63116">
        <ele>-0.09</ele>
        <time>2014-04-18T15:20:31Z</time>
      </trkpt>
      <trkpt lat="47.14895" lon="-1.63082">
        <ele>-0.26</ele>
        <time>2014-04-18T15:20:35Z</time>
      </trkpt>
      <trkpt lat="47.14897" lon="-1.63048">
        <ele>-1.24</ele>
        <time>2014-04-18T15:20:39Z</time>
      </trkpt>
      <trkpt lat="47.14902" lon="-1.63019">
        <ele>-1.84</ele>
        <time>2014-04-18T15:20:42Z</time>
      </trkpt>
      <trkpt lat="47.14906" lon="-1.62989">
        <ele>-3.65</ele>
        <time>2014-04-18T15:20:45Z</time>
      </trkpt>
      <trkpt lat="47.14907" lon="-1.62956">
        <ele>-6.82</ele>
        <time>2014-04-18T15:20:48Z</time>
      </trkpt>
      <trkpt lat="47.1491" lon="-1.62922">
        <ele>-11.08</ele>
        <time>2014-04-18T15:20:51Z</time>
      </trkpt>
      <trkpt lat="47.14914" lon="-1.6289">
        <ele>-14.06</ele>
        <time>2014-04-18T15:20:54Z</time>
      </trkpt>
      <trkpt lat="47.14918" lon="-1.62861">
        <ele>-16.32</ele>
        <time>2014-04-18T15:20:57Z</time>
      </trkpt>
      <trkpt lat="47.14924" lon="-1.62829">
        <ele>-18.34</ele>
        <time>2014-04-18T15:21:00Z</time>
      </trkpt>
      <trkpt lat="47.14926" lon="-1.62797">
        <ele>-21.13</ele>
        <time>2014-04-18T15:21:03Z</time>
      </trkpt>
      <trkpt lat="47.1493" lon="-1.62765">
        <ele>-23.94</ele>
        <time>2014-04-18T15:21:06Z</time>
      </trkpt>
      <trkpt lat="47.14933" lon="-1.62735">
        <ele>-25.86</ele>
        <time>2014-04-18T15:21:09Z</time>
      </trkpt>
      <trkpt lat="47.14937" lon="-1.62705">
        <ele>-27.53</ele>
        <time>2014-04-18T15:21:12Z</time>
      </trkpt>
      <trkpt lat="47.14941" lon="-1.62676">
        <ele>-29.24</ele>
        <time>2014-04-18T15:21:15Z</time>
      </trkpt>
      <trkpt lat="47.14945" lon="-1.62646">
        <ele>-30.96</ele>
        <time>2014-04-18T15:21:18Z</time>
      </trkpt>
      <trkpt lat="47.14949" lon="-1.62615">
        <ele>-32.47</ele>
        <time>2014-04-18T15:21:21Z</time>
      </trkpt>
      <trkpt lat="47.14952" lon="-1.62586">
        <ele>-33.5</ele>
        <time>2014-04-18T15:21:24Z</time>
      </trkpt>
      <trkpt lat="47.14955" lon="-1.62557">
        <ele>-34.66</ele>
        <time>2014-04-18T15:21:27Z</time>
      </trkpt>
      <trkpt lat="47.14959" lon="-1.62529">
        <ele>-35.94</ele>
        <time>2014-04-18T15:21:30Z</time>
      </trkpt>
      <trkpt lat="47.14964" lon="-1.62501">
        <ele>-36.53</ele>
        <time>2014-04-18T15:21:33Z</time>
      </trkpt>
      <trkpt lat="47.14971" lon="-1.62474">
        <ele>-37.08</ele>
        <time>2014-04-18T15:21:36Z</time>
      </trkpt>
      <trkpt lat="47.14976" lon="-1.62448">
        <ele>-37.62</ele>
        <time>2014-04-18T15:21:39Z</time>
      </trkpt>
      <trkpt lat="47.14981" lon="-1.62413">
        <ele>-38.09</ele>
        <time>2014-04-18T15:21:43Z</time>
      </trkpt>
      <trkpt lat="47.14985" lon="-1.62384">
        <ele>-38.13</ele>
        <time>2014-04-18T15:21:46Z</time>
      </trkpt>
      <trkpt lat="47.14986" lon="-1.62357">
        <ele>-37.96</ele>
        <time>2014-04-18T15:21:49Z</time>
      </trkpt>
      <trkpt lat="47.14989" lon="-1.6233">
        <ele>-37.76</ele>
        <time>2014-04-18T15:21:52Z</time>
      </trkpt>
      <trkpt lat="47.14994" lon="-1.62304">
        <ele>-37.26</ele>
        <time>2014-04-18T15:21:55Z</time>
      </trkpt>
      <trkpt lat="47.14998" lon="-1.6227">
        <ele>-36.91</ele>
        <time>2014-04-18T15:21:59Z</time>
      </trkpt>
      <trkpt lat="47.15002" lon="-1.62243">
        <ele>-36.32</ele>
        <time>2014-04-18T15:22:02Z</time>
      </trkpt>
      <trkpt lat="47.15005" lon="-1.62215">
        <ele>-35.75</ele>
        <time>2014-04-18T15:22:05Z</time>
      </trkpt>
      <trkpt lat="47.15009" lon="-1.62188">
        <ele>-35.47</ele>
        <time>2014-04-18T15:22:08Z</time>
      </trkpt>
      <trkpt lat="47.15013" lon="-1.62161">
        <ele>-34.85</ele>
        <time>2014-04-18T15:22:11Z</time>
      </trkpt>
      <trkpt lat="47.15016" lon="-1.62135">
        <ele>-34.15</ele>
        <time>2014-04-18T15:22:14Z</time>
      </trkpt>
      <trkpt lat="47.15018" lon="-1.62108">
        <ele>-33.35</ele>
        <time>2014-04-18T15:22:17Z</time>
      </trkpt>
      <trkpt lat="47.15012" lon="-1.62077">
        <ele>-32.69</ele>
        <time>2014-04-18T15:22:21Z</time>
      </trkpt>
      <trkpt lat="47.14992" lon="-1.62063">
        <ele>-33.81</ele>
        <time>2014-04-18T15:22:25Z</time>
      </trkpt>
      <trkpt lat="47.1497" lon="-1.62055">
        <ele>-34.26</ele>
        <time>2014-04-18T15:22:29Z</time>
      </trkpt>
      <trkpt lat="47.14951" lon="-1.62048">
        <ele>-33.93</ele>
        <time>2014-04-18T15:22:32Z</time>
      </trkpt>
      <trkpt lat="47.14933" lon="-1.62042">
        <ele>-33.62</ele>
        <time>2014-04-18T15:22:35Z</time>
      </trkpt>
      <trkpt lat="47.14914" lon="-1.62036">
        <ele>-33.23</ele>
        <time>2014-04-18T15:22:38Z</time>
      </trkpt>
      <trkpt lat="47.14895" lon="-1.62029">
        <ele>-32.93</ele>
        <time>2014-04-18T15:22:41Z</time>
      </trkpt>
      <trkpt lat="47.14877" lon="-1.62023">
        <ele>-32.73</ele>
        <time>2014-04-18T15:22:44Z</time>
      </trkpt>
      <trkpt lat="47.14858" lon="-1.6202">
        <ele>-32.62</ele>
        <time>2014-04-18T15:22:47Z</time>
      </trkpt>
      <trkpt lat="47.14839" lon="-1.6202">
        <ele>-32.68</ele>
        <time>2014-04-18T15:22:50Z</time>
      </trkpt>
      <trkpt lat="47.14819" lon="-1.6202">
        <ele>-32.9</ele>
        <time>2014-04-18T15:22:53Z</time>
      </trkpt>
      <trkpt lat="47.14799" lon="-1.62021">
        <ele>-33.49</ele>
        <time>2014-04-18T15:22:56Z</time>
      </trkpt>
      <trkpt lat="47.14779" lon="-1.62022">
        <ele>-34.08</ele>
        <time>2014-04-18T15:22:59Z</time>
      </trkpt>
      <trkpt lat="47.1476" lon="-1.62024">
        <ele>-34.8</ele>
        <time>2014-04-18T15:23:02Z</time>
      </trkpt>
      <trkpt lat="47.14741" lon="-1.62029">
        <ele>-35.34</ele>
        <time>2014-04-18T15:23:05Z</time>
      </trkpt>
      <trkpt lat="47.14721" lon="-1.62035">
        <ele>-36.42</ele>
        <time>2014-04-18T15:23:08Z</time>
      </trkpt>
      <trkpt lat="47.14702" lon="-1.62038">
        <ele>-36.95</ele>
        <time>2014-04-18T15:23:11Z</time>
      </trkpt>
      <trkpt lat="47.14681" lon="-1.6204">
        <ele>-37.53</ele>
        <time>2014-04-18T15:23:14Z</time>
      </trkpt>
      <trkpt lat="47.14662" lon="-1.62041">
        <ele>-37.91</ele>
        <time>2014-04-18T15:23:17Z</time>
      </trkpt>
      <trkpt lat="47.14643" lon="-1.62042">
        <ele>-38.18</ele>
        <time>2014-04-18T15:23:20Z</time>
      </trkpt>
      <trkpt lat="47.14625" lon="-1.62044">
        <ele>-38.24</ele>
        <time>2014-04-18T15:23:23Z</time>
      </trkpt>
      <trkpt lat="47.14606" lon="-1.62047">
        <ele>-38.42</ele>
        <time>2014-04-18T15:23:26Z</time>
      </trkpt>
      <trkpt lat="47.14587" lon="-1.62048">
        <ele>-38.59</ele>
        <time>2014-04-18T15:23:29Z</time>
      </trkpt>
      <trkpt lat="47.14563" lon="-1.62049">
        <ele>-39.07</ele>
        <time>2014-04-18T15:23:33Z</time>
      </trkpt>
      <trkpt lat="47.14544" lon="-1.62043">
        <ele>-39.25</ele>
        <time>2014-04-18T15:23:36Z</time>
      </trkpt>
      <trkpt lat="47.14526" lon="-1.62033">
        <ele>-39.07</ele>
        <time>2014-04-18T15:23:39Z</time>
      </trkpt>
      <trkpt lat="47.14509" lon="-1.62037">
        <ele>-39.34</ele>
        <time>2014-04-18T15:23:42Z</time>
      </trkpt>
      <trkpt lat="47.14491" lon="-1.62049">
        <ele>-39.73</ele>
        <time>2014-04-18T15:23:45Z</time>
      </trkpt>
      <trkpt lat="47.14471" lon="-1.62059">
        <ele>-39.86</ele>
        <time>2014-04-18T15:23:48Z</time>
      </trkpt>
      <trkpt lat="47.14452" lon="-1.6207">
        <ele>-40.02</ele>
        <time>2014-04-18T15:23:51Z</time>
      </trkpt>
      <trkpt lat="47.14434" lon="-1.62082">
        <ele>-40.07</ele>
        <time>2014-04-18T15:23:54Z</time>
      </trkpt>
      <trkpt lat="47.14416" lon="-1.62093">
        <ele>-40.15</ele>
        <time>2014-04-18T15:23:57Z</time>
      </trkpt>
      <trkpt lat="47.14399" lon="-1.62107">
        <ele>-40.17</ele>
        <time>2014-04-18T15:24:00Z</time>
      </trkpt>
      <trkpt lat="47.14385" lon="-1.62124">
        <ele>-40.16</ele>
        <time>2014-04-18T15:24:03Z</time>
      </trkpt>
      <trkpt lat="47.1437" lon="-1.6214">
        <ele>-40.22</ele>
        <time>2014-04-18T15:24:06Z</time>
      </trkpt>
      <trkpt lat="47.14354" lon="-1.62154">
        <ele>-40.27</ele>
        <time>2014-04-18T15:24:09Z</time>
      </trkpt>
      <trkpt lat="47.14337" lon="-1.62167">
        <ele>-40.36</ele>
        <time>2014-04-18T15:24:12Z</time>
      </trkpt>
      <trkpt lat="47.14319" lon="-1.62181">
        <ele>-40.45</ele>
        <time>2014-04-18T15:24:15Z</time>
      </trkpt>
      <trkpt lat="47.14301" lon="-1.62195">
        <ele>-40.77</ele>
        <time>2014-04-18T15:24:18Z</time>
      </trkpt>
      <trkpt lat="47.14285" lon="-1.62212">
        <ele>-40.86</ele>
        <time>2014-04-18T15:24:21Z</time>
      </trkpt>
      <trkpt lat="47.14274" lon="-1.62237">
        <ele>-41.15</ele>
        <time>2014-04-18T15:24:24Z</time>
      </trkpt>
      <trkpt lat="47.14267" lon="-1.62263">
        <ele>-41.81</ele>
        <time>2014-04-18T15:24:27Z</time>
      </trkpt>
      <trkpt lat="47.14262" lon="-1.62292">
        <ele>-42.38</ele>
        <time>2014-04-18T15:24:30Z</time>
      </trkpt>
      <trkpt lat="47.14257" lon="-1.6232">
        <ele>-42.95</ele>
        <time>2014-04-18T15:24:33Z</time>
      </trkpt>
      <trkpt lat="47.14252" lon="-1.6235">
        <ele>-43.66</ele>
        <time>2014-04-18T15:24:36Z</time>
      </trkpt>
      <trkpt lat="47.14246" lon="-1.62381">
        <ele>-44.46</ele>
        <time>2014-04-18T15:24:40Z</time>
      </trkpt>
      <trkpt lat="47.1424" lon="-1.62413">
        <ele>-44.94</ele>
        <time>2014-04-18T15:24:45Z</time>
      </trkpt>
      <trkpt lat="47.14241" lon="-1.62441">
        <ele>-45.47</ele>
        <time>2014-04-18T15:25:39Z</time>
      </trkpt>
      <trkpt lat="47.14257" lon="-1.62454">
        <ele>-42.37</ele>
        <time>2014-04-18T15:27:27Z</time>
      </trkpt>
      <trkpt lat="47.14241" lon="-1.62438">
        <ele>-45.37</ele>
        <time>2014-04-18T15:30:59Z</time>
      </trkpt>
      <trkpt lat="47.14228" lon="-1.6246">
        <ele>-47.22</ele>
        <time>2014-04-18T15:31:29Z</time>
      </trkpt>
      <trkpt lat="47.14218" lon="-1.62487">
        <ele>-47.53</ele>
        <time>2014-04-18T15:31:35Z</time>
      </trkpt>
      <trkpt lat="47.14211" lon="-1.62514">
        <ele>-47.57</ele>
        <time>2014-04-18T15:31:41Z</time>
      </trkpt>
      <trkpt lat="47.14213" lon="-1.62545">
        <ele>-47.47</ele>
        <time>2014-04-18T15:31:45Z</time>
      </trkpt>
      <trkpt lat="47.14216" lon="-1.6258">
        <ele>-47.26</ele>
        <time>2014-04-18T15:31:48Z</time>
      </trkpt>
      <trkpt lat="47.14214" lon="-1.6261">
        <ele>-46.97</ele>
        <time>2014-04-18T15:31:51Z</time>
      </trkpt>
      <trkpt lat="47.14197" lon="-1.62627">
        <ele>-46.05</ele>
        <time>2014-04-18T15:31:55Z</time>
      </trkpt>
      <trkpt lat="47.14179" lon="-1.62633">
        <ele>-45.06</ele>
        <time>2014-04-18T15:31:58Z</time>
      </trkpt>
      <trkpt lat="47.14164" lon="-1.62653">
        <ele>-43.96</ele>
        <time>2014-04-18T15:32:01Z</time>
      </trkpt>
      <trkpt lat="47.1415" lon="-1.62677">
        <ele>-42.96</ele>
        <time>2014-04-18T15:32:04Z</time>
      </trkpt>
      <trkpt lat="47.14133" lon="-1.62691">
        <ele>-42.16</ele>
        <time>2014-04-18T15:32:07Z</time>
      </trkpt>
      <trkpt lat="47.14115" lon="-1.62699">
        <ele>-41.18</ele>
        <time>2014-04-18T15:32:10Z</time>
      </trkpt>
      <trkpt lat="47.14096" lon="-1.62707">
        <ele>-39.86</ele>
        <time>2014-04-18T15:32:14Z</time>
      </trkpt>
      <trkpt lat="47.14078" lon="-1.62712">
        <ele>-38.22</ele>
        <time>2014-04-18T15:32:18Z</time>
      </trkpt>
      <trkpt lat="47.14059" lon="-1.62729">
        <ele>-37.51</ele>
        <time>2014-04-18T15:32:22Z</time>
      </trkpt>
      <trkpt lat="47.14041" lon="-1.62732">
        <ele>-36.74</ele>
        <time>2014-04-18T15:32:25Z</time>
      </trkpt>
      <trkpt lat="47.14022" lon="-1.62739">
        <ele>-35.87</ele>
        <time>2014-04-18T15:32:28Z</time>
      </trkpt>
      <trkpt lat="47.14003" lon="-1.62751">
        <ele>-34.77</ele>
        <time>2014-04-18T15:32:31Z</time>
      </trkpt>
      <trkpt lat="47.13985" lon="-1.62764">
        <ele>-33.67</ele>
        <time>2014-04-18T15:32:34Z</time>
      </trkpt>
      <trkpt lat="47.13966" lon="-1.62779">
        <ele>-33.74</ele>
        <time>2014-04-18T15:32:37Z</time>
      </trkpt>
      <trkpt lat="47.13947" lon="-1.62793">
        <ele>-33.53</ele>
        <time>2014-04-18T15:32:40Z</time>
      </trkpt>
      <trkpt lat="47.13928" lon="-1.62808">
        <ele>-33.27</ele>
        <time>2014-04-18T15:32:43Z</time>
      </trkpt>
      <trkpt lat="47.13911" lon="-1.62827">
        <ele>-33.06</ele>
        <time>2014-04-18T15:32:46Z</time>
      </trkpt>
      <trkpt lat="47.13895" lon="-1.62846">
        <ele>-32.95</ele>
        <time>2014-04-18T15:32:49Z</time>
      </trkpt>
      <trkpt lat="47.13879" lon="-1.62862">
        <ele>-32.9</ele>
        <time>2014-04-18T15:32:52Z</time>
      </trkpt>
      <trkpt lat="47.13864" lon="-1.6288">
        <ele>-32.96</ele>
        <time>2014-04-18T15:32:55Z</time>
      </trkpt>
      <trkpt lat="47.13847" lon="-1.62895">
        <ele>-33.34</ele>
        <time>2014-04-18T15:32:58Z</time>
      </trkpt>
      <trkpt lat="47.13826" lon="-1.62876">
        <ele>-33.72</ele>
        <time>2014-04-18T15:33:03Z</time>
      </trkpt>
      <trkpt lat="47.13817" lon="-1.6285">
        <ele>-33.9</ele>
        <time>2014-04-18T15:33:06Z</time>
      </trkpt>
      <trkpt lat="47.13806" lon="-1.62824">
        <ele>-34.24</ele>
        <time>2014-04-18T15:33:09Z</time>
      </trkpt>
      <trkpt lat="47.13798" lon="-1.62798">
        <ele>-34.81</ele>
        <time>2014-04-18T15:33:12Z</time>
      </trkpt>
      <trkpt lat="47.13793" lon="-1.62767">
        <ele>-34.97</ele>
        <time>2014-04-18T15:33:15Z</time>
      </trkpt>
      <trkpt lat="47.13792" lon="-1.62737">
        <ele>-34.91</ele>
        <time>2014-04-18T15:33:18Z</time>
      </trkpt>
      <trkpt lat="47.13794" lon="-1.62707">
        <ele>-34.95</ele>
        <time>2014-04-18T15:33:21Z</time>
      </trkpt>
      <trkpt lat="47.13792" lon="-1.62678">
        <ele>-34.82</ele>
        <time>2014-04-18T15:33:24Z</time>
      </trkpt>
      <trkpt lat="47.13791" lon="-1.62652">
        <ele>-34.64</ele>
        <time>2014-04-18T15:33:27Z</time>
      </trkpt>
      <trkpt lat="47.13785" lon="-1.62619">
        <ele>-34.37</ele>
        <time>2014-04-18T15:33:31Z</time>
      </trkpt>
      <trkpt lat="47.13779" lon="-1.62586">
        <ele>-34.56</ele>
        <time>2014-04-18T15:33:35Z</time>
      </trkpt>
      <trkpt lat="47.13779" lon="-1.62558">
        <ele>-34.11</ele>
        <time>2014-04-18T15:33:38Z</time>
      </trkpt>
      <trkpt lat="47.1378" lon="-1.62531">
        <ele>-33.54</ele>
        <time>2014-04-18T15:33:41Z</time>
      </trkpt>
      <trkpt lat="47.13779" lon="-1.62496">
        <ele>-34.11</ele>
        <time>2014-04-18T15:33:44Z</time>
      </trkpt>
      <trkpt lat="47.13775" lon="-1.62464">
        <ele>-34.77</ele>
        <time>2014-04-18T15:33:47Z</time>
      </trkpt>
      <trkpt lat="47.13773" lon="-1.62438">
        <ele>-34.79</ele>
        <time>2014-04-18T15:33:50Z</time>
      </trkpt>
      <trkpt lat="47.13773" lon="-1.6241">
        <ele>-33.8</ele>
        <time>2014-04-18T15:33:53Z</time>
      </trkpt>
      <trkpt lat="47.13774" lon="-1.62381">
        <ele>-32.44</ele>
        <time>2014-04-18T15:33:56Z</time>
      </trkpt>
      <trkpt lat="47.13774" lon="-1.62349">
        <ele>-31.76</ele>
        <time>2014-04-18T15:33:59Z</time>
      </trkpt>
      <trkpt lat="47.13771" lon="-1.62316">
        <ele>-32.21</ele>
        <time>2014-04-18T15:34:02Z</time>
      </trkpt>
      <trkpt lat="47.13765" lon="-1.62286">
        <ele>-32.53</ele>
        <time>2014-04-18T15:34:05Z</time>
      </trkpt>
      <trkpt lat="47.1376" lon="-1.62255">
        <ele>-32.62</ele>
        <time>2014-04-18T15:34:08Z</time>
      </trkpt>
      <trkpt lat="47.13755" lon="-1.62225">
        <ele>-32.83</ele>
        <time>2014-04-18T15:34:11Z</time>
      </trkpt>
      <trkpt lat="47.13752" lon="-1.62196">
        <ele>-33.84</ele>
        <time>2014-04-18T15:34:14Z</time>
      </trkpt>
      <trkpt lat="47.13748" lon="-1.6217">
        <ele>-34.37</ele>
        <time>2014-04-18T15:34:17Z</time>
      </trkpt>
      <trkpt lat="47.13744" lon="-1.6214">
        <ele>-34.95</ele>
        <time>2014-04-18T15:34:20Z</time>
      </trkpt>
      <trkpt lat="47.1374" lon="-1.62112">
        <ele>-35.53</ele>
        <time>2014-04-18T15:34:23Z</time>
      </trkpt>
      <trkpt lat="47.13736" lon="-1.62083">
        <ele>-35.31</ele>
        <time>2014-04-18T15:34:26Z</time>
      </trkpt>
      <trkpt lat="47.13732" lon="-1.62051">
        <ele>-34.73</ele>
        <time>2014-04-18T15:34:29Z</time>
      </trkpt>
      <trkpt lat="47.13728" lon="-1.62024">
        <ele>-34.61</ele>
        <time>2014-04-18T15:34:32Z</time>
      </trkpt>
      <trkpt lat="47.13725" lon="-1.61994">
        <ele>-34.62</ele>
        <time>2014-04-18T15:34:35Z</time>
      </trkpt>
      <trkpt lat="47.13722" lon="-1.61964">
        <ele>-34.63</ele>
        <time>2014-04-18T15:34:38Z</time>
      </trkpt>
      <trkpt lat="47.13722" lon="-1.61934">
        <ele>-34.87</ele>
        <time>2014-04-18T15:34:41Z</time>
      </trkpt>
      <trkpt lat="47.13722" lon="-1.61903">
        <ele>-36.5</ele>
        <time>2014-04-18T15:34:44Z</time>
      </trkpt>
      <trkpt lat="47.13725" lon="-1.61874">
        <ele>-37.38</ele>
        <time>2014-04-18T15:34:47Z</time>
      </trkpt>
      <trkpt lat="47.13727" lon="-1.61845">
        <ele>-37.76</ele>
        <time>2014-04-18T15:34:50Z</time>
      </trkpt>
      <trkpt lat="47.13731" lon="-1.61817">
        <ele>-38.6</ele>
        <time>2014-04-18T15:34:53Z</time>
      </trkpt>
      <trkpt lat="47.13737" lon="-1.61788">
        <ele>-38.71</ele>
        <time>2014-04-18T15:34:56Z</time>
      </trkpt>
      <trkpt lat="47.13742" lon="-1.61759">
        <ele>-40.25</ele>
        <time>2014-04-18T15:34:59Z</time>
      </trkpt>
      <trkpt lat="47.13736" lon="-1.61734">
        <ele>-41.57</ele>
        <time>2014-04-18T15:35:03Z</time>
      </trkpt>
      <trkpt lat="47.13719" lon="-1.61744">
        <ele>-41.49</ele>
        <time>2014-04-18T15:35:06Z</time>
      </trkpt>
      <trkpt lat="47.13696" lon="-1.6176">
        <ele>-41.8</ele>
        <time>2014-04-18T15:35:09Z</time>
      </trkpt>
      <trkpt lat="47.13673" lon="-1.61772">
        <ele>-41.36</ele>
        <time>2014-04-18T15:35:12Z</time>
      </trkpt>
      <trkpt lat="47.13651" lon="-1.61782">
        <ele>-41.47</ele>
        <time>2014-04-18T15:35:15Z</time>
      </trkpt>
      <trkpt lat="47.13631" lon="-1.61791">
        <ele>-41.76</ele>
        <time>2014-04-18T15:35:18Z</time>
      </trkpt>
      <trkpt lat="47.1361" lon="-1.61801">
        <ele>-42.08</ele>
        <time>2014-04-18T15:35:21Z</time>
      </trkpt>
      <trkpt lat="47.13587" lon="-1.61807">
        <ele>-42.75</ele>
        <time>2014-04-18T15:35:24Z</time>
      </trkpt>
      <trkpt lat="47.13565" lon="-1.61817">
        <ele>-43.97</ele>
        <time>2014-04-18T15:35:27Z</time>
      </trkpt>
      <trkpt lat="47.13545" lon="-1.61826">
        <ele>-44.71</ele>
        <time>2014-04-18T15:35:30Z</time>
      </trkpt>
      <trkpt lat="47.13525" lon="-1.61833">
        <ele>-45.03</ele>
        <time>2014-04-18T15:35:33Z</time>
      </trkpt>
      <trkpt lat="47.13504" lon="-1.61842">
        <ele>-45.16</ele>
        <time>2014-04-18T15:35:36Z</time>
      </trkpt>
      <trkpt lat="47.13484" lon="-1.61854">
        <ele>-45.27</ele>
        <time>2014-04-18T15:35:39Z</time>
      </trkpt>
      <trkpt lat="47.13465" lon="-1.61868">
        <ele>-44.84</ele>
        <time>2014-04-18T15:35:42Z</time>
      </trkpt>
      <trkpt lat="47.13446" lon="-1.61882">
        <ele>-43.87</ele>
        <time>2014-04-18T15:35:45Z</time>
      </trkpt>
      <trkpt lat="47.13426" lon="-1.61896">
        <ele>-43.56</ele>
        <time>2014-04-18T15:35:48Z</time>
      </trkpt>
      <trkpt lat="47.13407" lon="-1.61909">
        <ele>-43.66</ele>
        <time>2014-04-18T15:35:51Z</time>
      </trkpt>
      <trkpt lat="47.13388" lon="-1.61919">
        <ele>-44.2</ele>
        <time>2014-04-18T15:35:54Z</time>
      </trkpt>
      <trkpt lat="47.13369" lon="-1.61929">
        <ele>-44.6</ele>
        <time>2014-04-18T15:35:57Z</time>
      </trkpt>
      <trkpt lat="47.1335" lon="-1.6194">
        <ele>-44.71</ele>
        <time>2014-04-18T15:36:00Z</time>
      </trkpt>
      <trkpt lat="47.13332" lon="-1.61954">
        <ele>-44.64</ele>
        <time>2014-04-18T15:36:03Z</time>
      </trkpt>
      <trkpt lat="47.13313" lon="-1.61965">
        <ele>-44.54</ele>
        <time>2014-04-18T15:36:06Z</time>
      </trkpt>
      <trkpt lat="47.13295" lon="-1.61984">
        <ele>-44.33</ele>
        <time>2014-04-18T15:36:09Z</time>
      </trkpt>
      <trkpt lat="47.13277" lon="-1.62004">
        <ele>-44.19</ele>
        <time>2014-04-18T15:36:12Z</time>
      </trkpt>
      <trkpt lat="47.1326" lon="-1.62027">
        <ele>-44</ele>
        <time>2014-04-18T15:36:15Z</time>
      </trkpt>
      <trkpt lat="47.13244" lon="-1.62049">
        <ele>-43.89</ele>
        <time>2014-04-18T15:36:18Z</time>
      </trkpt>
      <trkpt lat="47.13229" lon="-1.62073">
        <ele>-43.79</ele>
        <time>2014-04-18T15:36:21Z</time>
      </trkpt>
      <trkpt lat="47.13215" lon="-1.62099">
        <ele>-43.95</ele>
        <time>2014-04-18T15:36:24Z</time>
      </trkpt>
      <trkpt lat="47.13201" lon="-1.62125">
        <ele>-44.02</ele>
        <time>2014-04-18T15:36:27Z</time>
      </trkpt>
      <trkpt lat="47.13188" lon="-1.62151">
        <ele>-44.08</ele>
        <time>2014-04-18T15:36:30Z</time>
      </trkpt>
      <trkpt lat="47.13176" lon="-1.62178">
        <ele>-44.67</ele>
        <time>2014-04-18T15:36:33Z</time>
      </trkpt>
      <trkpt lat="47.13163" lon="-1.62203">
        <ele>-44.97</ele>
        <time>2014-04-18T15:36:36Z</time>
      </trkpt>
      <trkpt lat="47.1315" lon="-1.62229">
        <ele>-45.47</ele>
        <time>2014-04-18T15:36:39Z</time>
      </trkpt>
      <trkpt lat="47.13137" lon="-1.62255">
        <ele>-46.35</ele>
        <time>2014-04-18T15:36:42Z</time>
      </trkpt>
      <trkpt lat="47.13125" lon="-1.62281">
        <ele>-47.22</ele>
        <time>2014-04-18T15:36:45Z</time>
      </trkpt>
      <trkpt lat="47.1311" lon="-1.62301">
        <ele>-48.4</ele>
        <time>2014-04-18T15:36:48Z</time>
      </trkpt>
      <trkpt lat="47.13091" lon="-1.6229">
        <ele>-48.66</ele>
        <time>2014-04-18T15:36:52Z</time>
      </trkpt>
      <trkpt lat="47.13074" lon="-1.62265">
        <ele>-48.51</ele>
        <time>2014-04-18T15:36:55Z</time>
      </trkpt>
      <trkpt lat="47.13061" lon="-1.62245">
        <ele>-48.48</ele>
        <time>2014-04-18T15:36:58Z</time>
      </trkpt>
      <trkpt lat="47.13048" lon="-1.62224">
        <ele>-48.55</ele>
        <time>2014-04-18T15:37:01Z</time>
      </trkpt>
      <trkpt lat="47.13034" lon="-1.62201">
        <ele>-48.62</ele>
        <time>2014-04-18T15:37:04Z</time>
      </trkpt>
      <trkpt lat="47.13021" lon="-1.62177">
        <ele>-48.72</ele>
        <time>2014-04-18T15:37:07Z</time>
      </trkpt>
      <trkpt lat="47.13008" lon="-1.62156">
        <ele>-48.98</ele>
        <time>2014-04-18T15:37:10Z</time>
      </trkpt>
      <trkpt lat="47.12995" lon="-1.62133">
        <ele>-49.27</ele>
        <time>2014-04-18T15:37:13Z</time>
      </trkpt>
      <trkpt lat="47.12981" lon="-1.62108">
        <ele>-49.52</ele>
        <time>2014-04-18T15:37:16Z</time>
      </trkpt>
      <trkpt lat="47.12967" lon="-1.6208">
        <ele>-49.69</ele>
        <time>2014-04-18T15:37:19Z</time>
      </trkpt>
      <trkpt lat="47.12954" lon="-1.62053">
        <ele>-50.04</ele>
        <time>2014-04-18T15:37:22Z</time>
      </trkpt>
      <trkpt lat="47.12941" lon="-1.62023">
        <ele>-50.22</ele>
        <time>2014-04-18T15:37:25Z</time>
      </trkpt>
      <trkpt lat="47.12931" lon="-1.61995">
        <ele>-50.23</ele>
        <time>2014-04-18T15:37:28Z</time>
      </trkpt>
      <trkpt lat="47.12924" lon="-1.61969">
        <ele>-50.48</ele>
        <time>2014-04-18T15:37:31Z</time>
      </trkpt>
      <trkpt lat="47.12919" lon="-1.61936">
        <ele>-51.22</ele>
        <time>2014-04-18T15:37:34Z</time>
      </trkpt>
      <trkpt lat="47.12913" lon="-1.61903">
        <ele>-51.88</ele>
        <time>2014-04-18T15:37:37Z</time>
      </trkpt>
      <trkpt lat="47.12905" lon="-1.61874">
        <ele>-52.3</ele>
        <time>2014-04-18T15:37:40Z</time>
      </trkpt>
      <trkpt lat="47.12898" lon="-1.61844">
        <ele>-52.56</ele>
        <time>2014-04-18T15:37:43Z</time>
      </trkpt>
      <trkpt lat="47.12887" lon="-1.61818">
        <ele>-52.84</ele>
        <time>2014-04-18T15:37:46Z</time>
      </trkpt>
      <trkpt lat="47.12877" lon="-1.61792">
        <ele>-53.04</ele>
        <time>2014-04-18T15:37:49Z</time>
      </trkpt>
      <trkpt lat="47.12865" lon="-1.61766">
        <ele>-53.32</ele>
        <time>2014-04-18T15:37:52Z</time>
      </trkpt>
      <trkpt lat="47.12854" lon="-1.61742">
        <ele>-53.44</ele>
        <time>2014-04-18T15:37:55Z</time>
      </trkpt>
      <trkpt lat="47.12841" lon="-1.61719">
        <ele>-53.3</ele>
        <time>2014-04-18T15:37:58Z</time>
      </trkpt>
      <trkpt lat="47.12828" lon="-1.61693">
        <ele>-53.02</ele>
        <time>2014-04-18T15:38:02Z</time>
      </trkpt>
      <trkpt lat="47.12818" lon="-1.6167">
        <ele>-52.2</ele>
        <time>2014-04-18T15:38:07Z</time>
      </trkpt>
      <trkpt lat="47.12807" lon="-1.61639">
        <ele>-51.33</ele>
        <time>2014-04-18T15:38:11Z</time>
      </trkpt>
      <trkpt lat="47.12797" lon="-1.61614">
        <ele>-50.83</ele>
        <time>2014-04-18T15:38:14Z</time>
      </trkpt>
      <trkpt lat="47.12787" lon="-1.61589">
        <ele>-49.82</ele>
        <time>2014-04-18T15:38:17Z</time>
      </trkpt>
      <trkpt lat="47.12779" lon="-1.61564">
        <ele>-48.07</ele>
        <time>2014-04-18T15:38:20Z</time>
      </trkpt>
      <trkpt lat="47.12772" lon="-1.61539">
        <ele>-47.55</ele>
        <time>2014-04-18T15:38:23Z</time>
      </trkpt>
      <trkpt lat="47.12762" lon="-1.61516">
        <ele>-47.73</ele>
        <time>2014-04-18T15:38:26Z</time>
      </trkpt>
      <trkpt lat="47.12752" lon="-1.61493">
        <ele>-47.28</ele>
        <time>2014-04-18T15:38:29Z</time>
      </trkpt>
      <trkpt lat="47.1274" lon="-1.6147">
        <ele>-46.62</ele>
        <time>2014-04-18T15:38:32Z</time>
      </trkpt>
      <trkpt lat="47.12726" lon="-1.61443">
        <ele>-45.78</ele>
        <time>2014-04-18T15:38:36Z</time>
      </trkpt>
      <trkpt lat="47.12714" lon="-1.61413">
        <ele>-45.24</ele>
        <time>2014-04-18T15:38:40Z</time>
      </trkpt>
      <trkpt lat="47.12703" lon="-1.61385">
        <ele>-44.53</ele>
        <time>2014-04-18T15:38:44Z</time>
      </trkpt>
      <trkpt lat="47.12695" lon="-1.61355">
        <ele>-43.91</ele>
        <time>2014-04-18T15:38:48Z</time>
      </trkpt>
      <trkpt lat="47.12686" lon="-1.61325">
        <ele>-42.94</ele>
        <time>2014-04-18T15:38:52Z</time>
      </trkpt>
      <trkpt lat="47.12677" lon="-1.61293">
        <ele>-41.2</ele>
        <time>2014-04-18T15:38:56Z</time>
      </trkpt>
      <trkpt lat="47.1267" lon="-1.61261">
        <ele>-42.41</ele>
        <time>2014-04-18T15:39:00Z</time>
      </trkpt>
      <trkpt lat="47.12673" lon="-1.61232">
        <ele>-42.58</ele>
        <time>2014-04-18T15:39:03Z</time>
      </trkpt>
      <trkpt lat="47.12676" lon="-1.61202">
        <ele>-43.99</ele>
        <time>2014-04-18T15:39:06Z</time>
      </trkpt>
      <trkpt lat="47.12681" lon="-1.61173">
        <ele>-43.98</ele>
        <time>2014-04-18T15:39:09Z</time>
      </trkpt>
      <trkpt lat="47.12684" lon="-1.61143">
        <ele>-44.95</ele>
        <time>2014-04-18T15:39:12Z</time>
      </trkpt>
      <trkpt lat="47.12686" lon="-1.61114">
        <ele>-46.38</ele>
        <time>2014-04-18T15:39:15Z</time>
      </trkpt>
      <trkpt lat="47.12688" lon="-1.61086">
        <ele>-47.59</ele>
        <time>2014-04-18T15:39:18Z</time>
      </trkpt>
      <trkpt lat="47.1269" lon="-1.61057">
        <ele>-48.5</ele>
        <time>2014-04-18T15:39:21Z</time>
      </trkpt>
      <trkpt lat="47.12691" lon="-1.61029">
        <ele>-49.39</ele>
        <time>2014-04-18T15:39:24Z</time>
      </trkpt>
      <trkpt lat="47.12692" lon="-1.61">
        <ele>-51</ele>
        <time>2014-04-18T15:39:27Z</time>
      </trkpt>
      <trkpt lat="47.12693" lon="-1.60972">
        <ele>-52.88</ele>
        <time>2014-04-18T15:39:30Z</time>
      </trkpt>
      <trkpt lat="47.12696" lon="-1.60938">
        <ele>-53.67</ele>
        <time>2014-04-18T15:39:34Z</time>
      </trkpt>
      <trkpt lat="47.127" lon="-1.60905">
        <ele>-53.14</ele>
        <time>2014-04-18T15:39:38Z</time>
      </trkpt>
      <trkpt lat="47.12706" lon="-1.60879">
        <ele>-52.96</ele>
        <time>2014-04-18T15:39:41Z</time>
      </trkpt>
      <trkpt lat="47.12715" lon="-1.60854">
        <ele>-52.18</ele>
        <time>2014-04-18T15:39:44Z</time>
      </trkpt>
      <trkpt lat="47.12722" lon="-1.60829">
        <ele>-50.98</ele>
        <time>2014-04-18T15:39:47Z</time>
      </trkpt>
      <trkpt lat="47.12722" lon="-1.608">
        <ele>-49.66</ele>
        <time>2014-04-18T15:39:51Z</time>
      </trkpt>
      <trkpt lat="47.12703" lon="-1.60797">
        <ele>-48.01</ele>
        <time>2014-04-18T15:39:56Z</time>
      </trkpt>
      <trkpt lat="47.1268" lon="-1.60808">
        <ele>-47.02</ele>
        <time>2014-04-18T15:40:00Z</time>
      </trkpt>
      <trkpt lat="47.12662" lon="-1.60814">
        <ele>-46.33</ele>
        <time>2014-04-18T15:40:03Z</time>
      </trkpt>
      <trkpt lat="47.12641" lon="-1.60821">
        <ele>-45.59</ele>
        <time>2014-04-18T15:40:06Z</time>
      </trkpt>
      <trkpt lat="47.12622" lon="-1.60827">
        <ele>-44.89</ele>
        <time>2014-04-18T15:40:09Z</time>
      </trkpt>
      <trkpt lat="47.12604" lon="-1.60834">
        <ele>-44.36</ele>
        <time>2014-04-18T15:40:12Z</time>
      </trkpt>
      <trkpt lat="47.12584" lon="-1.60841">
        <ele>-43.85</ele>
        <time>2014-04-18T15:40:15Z</time>
      </trkpt>
      <trkpt lat="47.12567" lon="-1.60847">
        <ele>-43.27</ele>
        <time>2014-04-18T15:40:18Z</time>
      </trkpt>
      <trkpt lat="47.12545" lon="-1.60849">
        <ele>-44.28</ele>
        <time>2014-04-18T15:40:22Z</time>
      </trkpt>
      <trkpt lat="47.12542" lon="-1.60817">
        <ele>-45.6</ele>
        <time>2014-04-18T15:40:26Z</time>
      </trkpt>
      <trkpt lat="47.12543" lon="-1.60787">
        <ele>-46.38</ele>
        <time>2014-04-18T15:40:29Z</time>
      </trkpt>
      <trkpt lat="47.12541" lon="-1.60756">
        <ele>-49.37</ele>
        <time>2014-04-18T15:40:32Z</time>
      </trkpt>
      <trkpt lat="47.12542" lon="-1.60725">
        <ele>-51.16</ele>
        <time>2014-04-18T15:40:35Z</time>
      </trkpt>
      <trkpt lat="47.12542" lon="-1.60694">
        <ele>-52.71</ele>
        <time>2014-04-18T15:40:38Z</time>
      </trkpt>
      <trkpt lat="47.12542" lon="-1.60663">
        <ele>-54.37</ele>
        <time>2014-04-18T15:40:41Z</time>
      </trkpt>
      <trkpt lat="47.12541" lon="-1.60634">
        <ele>-56.12</ele>
        <time>2014-04-18T15:40:44Z</time>
      </trkpt>
      <trkpt lat="47.12541" lon="-1.60604">
        <ele>-56.83</ele>
        <time>2014-04-18T15:40:47Z</time>
      </trkpt>
      <trkpt lat="47.1254" lon="-1.60575">
        <ele>-57.76</ele>
        <time>2014-04-18T15:40:50Z</time>
      </trkpt>
      <trkpt lat="47.12539" lon="-1.60546">
        <ele>-58.1</ele>
        <time>2014-04-18T15:40:53Z</time>
      </trkpt>
      <trkpt lat="47.12538" lon="-1.60517">
        <ele>-58.53</ele>
        <time>2014-04-18T15:40:56Z</time>
      </trkpt>
      <trkpt lat="47.12535" lon="-1.60488">
        <ele>-59.01</ele>
        <time>2014-04-18T15:40:59Z</time>
      </trkpt>
      <trkpt lat="47.12531" lon="-1.60462">
        <ele>-59.17</ele>
        <time>2014-04-18T15:41:02Z</time>
      </trkpt>
      <trkpt lat="47.12525" lon="-1.60435">
        <ele>-59.36</ele>
        <time>2014-04-18T15:41:05Z</time>
      </trkpt>
      <trkpt lat="47.12519" lon="-1.60409">
        <ele>-59.57</ele>
        <time>2014-04-18T15:41:08Z</time>
      </trkpt>
      <trkpt lat="47.12514" lon="-1.60383">
        <ele>-59.79</ele>
        <time>2014-04-18T15:41:11Z</time>
      </trkpt>
      <trkpt lat="47.12509" lon="-1.60355">
        <ele>-59.76</ele>
        <time>2014-04-18T15:41:14Z</time>
      </trkpt>
      <trkpt lat="47.12504" lon="-1.60327">
        <ele>-59.77</ele>
        <time>2014-04-18T15:41:17Z</time>
      </trkpt>
      <trkpt lat="47.12499" lon="-1.60299">
        <ele>-59.86</ele>
        <time>2014-04-18T15:41:20Z</time>
      </trkpt>
      <trkpt lat="47.12494" lon="-1.60272">
        <ele>-60.18</ele>
        <time>2014-04-18T15:41:23Z</time>
      </trkpt>
      <trkpt lat="47.12488" lon="-1.60245">
        <ele>-60.74</ele>
        <time>2014-04-18T15:41:26Z</time>
      </trkpt>
      <trkpt lat="47.12484" lon="-1.60218">
        <ele>-61.57</ele>
        <time>2014-04-18T15:41:29Z</time>
      </trkpt>
      <trkpt lat="47.12481" lon="-1.60184">
        <ele>-61.8</ele>
        <time>2014-04-18T15:41:33Z</time>
      </trkpt>
      <trkpt lat="47.12479" lon="-1.6015">
        <ele>-62.04</ele>
        <time>2014-04-18T15:41:37Z</time>
      </trkpt>
      <trkpt lat="47.12477" lon="-1.60124">
        <ele>-62.28</ele>
        <time>2014-04-18T15:41:40Z</time>
      </trkpt>
      <trkpt lat="47.12475" lon="-1.60089">
        <ele>-61.72</ele>
        <time>2014-04-18T15:41:44Z</time>
      </trkpt>
      <trkpt lat="47.12474" lon="-1.60062">
        <ele>-61.6</ele>
        <time>2014-04-18T15:41:47Z</time>
      </trkpt>
      <trkpt lat="47.12472" lon="-1.6003">
        <ele>-60.69</ele>
        <time>2014-04-18T15:41:51Z</time>
      </trkpt>
      <trkpt lat="47.12472" lon="-1.59998">
        <ele>-59.34</ele>
        <time>2014-04-18T15:41:55Z</time>
      </trkpt>
      <trkpt lat="47.12471" lon="-1.59971">
        <ele>-59.33</ele>
        <time>2014-04-18T15:41:58Z</time>
      </trkpt>
      <trkpt lat="47.1247" lon="-1.59938">
        <ele>-58.77</ele>
        <time>2014-04-18T15:42:02Z</time>
      </trkpt>
      <trkpt lat="47.12468" lon="-1.59911">
        <ele>-58.04</ele>
        <time>2014-04-18T15:42:05Z</time>
      </trkpt>
      <trkpt lat="47.12469" lon="-1.59885">
        <ele>-57.51</ele>
        <time>2014-04-18T15:42:08Z</time>
      </trkpt>
      <trkpt lat="47.12467" lon="-1.5985">
        <ele>-56.54</ele>
        <time>2014-04-18T15:42:12Z</time>
      </trkpt>
      <trkpt lat="47.12465" lon="-1.59816">
        <ele>-55.03</ele>
        <time>2014-04-18T15:42:16Z</time>
      </trkpt>
      <trkpt lat="47.12462" lon="-1.59787">
        <ele>-54.78</ele>
        <time>2014-04-18T15:42:19Z</time>
      </trkpt>
      <trkpt lat="47.12462" lon="-1.5976">
        <ele>-55.95</ele>
        <time>2014-04-18T15:42:22Z</time>
      </trkpt>
      <trkpt lat="47.12459" lon="-1.59733">
        <ele>-56.1</ele>
        <time>2014-04-18T15:42:25Z</time>
      </trkpt>
      <trkpt lat="47.12458" lon="-1.59706">
        <ele>-56.23</ele>
        <time>2014-04-18T15:42:28Z</time>
      </trkpt>
      <trkpt lat="47.12457" lon="-1.59678">
        <ele>-56.28</ele>
        <time>2014-04-18T15:42:31Z</time>
      </trkpt>
      <trkpt lat="47.12456" lon="-1.59651">
        <ele>-56.39</ele>
        <time>2014-04-18T15:42:34Z</time>
      </trkpt>
      <trkpt lat="47.12454" lon="-1.59622">
        <ele>-56.33</ele>
        <time>2014-04-18T15:42:37Z</time>
      </trkpt>
      <trkpt lat="47.12453" lon="-1.59595">
        <ele>-56.17</ele>
        <time>2014-04-18T15:42:40Z</time>
      </trkpt>
      <trkpt lat="47.12451" lon="-1.59566">
        <ele>-56.76</ele>
        <time>2014-04-18T15:42:43Z</time>
      </trkpt>
      <trkpt lat="47.12449" lon="-1.59538">
        <ele>-57.51</ele>
        <time>2014-04-18T15:42:46Z</time>
      </trkpt>
      <trkpt lat="47.12448" lon="-1.5951">
        <ele>-58.27</ele>
        <time>2014-04-18T15:42:49Z</time>
      </trkpt>
      <trkpt lat="47.12446" lon="-1.59482">
        <ele>-58.89</ele>
        <time>2014-04-18T15:42:52Z</time>
      </trkpt>
      <trkpt lat="47.12444" lon="-1.59454">
        <ele>-59.78</ele>
        <time>2014-04-18T15:42:55Z</time>
      </trkpt>
      <trkpt lat="47.12443" lon="-1.59425">
        <ele>-60.25</ele>
        <time>2014-04-18T15:42:58Z</time>
      </trkpt>
      <trkpt lat="47.12441" lon="-1.59395">
        <ele>-60.21</ele>
        <time>2014-04-18T15:43:01Z</time>
      </trkpt>
      <trkpt lat="47.1244" lon="-1.59365">
        <ele>-60.6</ele>
        <time>2014-04-18T15:43:04Z</time>
      </trkpt>
      <trkpt lat="47.12439" lon="-1.59335">
        <ele>-60.99</ele>
        <time>2014-04-18T15:43:07Z</time>
      </trkpt>
      <trkpt lat="47.12437" lon="-1.59303">
        <ele>-61.43</ele>
        <time>2014-04-18T15:43:10Z</time>
      </trkpt>
      <trkpt lat="47.12435" lon="-1.59272">
        <ele>-62.52</ele>
        <time>2014-04-18T15:43:13Z</time>
      </trkpt>
      <trkpt lat="47.12433" lon="-1.59242">
        <ele>-62.25</ele>
        <time>2014-04-18T15:43:16Z</time>
      </trkpt>
      <trkpt lat="47.12429" lon="-1.59211">
        <ele>-62.78</ele>
        <time>2014-04-18T15:43:19Z</time>
      </trkpt>
      <trkpt lat="47.12427" lon="-1.59181">
        <ele>-61.6</ele>
        <time>2014-04-18T15:43:22Z</time>
      </trkpt>
      <trkpt lat="47.12429" lon="-1.59149">
        <ele>-61.26</ele>
        <time>2014-04-18T15:43:25Z</time>
      </trkpt>
      <trkpt lat="47.12427" lon="-1.59116">
        <ele>-60.55</ele>
        <time>2014-04-18T15:43:28Z</time>
      </trkpt>
      <trkpt lat="47.12426" lon="-1.59081">
        <ele>-60.61</ele>
        <time>2014-04-18T15:43:31Z</time>
      </trkpt>
      <trkpt lat="47.12425" lon="-1.59049">
        <ele>-60.88</ele>
        <time>2014-04-18T15:43:34Z</time>
      </trkpt>
      <trkpt lat="47.12423" lon="-1.59018">
        <ele>-60.27</ele>
        <time>2014-04-18T15:43:37Z</time>
      </trkpt>
      <trkpt lat="47.12421" lon="-1.58985">
        <ele>-59.27</ele>
        <time>2014-04-18T15:43:40Z</time>
      </trkpt>
      <trkpt lat="47.1242" lon="-1.58956">
        <ele>-58.32</ele>
        <time>2014-04-18T15:43:43Z</time>
      </trkpt>
      <trkpt lat="47.12419" lon="-1.58929">
        <ele>-57.08</ele>
        <time>2014-04-18T15:43:46Z</time>
      </trkpt>
      <trkpt lat="47.12417" lon="-1.58902">
        <ele>-56.25</ele>
        <time>2014-04-18T15:43:49Z</time>
      </trkpt>
      <trkpt lat="47.12414" lon="-1.58874">
        <ele>-55.42</ele>
        <time>2014-04-18T15:43:52Z</time>
      </trkpt>
      <trkpt lat="47.12411" lon="-1.58847">
        <ele>-54.8</ele>
        <time>2014-04-18T15:43:55Z</time>
      </trkpt>
      <trkpt lat="47.12408" lon="-1.5882">
        <ele>-54.9</ele>
        <time>2014-04-18T15:43:58Z</time>
      </trkpt>
      <trkpt lat="47.12405" lon="-1.58792">
        <ele>-55.07</ele>
        <time>2014-04-18T15:44:01Z</time>
      </trkpt>
      <trkpt lat="47.12401" lon="-1.58765">
        <ele>-55.87</ele>
        <time>2014-04-18T15:44:04Z</time>
      </trkpt>
      <trkpt lat="47.12395" lon="-1.58736">
        <ele>-55.79</ele>
        <time>2014-04-18T15:44:07Z</time>
      </trkpt>
      <trkpt lat="47.12388" lon="-1.5871">
        <ele>-55.31</ele>
        <time>2014-04-18T15:44:10Z</time>
      </trkpt>
      <trkpt lat="47.12383" lon="-1.58682">
        <ele>-54.64</ele>
        <time>2014-04-18T15:44:13Z</time>
      </trkpt>
      <trkpt lat="47.12378" lon="-1.58656">
        <ele>-54.04</ele>
        <time>2014-04-18T15:44:16Z</time>
      </trkpt>
      <trkpt lat="47.12372" lon="-1.5863">
        <ele>-53.55</ele>
        <time>2014-04-18T15:44:19Z</time>
      </trkpt>
      <trkpt lat="47.12366" lon="-1.58604">
        <ele>-53.35</ele>
        <time>2014-04-18T15:44:22Z</time>
      </trkpt>
      <trkpt lat="47.12359" lon="-1.58579">
        <ele>-52.83</ele>
        <time>2014-04-18T15:44:25Z</time>
      </trkpt>
      <trkpt lat="47.12353" lon="-1.5855">
        <ele>-52.39</ele>
        <time>2014-04-18T15:44:28Z</time>
      </trkpt>
      <trkpt lat="47.12345" lon="-1.58522">
        <ele>-51.85</ele>
        <time>2014-04-18T15:44:31Z</time>
      </trkpt>
      <trkpt lat="47.12339" lon="-1.58494">
        <ele>-51.18</ele>
        <time>2014-04-18T15:44:34Z</time>
      </trkpt>
      <trkpt lat="47.12333" lon="-1.58468">
        <ele>-50.44</ele>
        <time>2014-04-18T15:44:40Z</time>
      </trkpt>
      <trkpt lat="47.12326" lon="-1.58439">
        <ele>-48.98</ele>
        <time>2014-04-18T15:44:48Z</time>
      </trkpt>
      <trkpt lat="47.12347" lon="-1.58428">
        <ele>-48.64</ele>
        <time>2014-04-18T15:44:53Z</time>
      </trkpt>
      <trkpt lat="47.12367" lon="-1.58421">
        <ele>-48.12</ele>
        <time>2014-04-18T15:44:56Z</time>
      </trkpt>
      <trkpt lat="47.12389" lon="-1.58415">
        <ele>-47.95</ele>
        <time>2014-04-18T15:44:59Z</time>
      </trkpt>
      <trkpt lat="47.12405" lon="-1.58405">
        <ele>-47.81</ele>
        <time>2014-04-18T15:45:02Z</time>
      </trkpt>
      <trkpt lat="47.12423" lon="-1.58392">
        <ele>-47.23</ele>
        <time>2014-04-18T15:45:05Z</time>
      </trkpt>
      <trkpt lat="47.1244" lon="-1.58378">
        <ele>-46.53</ele>
        <time>2014-04-18T15:45:08Z</time>
      </trkpt>
      <trkpt lat="47.12457" lon="-1.58365">
        <ele>-46.23</ele>
        <time>2014-04-18T15:45:11Z</time>
      </trkpt>
      <trkpt lat="47.12472" lon="-1.5835">
        <ele>-45.96</ele>
        <time>2014-04-18T15:45:14Z</time>
      </trkpt>
      <trkpt lat="47.12488" lon="-1.58335">
        <ele>-45.71</ele>
        <time>2014-04-18T15:45:17Z</time>
      </trkpt>
      <trkpt lat="47.12509" lon="-1.58319">
        <ele>-46.09</ele>
        <time>2014-04-18T15:45:21Z</time>
      </trkpt>
      <trkpt lat="47.12529" lon="-1.58302">
        <ele>-47.9</ele>
        <time>2014-04-18T15:45:25Z</time>
      </trkpt>
      <trkpt lat="47.1255" lon="-1.58285">
        <ele>-48.86</ele>
        <time>2014-04-18T15:45:29Z</time>
      </trkpt>
      <trkpt lat="47.12566" lon="-1.58271">
        <ele>-49.46</ele>
        <time>2014-04-18T15:45:32Z</time>
      </trkpt>
      <trkpt lat="47.12582" lon="-1.5826">
        <ele>-50.51</ele>
        <time>2014-04-18T15:45:35Z</time>
      </trkpt>
      <trkpt lat="47.12598" lon="-1.58246">
        <ele>-51.13</ele>
        <time>2014-04-18T15:45:38Z</time>
      </trkpt>
      <trkpt lat="47.12617" lon="-1.58227">
        <ele>-50.97</ele>
        <time>2014-04-18T15:45:42Z</time>
      </trkpt>
      <trkpt lat="47.12638" lon="-1.5821">
        <ele>-51.11</ele>
        <time>2014-04-18T15:45:46Z</time>
      </trkpt>
      <trkpt lat="47.12656" lon="-1.58198">
        <ele>-51.49</ele>
        <time>2014-04-18T15:45:49Z</time>
      </trkpt>
      <trkpt lat="47.12672" lon="-1.58183">
        <ele>-51.19</ele>
        <time>2014-04-18T15:45:52Z</time>
      </trkpt>
      <trkpt lat="47.12689" lon="-1.58169">
        <ele>-51.19</ele>
        <time>2014-04-18T15:45:55Z</time>
      </trkpt>
      <trkpt lat="47.12704" lon="-1.58154">
        <ele>-52.94</ele>
        <time>2014-04-18T15:45:58Z</time>
      </trkpt>
      <trkpt lat="47.12719" lon="-1.58139">
        <ele>-51.53</ele>
        <time>2014-04-18T15:46:01Z</time>
      </trkpt>
      <trkpt lat="47.12736" lon="-1.58123">
        <ele>-51.93</ele>
        <time>2014-04-18T15:46:04Z</time>
      </trkpt>
      <trkpt lat="47.12752" lon="-1.58104">
        <ele>-53.46</ele>
        <time>2014-04-18T15:46:07Z</time>
      </trkpt>
      <trkpt lat="47.12769" lon="-1.58091">
        <ele>-54.17</ele>
        <time>2014-04-18T15:46:10Z</time>
      </trkpt>
      <trkpt lat="47.12788" lon="-1.58075">
        <ele>-55.7</ele>
        <time>2014-04-18T15:46:13Z</time>
      </trkpt>
      <trkpt lat="47.12805" lon="-1.58057">
        <ele>-56.93</ele>
        <time>2014-04-18T15:46:16Z</time>
      </trkpt>
      <trkpt lat="47.12823" lon="-1.5804">
        <ele>-57.28</ele>
        <time>2014-04-18T15:46:19Z</time>
      </trkpt>
      <trkpt lat="47.1284" lon="-1.58023">
        <ele>-57.75</ele>
        <time>2014-04-18T15:46:22Z</time>
      </trkpt>
      <trkpt lat="47.1286" lon="-1.58006">
        <ele>-58.66</ele>
        <time>2014-04-18T15:46:25Z</time>
      </trkpt>
      <trkpt lat="47.12878" lon="-1.57989">
        <ele>-58.93</ele>
        <time>2014-04-18T15:46:28Z</time>
      </trkpt>
      <trkpt lat="47.12896" lon="-1.57973">
        <ele>-58.28</ele>
        <time>2014-04-18T15:46:31Z</time>
      </trkpt>
      <trkpt lat="47.12911" lon="-1.57954">
        <ele>-58.64</ele>
        <time>2014-04-18T15:46:34Z</time>
      </trkpt>
      <trkpt lat="47.12908" lon="-1.57924">
        <ele>-59.54</ele>
        <time>2014-04-18T15:46:37Z</time>
      </trkpt>
      <trkpt lat="47.12898" lon="-1.57893">
        <ele>-60.52</ele>
        <time>2014-04-18T15:46:40Z</time>
      </trkpt>
      <trkpt lat="47.12888" lon="-1.57861">
        <ele>-61.33</ele>
        <time>2014-04-18T15:46:43Z</time>
      </trkpt>
      <trkpt lat="47.1288" lon="-1.57826">
        <ele>-62.57</ele>
        <time>2014-04-18T15:46:46Z</time>
      </trkpt>
      <trkpt lat="47.12873" lon="-1.57791">
        <ele>-64.41</ele>
        <time>2014-04-18T15:46:49Z</time>
      </trkpt>
      <trkpt lat="47.1287" lon="-1.57755">
        <ele>-66.65</ele>
        <time>2014-04-18T15:46:52Z</time>
      </trkpt>
      <trkpt lat="47.12868" lon="-1.5772">
        <ele>-68.77</ele>
        <time>2014-04-18T15:46:55Z</time>
      </trkpt>
      <trkpt lat="47.12865" lon="-1.57685">
        <ele>-69.84</ele>
        <time>2014-04-18T15:46:58Z</time>
      </trkpt>
      <trkpt lat="47.12864" lon="-1.5765">
        <ele>-70.37</ele>
        <time>2014-04-18T15:47:01Z</time>
      </trkpt>
      <trkpt lat="47.12862" lon="-1.57616">
        <ele>-70.04</ele>
        <time>2014-04-18T15:47:04Z</time>
      </trkpt>
      <trkpt lat="47.1286" lon="-1.57583">
        <ele>-68.93</ele>
        <time>2014-04-18T15:47:07Z</time>
      </trkpt>
      <trkpt lat="47.1286" lon="-1.57552">
        <ele>-67.19</ele>
        <time>2014-04-18T15:47:10Z</time>
      </trkpt>
      <trkpt lat="47.1286" lon="-1.57521">
        <ele>-65.16</ele>
        <time>2014-04-18T15:47:13Z</time>
      </trkpt>
      <trkpt lat="47.1286" lon="-1.5749">
        <ele>-63.75</ele>
        <time>2014-04-18T15:47:16Z</time>
      </trkpt>
      <trkpt lat="47.12861" lon="-1.57458">
        <ele>-63.57</ele>
        <time>2014-04-18T15:47:19Z</time>
      </trkpt>
      <trkpt lat="47.12864" lon="-1.5743">
        <ele>-63.21</ele>
        <time>2014-04-18T15:47:22Z</time>
      </trkpt>
      <trkpt lat="47.12869" lon="-1.57402">
        <ele>-62.65</ele>
        <time>2014-04-18T15:47:25Z</time>
      </trkpt>
      <trkpt lat="47.12873" lon="-1.57374">
        <ele>-61.62</ele>
        <time>2014-04-18T15:47:28Z</time>
      </trkpt>
      <trkpt lat="47.12877" lon="-1.57343">
        <ele>-63.54</ele>
        <time>2014-04-18T15:47:31Z</time>
      </trkpt>
      <trkpt lat="47.12882" lon="-1.57314">
        <ele>-64.65</ele>
        <time>2014-04-18T15:47:34Z</time>
      </trkpt>
      <trkpt lat="47.12886" lon="-1.57285">
        <ele>-65.52</ele>
        <time>2014-04-18T15:47:37Z</time>
      </trkpt>
      <trkpt lat="47.1289" lon="-1.57256">
        <ele>-66.17</ele>
        <time>2014-04-18T15:47:40Z</time>
      </trkpt>
      <trkpt lat="47.12895" lon="-1.57228">
        <ele>-65.11</ele>
        <time>2014-04-18T15:47:43Z</time>
      </trkpt>
      <trkpt lat="47.12899" lon="-1.572">
        <ele>-63.9</ele>
        <time>2014-04-18T15:47:46Z</time>
      </trkpt>
      <trkpt lat="47.12904" lon="-1.57171">
        <ele>-63.03</ele>
        <time>2014-04-18T15:47:49Z</time>
      </trkpt>
      <trkpt lat="47.12907" lon="-1.57142">
        <ele>-61.78</ele>
        <time>2014-04-18T15:47:52Z</time>
      </trkpt>
      <trkpt lat="47.12907" lon="-1.57114">
        <ele>-59.82</ele>
        <time>2014-04-18T15:47:55Z</time>
      </trkpt>
      <trkpt lat="47.12904" lon="-1.57088">
        <ele>-57.83</ele>
        <time>2014-04-18T15:47:58Z</time>
      </trkpt>
      <trkpt lat="47.129" lon="-1.57061">
        <ele>-57.14</ele>
        <time>2014-04-18T15:48:01Z</time>
      </trkpt>
      <trkpt lat="47.12894" lon="-1.57031">
        <ele>-56.68</ele>
        <time>2014-04-18T15:48:05Z</time>
      </trkpt>
      <trkpt lat="47.12889" lon="-1.57">
        <ele>-57.38</ele>
        <time>2014-04-18T15:48:09Z</time>
      </trkpt>
      <trkpt lat="47.12883" lon="-1.56966">
        <ele>-57.9</ele>
        <time>2014-04-18T15:48:13Z</time>
      </trkpt>
      <trkpt lat="47.12879" lon="-1.56939">
        <ele>-57.36</ele>
        <time>2014-04-18T15:48:16Z</time>
      </trkpt>
      <trkpt lat="47.12876" lon="-1.56913">
        <ele>-57.17</ele>
        <time>2014-04-18T15:48:19Z</time>
      </trkpt>
      <trkpt lat="47.12873" lon="-1.5688">
        <ele>-56.69</ele>
        <time>2014-04-18T15:48:23Z</time>
      </trkpt>
      <trkpt lat="47.12871" lon="-1.56847">
        <ele>-56.29</ele>
        <time>2014-04-18T15:48:27Z</time>
      </trkpt>
      <trkpt lat="47.12872" lon="-1.5682">
        <ele>-56.14</ele>
        <time>2014-04-18T15:48:30Z</time>
      </trkpt>
      <trkpt lat="47.12873" lon="-1.56792">
        <ele>-55.73</ele>
        <time>2014-04-18T15:48:33Z</time>
      </trkpt>
      <trkpt lat="47.12876" lon="-1.56765">
        <ele>-57.26</ele>
        <time>2014-04-18T15:48:36Z</time>
      </trkpt>
      <trkpt lat="47.12883" lon="-1.56733">
        <ele>-56.34</ele>
        <time>2014-04-18T15:48:40Z</time>
      </trkpt>
      <trkpt lat="47.12889" lon="-1.56702">
        <ele>-55.58</ele>
        <time>2014-04-18T15:48:44Z</time>
      </trkpt>
      <trkpt lat="47.12891" lon="-1.5667">
        <ele>-55.84</ele>
        <time>2014-04-18T15:48:48Z</time>
      </trkpt>
      <trkpt lat="47.12902" lon="-1.5664">
        <ele>-54.87</ele>
        <time>2014-04-18T15:48:52Z</time>
      </trkpt>
      <trkpt lat="47.12913" lon="-1.56609">
        <ele>-53.84</ele>
        <time>2014-04-18T15:48:56Z</time>
      </trkpt>
      <trkpt lat="47.12919" lon="-1.56583">
        <ele>-53.31</ele>
        <time>2014-04-18T15:48:59Z</time>
      </trkpt>
      <trkpt lat="47.12921" lon="-1.56556">
        <ele>-53.28</ele>
        <time>2014-04-18T15:49:02Z</time>
      </trkpt>
      <trkpt lat="47.12922" lon="-1.56529">
        <ele>-53.72</ele>
        <time>2014-04-18T15:49:05Z</time>
      </trkpt>
      <trkpt lat="47.12922" lon="-1.56502">
        <ele>-53.49</ele>
        <time>2014-04-18T15:49:08Z</time>
      </trkpt>
      <trkpt lat="47.12924" lon="-1.56469">
        <ele>-52.78</ele>
        <time>2014-04-18T15:49:12Z</time>
      </trkpt>
      <trkpt lat="47.12924" lon="-1.56442">
        <ele>-52.24</ele>
        <time>2014-04-18T15:49:15Z</time>
      </trkpt>
      <trkpt lat="47.12924" lon="-1.56414">
        <ele>-52.54</ele>
        <time>2014-04-18T15:49:18Z</time>
      </trkpt>
      <trkpt lat="47.12924" lon="-1.56387">
        <ele>-51.83</ele>
        <time>2014-04-18T15:49:21Z</time>
      </trkpt>
      <trkpt lat="47.12923" lon="-1.56358">
        <ele>-51.82</ele>
        <time>2014-04-18T15:49:24Z</time>
      </trkpt>
      <trkpt lat="47.12921" lon="-1.56328">
        <ele>-51.13</ele>
        <time>2014-04-18T15:49:27Z</time>
      </trkpt>
      <trkpt lat="47.1292" lon="-1.56299">
        <ele>-51.09</ele>
        <time>2014-04-18T15:49:30Z</time>
      </trkpt>
      <trkpt lat="47.12916" lon="-1.56268">
        <ele>-50.58</ele>
        <time>2014-04-18T15:49:33Z</time>
      </trkpt>
      <trkpt lat="47.12911" lon="-1.56238">
        <ele>-50.17</ele>
        <time>2014-04-18T15:49:36Z</time>
      </trkpt>
      <trkpt lat="47.12904" lon="-1.5621">
        <ele>-49.09</ele>
        <time>2014-04-18T15:49:39Z</time>
      </trkpt>
      <trkpt lat="47.12895" lon="-1.56181">
        <ele>-48.61</ele>
        <time>2014-04-18T15:49:42Z</time>
      </trkpt>
      <trkpt lat="47.12886" lon="-1.56151">
        <ele>-49.98</ele>
        <time>2014-04-18T15:49:45Z</time>
      </trkpt>
      <trkpt lat="47.1288" lon="-1.56122">
        <ele>-51.4</ele>
        <time>2014-04-18T15:49:48Z</time>
      </trkpt>
      <trkpt lat="47.12874" lon="-1.56092">
        <ele>-51.55</ele>
        <time>2014-04-18T15:49:51Z</time>
      </trkpt>
      <trkpt lat="47.1287" lon="-1.5606">
        <ele>-52.48</ele>
        <time>2014-04-18T15:49:54Z</time>
      </trkpt>
      <trkpt lat="47.12867" lon="-1.56027">
        <ele>-53.83</ele>
        <time>2014-04-18T15:49:57Z</time>
      </trkpt>
      <trkpt lat="47.12863" lon="-1.55998">
        <ele>-53.87</ele>
        <time>2014-04-18T15:50:00Z</time>
      </trkpt>
      <trkpt lat="47.12859" lon="-1.55967">
        <ele>-54.27</ele>
        <time>2014-04-18T15:50:03Z</time>
      </trkpt>
      <trkpt lat="47.12854" lon="-1.55936">
        <ele>-54.97</ele>
        <time>2014-04-18T15:50:06Z</time>
      </trkpt>
      <trkpt lat="47.12852" lon="-1.55906">
        <ele>-55.89</ele>
        <time>2014-04-18T15:50:09Z</time>
      </trkpt>
      <trkpt lat="47.1285" lon="-1.55876">
        <ele>-56.88</ele>
        <time>2014-04-18T15:50:12Z</time>
      </trkpt>
      <trkpt lat="47.12849" lon="-1.55845">
        <ele>-57.35</ele>
        <time>2014-04-18T15:50:15Z</time>
      </trkpt>
      <trkpt lat="47.12846" lon="-1.55815">
        <ele>-57.78</ele>
        <time>2014-04-18T15:50:18Z</time>
      </trkpt>
      <trkpt lat="47.12843" lon="-1.55785">
        <ele>-58.06</ele>
        <time>2014-04-18T15:50:21Z</time>
      </trkpt>
      <trkpt lat="47.12838" lon="-1.55754">
        <ele>-57.5</ele>
        <time>2014-04-18T15:50:24Z</time>
      </trkpt>
      <trkpt lat="47.12832" lon="-1.55721">
        <ele>-57.08</ele>
        <time>2014-04-18T15:50:27Z</time>
      </trkpt>
      <trkpt lat="47.12823" lon="-1.55691">
        <ele>-56.89</ele>
        <time>2014-04-18T15:50:30Z</time>
      </trkpt>
      <trkpt lat="47.12813" lon="-1.55662">
        <ele>-57.09</ele>
        <time>2014-04-18T15:50:33Z</time>
      </trkpt>
      <trkpt lat="47.12801" lon="-1.55634">
        <ele>-57.03</ele>
        <time>2014-04-18T15:50:36Z</time>
      </trkpt>
      <trkpt lat="47.1279" lon="-1.55606">
        <ele>-56.59</ele>
        <time>2014-04-18T15:50:39Z</time>
      </trkpt>
      <trkpt lat="47.12779" lon="-1.55578">
        <ele>-56.38</ele>
        <time>2014-04-18T15:50:42Z</time>
      </trkpt>
      <trkpt lat="47.12769" lon="-1.55551">
        <ele>-56.67</ele>
        <time>2014-04-18T15:50:45Z</time>
      </trkpt>
      <trkpt lat="47.12759" lon="-1.55523">
        <ele>-56.82</ele>
        <time>2014-04-18T15:50:48Z</time>
      </trkpt>
      <trkpt lat="47.1275" lon="-1.55496">
        <ele>-57.18</ele>
        <time>2014-04-18T15:50:51Z</time>
      </trkpt>
      <trkpt lat="47.1274" lon="-1.55468">
        <ele>-57.2</ele>
        <time>2014-04-18T15:50:54Z</time>
      </trkpt>
      <trkpt lat="47.12731" lon="-1.55442">
        <ele>-57.44</ele>
        <time>2014-04-18T15:50:57Z</time>
      </trkpt>
      <trkpt lat="47.12727" lon="-1.55413">
        <ele>-57.64</ele>
        <time>2014-04-18T15:51:00Z</time>
      </trkpt>
      <trkpt lat="47.12725" lon="-1.55383">
        <ele>-58.12</ele>
        <time>2014-04-18T15:51:03Z</time>
      </trkpt>
      <trkpt lat="47.12726" lon="-1.55352">
        <ele>-59.52</ele>
        <time>2014-04-18T15:51:06Z</time>
      </trkpt>
      <trkpt lat="47.1273" lon="-1.55322">
        <ele>-59.82</ele>
        <time>2014-04-18T15:51:09Z</time>
      </trkpt>
      <trkpt lat="47.12734" lon="-1.55295">
        <ele>-59.99</ele>
        <time>2014-04-18T15:51:12Z</time>
      </trkpt>
      <trkpt lat="47.12738" lon="-1.55269">
        <ele>-60.06</ele>
        <time>2014-04-18T15:51:15Z</time>
      </trkpt>
      <trkpt lat="47.12741" lon="-1.55243">
        <ele>-60.54</ele>
        <time>2014-04-18T15:51:18Z</time>
      </trkpt>
      <trkpt lat="47.12745" lon="-1.55217">
        <ele>-60.39</ele>
        <time>2014-04-18T15:51:21Z</time>
      </trkpt>
      <trkpt lat="47.12748" lon="-1.55191">
        <ele>-60.04</ele>
        <time>2014-04-18T15:51:24Z</time>
      </trkpt>
      <trkpt lat="47.1275" lon="-1.55156">
        <ele>-58.5</ele>
        <time>2014-04-18T15:51:28Z</time>
      </trkpt>
      <trkpt lat="47.12755" lon="-1.55128">
        <ele>-56.93</ele>
        <time>2014-04-18T15:51:32Z</time>
      </trkpt>
      <trkpt lat="47.12759" lon="-1.55098">
        <ele>-54.81</ele>
        <time>2014-04-18T15:51:36Z</time>
      </trkpt>
      <trkpt lat="47.12762" lon="-1.55069">
        <ele>-53.07</ele>
        <time>2014-04-18T15:51:40Z</time>
      </trkpt>
      <trkpt lat="47.12766" lon="-1.55037">
        <ele>-51.98</ele>
        <time>2014-04-18T15:51:44Z</time>
      </trkpt>
      <trkpt lat="47.12771" lon="-1.55007">
        <ele>-51.08</ele>
        <time>2014-04-18T15:51:48Z</time>
      </trkpt>
      <trkpt lat="47.12777" lon="-1.54975">
        <ele>-50.83</ele>
        <time>2014-04-18T15:51:52Z</time>
      </trkpt>
      <trkpt lat="47.12786" lon="-1.54944">
        <ele>-50.51</ele>
        <time>2014-04-18T15:51:56Z</time>
      </trkpt>
      <trkpt lat="47.12794" lon="-1.5492">
        <ele>-50.2</ele>
        <time>2014-04-18T15:51:59Z</time>
      </trkpt>
      <trkpt lat="47.12803" lon="-1.54897">
        <ele>-50.5</ele>
        <time>2014-04-18T15:52:02Z</time>
      </trkpt>
      <trkpt lat="47.12816" lon="-1.54868">
        <ele>-50.56</ele>
        <time>2014-04-18T15:52:06Z</time>
      </trkpt>
      <trkpt lat="47.12827" lon="-1.54839">
        <ele>-50.32</ele>
        <time>2014-04-18T15:52:10Z</time>
      </trkpt>
      <trkpt lat="47.12838" lon="-1.5481">
        <ele>-50.7</ele>
        <time>2014-04-18T15:52:14Z</time>
      </trkpt>
      <trkpt lat="47.1285" lon="-1.5478">
        <ele>-51.71</ele>
        <time>2014-04-18T15:52:18Z</time>
      </trkpt>
      <trkpt lat="47.12864" lon="-1.54754">
        <ele>-52.15</ele>
        <time>2014-04-18T15:52:22Z</time>
      </trkpt>
      <trkpt lat="47.12878" lon="-1.54728">
        <ele>-52.18</ele>
        <time>2014-04-18T15:52:26Z</time>
      </trkpt>
      <trkpt lat="47.12885" lon="-1.54698">
        <ele>-51.77</ele>
        <time>2014-04-18T15:52:30Z</time>
      </trkpt>
      <trkpt lat="47.12888" lon="-1.54671">
        <ele>-52.39</ele>
        <time>2014-04-18T15:52:33Z</time>
      </trkpt>
      <trkpt lat="47.12892" lon="-1.54637">
        <ele>-52.95</ele>
        <time>2014-04-18T15:52:37Z</time>
      </trkpt>
      <trkpt lat="47.12894" lon="-1.54605">
        <ele>-52.51</ele>
        <time>2014-04-18T15:52:41Z</time>
      </trkpt>
      <trkpt lat="47.12897" lon="-1.54571">
        <ele>-52.11</ele>
        <time>2014-04-18T15:52:45Z</time>
      </trkpt>
      <trkpt lat="47.12906" lon="-1.54541">
        <ele>-52.5</ele>
        <time>2014-04-18T15:52:49Z</time>
      </trkpt>
      <trkpt lat="47.12921" lon="-1.54517">
        <ele>-52.59</ele>
        <time>2014-04-18T15:52:53Z</time>
      </trkpt>
      <trkpt lat="47.12939" lon="-1.54497">
        <ele>-52.55</ele>
        <time>2014-04-18T15:52:57Z</time>
      </trkpt>
      <trkpt lat="47.1296" lon="-1.54485">
        <ele>-52.89</ele>
        <time>2014-04-18T15:53:01Z</time>
      </trkpt>
      <trkpt lat="47.12982" lon="-1.54477">
        <ele>-52.69</ele>
        <time>2014-04-18T15:53:05Z</time>
      </trkpt>
      <trkpt lat="47.13" lon="-1.54472">
        <ele>-52.15</ele>
        <time>2014-04-18T15:53:08Z</time>
      </trkpt>
      <trkpt lat="47.13021" lon="-1.54466">
        <ele>-51.26</ele>
        <time>2014-04-18T15:53:12Z</time>
      </trkpt>
      <trkpt lat="47.13042" lon="-1.5446">
        <ele>-49.94</ele>
        <time>2014-04-18T15:53:16Z</time>
      </trkpt>
      <trkpt lat="47.1306" lon="-1.54453">
        <ele>-49.63</ele>
        <time>2014-04-18T15:53:19Z</time>
      </trkpt>
      <trkpt lat="47.13081" lon="-1.54442">
        <ele>-48.43</ele>
        <time>2014-04-18T15:53:23Z</time>
      </trkpt>
      <trkpt lat="47.13102" lon="-1.54428">
        <ele>-48.86</ele>
        <time>2014-04-18T15:53:27Z</time>
      </trkpt>
      <trkpt lat="47.13121" lon="-1.54413">
        <ele>-49.77</ele>
        <time>2014-04-18T15:53:31Z</time>
      </trkpt>
      <trkpt lat="47.13141" lon="-1.54397">
        <ele>-51.49</ele>
        <time>2014-04-18T15:53:35Z</time>
      </trkpt>
      <trkpt lat="47.13161" lon="-1.54382">
        <ele>-52.84</ele>
        <time>2014-04-18T15:53:39Z</time>
      </trkpt>
      <trkpt lat="47.13181" lon="-1.54367">
        <ele>-52.44</ele>
        <time>2014-04-18T15:53:43Z</time>
      </trkpt>
      <trkpt lat="47.132" lon="-1.54352">
        <ele>-51.03</ele>
        <time>2014-04-18T15:53:47Z</time>
      </trkpt>
      <trkpt lat="47.13218" lon="-1.54335">
        <ele>-50.55</ele>
        <time>2014-04-18T15:53:51Z</time>
      </trkpt>
      <trkpt lat="47.13235" lon="-1.54319">
        <ele>-51.05</ele>
        <time>2014-04-18T15:53:55Z</time>
      </trkpt>
      <trkpt lat="47.13257" lon="-1.54307">
        <ele>-50.56</ele>
        <time>2014-04-18T15:53:59Z</time>
      </trkpt>
      <trkpt lat="47.13277" lon="-1.54295">
        <ele>-50.64</ele>
        <time>2014-04-18T15:54:03Z</time>
      </trkpt>
      <trkpt lat="47.13296" lon="-1.54285">
        <ele>-50.48</ele>
        <time>2014-04-18T15:54:07Z</time>
      </trkpt>
      <trkpt lat="47.13315" lon="-1.54271">
        <ele>-49.52</ele>
        <time>2014-04-18T15:54:11Z</time>
      </trkpt>
      <trkpt lat="47.13333" lon="-1.54258">
        <ele>-48.55</ele>
        <time>2014-04-18T15:54:15Z</time>
      </trkpt>
      <trkpt lat="47.13351" lon="-1.54244">
        <ele>-48.45</ele>
        <time>2014-04-18T15:54:19Z</time>
      </trkpt>
      <trkpt lat="47.13368" lon="-1.5423">
        <ele>-47.93</ele>
        <time>2014-04-18T15:54:23Z</time>
      </trkpt>
      <trkpt lat="47.13388" lon="-1.54215">
        <ele>-47.97</ele>
        <time>2014-04-18T15:54:27Z</time>
      </trkpt>
      <trkpt lat="47.13408" lon="-1.54201">
        <ele>-48.31</ele>
        <time>2014-04-18T15:54:31Z</time>
      </trkpt>
      <trkpt lat="47.13429" lon="-1.54191">
        <ele>-47.74</ele>
        <time>2014-04-18T15:54:35Z</time>
      </trkpt>
      <trkpt lat="47.13451" lon="-1.54186">
        <ele>-46.88</ele>
        <time>2014-04-18T15:54:39Z</time>
      </trkpt>
      <trkpt lat="47.13472" lon="-1.54178">
        <ele>-45.44</ele>
        <time>2014-04-18T15:54:43Z</time>
      </trkpt>
      <trkpt lat="47.13493" lon="-1.54172">
        <ele>-44.22</ele>
        <time>2014-04-18T15:54:47Z</time>
      </trkpt>
      <trkpt lat="47.13514" lon="-1.54168">
        <ele>-45.01</ele>
        <time>2014-04-18T15:54:51Z</time>
      </trkpt>
      <trkpt lat="47.13534" lon="-1.54164">
        <ele>-44.43</ele>
        <time>2014-04-18T15:54:55Z</time>
      </trkpt>
      <trkpt lat="47.13554" lon="-1.54159">
        <ele>-43.51</ele>
        <time>2014-04-18T15:54:59Z</time>
      </trkpt>
      <trkpt lat="47.1355" lon="-1.54127">
        <ele>-40.96</ele>
        <time>2014-04-18T15:55:05Z</time>
      </trkpt>
      <trkpt lat="47.13538" lon="-1.54107">
        <ele>-39.8</ele>
        <time>2014-04-18T15:55:08Z</time>
      </trkpt>
      <trkpt lat="47.13524" lon="-1.54089">
        <ele>-37.61</ele>
        <time>2014-04-18T15:55:11Z</time>
      </trkpt>
      <trkpt lat="47.13508" lon="-1.54065">
        <ele>-35.31</ele>
        <time>2014-04-18T15:55:15Z</time>
      </trkpt>
      <trkpt lat="47.13495" lon="-1.54045">
        <ele>-33.79</ele>
        <time>2014-04-18T15:55:18Z</time>
      </trkpt>
      <trkpt lat="47.13485" lon="-1.54022">
        <ele>-32.33</ele>
        <time>2014-04-18T15:55:21Z</time>
      </trkpt>
      <trkpt lat="47.13473" lon="-1.54001">
        <ele>-31.32</ele>
        <time>2014-04-18T15:55:24Z</time>
      </trkpt>
      <trkpt lat="47.13462" lon="-1.5398">
        <ele>-30.78</ele>
        <time>2014-04-18T15:55:27Z</time>
      </trkpt>
      <trkpt lat="47.13448" lon="-1.53954">
        <ele>-30.89</ele>
        <time>2014-04-18T15:55:31Z</time>
      </trkpt>
      <trkpt lat="47.13436" lon="-1.53932">
        <ele>-31.21</ele>
        <time>2014-04-18T15:55:34Z</time>
      </trkpt>
      <trkpt lat="47.13424" lon="-1.53913">
        <ele>-30.99</ele>
        <time>2014-04-18T15:55:37Z</time>
      </trkpt>
      <trkpt lat="47.13412" lon="-1.53894">
        <ele>-30.75</ele>
        <time>2014-04-18T15:55:40Z</time>
      </trkpt>
      <trkpt lat="47.13393" lon="-1.53871">
        <ele>-30.41</ele>
        <time>2014-04-18T15:55:44Z</time>
      </trkpt>
      <trkpt lat="47.1338" lon="-1.53851">
        <ele>-30.02</ele>
        <time>2014-04-18T15:55:47Z</time>
      </trkpt>
      <trkpt lat="47.13369" lon="-1.53822">
        <ele>-29.36</ele>
        <time>2014-04-18T15:55:51Z</time>
      </trkpt>
      <trkpt lat="47.13357" lon="-1.53796">
        <ele>-28.5</ele>
        <time>2014-04-18T15:55:55Z</time>
      </trkpt>
      <trkpt lat="47.13343" lon="-1.53772">
        <ele>-27.73</ele>
        <time>2014-04-18T15:55:59Z</time>
      </trkpt>
      <trkpt lat="47.13331" lon="-1.53745">
        <ele>-26.73</ele>
        <time>2014-04-18T15:56:03Z</time>
      </trkpt>
      <trkpt lat="47.13319" lon="-1.53719">
        <ele>-25.62</ele>
        <time>2014-04-18T15:56:07Z</time>
      </trkpt>
      <trkpt lat="47.13306" lon="-1.53693">
        <ele>-24.56</ele>
        <time>2014-04-18T15:56:11Z</time>
      </trkpt>
      <trkpt lat="47.13293" lon="-1.53667">
        <ele>-23.67</ele>
        <time>2014-04-18T15:56:15Z</time>
      </trkpt>
      <trkpt lat="47.13284" lon="-1.53643">
        <ele>-23.27</ele>
        <time>2014-04-18T15:56:18Z</time>
      </trkpt>
      <trkpt lat="47.13272" lon="-1.53613">
        <ele>-22.37</ele>
        <time>2014-04-18T15:56:22Z</time>
      </trkpt>
      <trkpt lat="47.13262" lon="-1.53584">
        <ele>-21.36</ele>
        <time>2014-04-18T15:56:26Z</time>
      </trkpt>
      <trkpt lat="47.13254" lon="-1.53553">
        <ele>-20.76</ele>
        <time>2014-04-18T15:56:30Z</time>
      </trkpt>
      <trkpt lat="47.13246" lon="-1.53529">
        <ele>-20.71</ele>
        <time>2014-04-18T15:56:33Z</time>
      </trkpt>
      <trkpt lat="47.13238" lon="-1.53503">
        <ele>-22.72</ele>
        <time>2014-04-18T15:56:36Z</time>
      </trkpt>
      <trkpt lat="47.1323" lon="-1.53477">
        <ele>-25.5</ele>
        <time>2014-04-18T15:56:39Z</time>
      </trkpt>
      <trkpt lat="47.13223" lon="-1.53452">
        <ele>-27.49</ele>
        <time>2014-04-18T15:56:42Z</time>
      </trkpt>
      <trkpt lat="47.13215" lon="-1.53427">
        <ele>-28.91</ele>
        <time>2014-04-18T15:56:45Z</time>
      </trkpt>
      <trkpt lat="47.13205" lon="-1.53398">
        <ele>-30.85</ele>
        <time>2014-04-18T15:56:49Z</time>
      </trkpt>
      <trkpt lat="47.13198" lon="-1.53374">
        <ele>-31.58</ele>
        <time>2014-04-18T15:56:52Z</time>
      </trkpt>
      <trkpt lat="47.1319" lon="-1.53349">
        <ele>-32.18</ele>
        <time>2014-04-18T15:56:55Z</time>
      </trkpt>
      <trkpt lat="47.13183" lon="-1.53325">
        <ele>-32.8</ele>
        <time>2014-04-18T15:56:58Z</time>
      </trkpt>
      <trkpt lat="47.13176" lon="-1.533">
        <ele>-34.66</ele>
        <time>2014-04-18T15:57:01Z</time>
      </trkpt>
      <trkpt lat="47.13168" lon="-1.53269">
        <ele>-37.13</ele>
        <time>2014-04-18T15:57:05Z</time>
      </trkpt>
      <trkpt lat="47.13162" lon="-1.53244">
        <ele>-37.98</ele>
        <time>2014-04-18T15:57:09Z</time>
      </trkpt>
      <trkpt lat="47.13171" lon="-1.53217">
        <ele>-37.53</ele>
        <time>2014-04-18T15:57:26Z</time>
      </trkpt>
      <trkpt lat="47.1319" lon="-1.53209">
        <ele>-37.08</ele>
        <time>2014-04-18T15:57:29Z</time>
      </trkpt>
      <trkpt lat="47.13208" lon="-1.53201">
        <ele>-37.14</ele>
        <time>2014-04-18T15:57:32Z</time>
      </trkpt>
      <trkpt lat="47.13227" lon="-1.53193">
        <ele>-37.42</ele>
        <time>2014-04-18T15:57:35Z</time>
      </trkpt>
      <trkpt lat="47.13245" lon="-1.53186">
        <ele>-37.58</ele>
        <time>2014-04-18T15:57:38Z</time>
      </trkpt>
      <trkpt lat="47.13263" lon="-1.53178">
        <ele>-37.42</ele>
        <time>2014-04-18T15:57:41Z</time>
      </trkpt>
      <trkpt lat="47.13281" lon="-1.5317">
        <ele>-37.64</ele>
        <time>2014-04-18T15:57:44Z</time>
      </trkpt>
      <trkpt lat="47.133" lon="-1.5316">
        <ele>-37.4</ele>
        <time>2014-04-18T15:57:47Z</time>
      </trkpt>
      <trkpt lat="47.13322" lon="-1.5315">
        <ele>-37.37</ele>
        <time>2014-04-18T15:57:51Z</time>
      </trkpt>
      <trkpt lat="47.1334" lon="-1.53144">
        <ele>-37.25</ele>
        <time>2014-04-18T15:57:54Z</time>
      </trkpt>
      <trkpt lat="47.13362" lon="-1.53138">
        <ele>-37.08</ele>
        <time>2014-04-18T15:57:58Z</time>
      </trkpt>
      <trkpt lat="47.13385" lon="-1.53135">
        <ele>-37.31</ele>
        <time>2014-04-18T15:58:02Z</time>
      </trkpt>
      <trkpt lat="47.13403" lon="-1.53134">
        <ele>-37.02</ele>
        <time>2014-04-18T15:58:05Z</time>
      </trkpt>
      <trkpt lat="47.13426" lon="-1.53134">
        <ele>-36.66</ele>
        <time>2014-04-18T15:58:09Z</time>
      </trkpt>
      <trkpt lat="47.13441" lon="-1.53113">
        <ele>-34.99</ele>
        <time>2014-04-18T15:58:13Z</time>
      </trkpt>
      <trkpt lat="47.13452" lon="-1.53086">
        <ele>-33.51</ele>
        <time>2014-04-18T15:58:17Z</time>
      </trkpt>
      <trkpt lat="47.13465" lon="-1.53057">
        <ele>-34.8</ele>
        <time>2014-04-18T15:58:21Z</time>
      </trkpt>
      <trkpt lat="47.13476" lon="-1.5303">
        <ele>-35.61</ele>
        <time>2014-04-18T15:58:25Z</time>
      </trkpt>
      <trkpt lat="47.13489" lon="-1.53004">
        <ele>-36.52</ele>
        <time>2014-04-18T15:58:29Z</time>
      </trkpt>
      <trkpt lat="47.13501" lon="-1.52979">
        <ele>-37.41</ele>
        <time>2014-04-18T15:58:33Z</time>
      </trkpt>
      <trkpt lat="47.13513" lon="-1.52951">
        <ele>-37.38</ele>
        <time>2014-04-18T15:58:37Z</time>
      </trkpt>
      <trkpt lat="47.13525" lon="-1.52924">
        <ele>-36.86</ele>
        <time>2014-04-18T15:58:41Z</time>
      </trkpt>
      <trkpt lat="47.13537" lon="-1.52897">
        <ele>-36.14</ele>
        <time>2014-04-18T15:58:45Z</time>
      </trkpt>
      <trkpt lat="47.1355" lon="-1.5287">
        <ele>-35.69</ele>
        <time>2014-04-18T15:58:49Z</time>
      </trkpt>
      <trkpt lat="47.13562" lon="-1.52844">
        <ele>-35.54</ele>
        <time>2014-04-18T15:58:53Z</time>
      </trkpt>
      <trkpt lat="47.13574" lon="-1.52817">
        <ele>-35.2</ele>
        <time>2014-04-18T15:58:57Z</time>
      </trkpt>
      <trkpt lat="47.13586" lon="-1.5279">
        <ele>-34.84</ele>
        <time>2014-04-18T15:59:01Z</time>
      </trkpt>
      <trkpt lat="47.13599" lon="-1.52763">
        <ele>-35.05</ele>
        <time>2014-04-18T15:59:05Z</time>
      </trkpt>
      <trkpt lat="47.13614" lon="-1.52738">
        <ele>-35.33</ele>
        <time>2014-04-18T15:59:09Z</time>
      </trkpt>
      <trkpt lat="47.13628" lon="-1.52713">
        <ele>-34.58</ele>
        <time>2014-04-18T15:59:13Z</time>
      </trkpt>
      <trkpt lat="47.13642" lon="-1.52691">
        <ele>-33.69</ele>
        <time>2014-04-18T15:59:17Z</time>
      </trkpt>
      <trkpt lat="47.13655" lon="-1.52668">
        <ele>-33.48</ele>
        <time>2014-04-18T15:59:21Z</time>
      </trkpt>
      <trkpt lat="47.1367" lon="-1.52643">
        <ele>-33.52</ele>
        <time>2014-04-18T15:59:25Z</time>
      </trkpt>
      <trkpt lat="47.13686" lon="-1.52619">
        <ele>-33.64</ele>
        <time>2014-04-18T15:59:29Z</time>
      </trkpt>
      <trkpt lat="47.137" lon="-1.52596">
        <ele>-33.16</ele>
        <time>2014-04-18T15:59:33Z</time>
      </trkpt>
      <trkpt lat="47.13714" lon="-1.52571">
        <ele>-32.23</ele>
        <time>2014-04-18T15:59:37Z</time>
      </trkpt>
      <trkpt lat="47.1373" lon="-1.52548">
        <ele>-30.7</ele>
        <time>2014-04-18T15:59:41Z</time>
      </trkpt>
      <trkpt lat="47.13745" lon="-1.52528">
        <ele>-29.33</ele>
        <time>2014-04-18T15:59:45Z</time>
      </trkpt>
      <trkpt lat="47.1376" lon="-1.52506">
        <ele>-29.69</ele>
        <time>2014-04-18T15:59:49Z</time>
      </trkpt>
      <trkpt lat="47.13772" lon="-1.52486">
        <ele>-29.64</ele>
        <time>2014-04-18T15:59:52Z</time>
      </trkpt>
      <trkpt lat="47.13787" lon="-1.52462">
        <ele>-30.48</ele>
        <time>2014-04-18T15:59:56Z</time>
      </trkpt>
      <trkpt lat="47.13804" lon="-1.52439">
        <ele>-30.65</ele>
        <time>2014-04-18T16:00:00Z</time>
      </trkpt>
      <trkpt lat="47.1382" lon="-1.52413">
        <ele>-32.06</ele>
        <time>2014-04-18T16:00:04Z</time>
      </trkpt>
      <trkpt lat="47.13836" lon="-1.52387">
        <ele>-32.59</ele>
        <time>2014-04-18T16:00:08Z</time>
      </trkpt>
      <trkpt lat="47.13851" lon="-1.52362">
        <ele>-32.88</ele>
        <time>2014-04-18T16:00:12Z</time>
      </trkpt>
      <trkpt lat="47.13863" lon="-1.52334">
        <ele>-33.07</ele>
        <time>2014-04-18T16:00:16Z</time>
      </trkpt>
      <trkpt lat="47.13874" lon="-1.52313">
        <ele>-33.05</ele>
        <time>2014-04-18T16:00:19Z</time>
      </trkpt>
      <trkpt lat="47.13891" lon="-1.52302">
        <ele>-33.11</ele>
        <time>2014-04-18T16:00:22Z</time>
      </trkpt>
      <trkpt lat="47.13907" lon="-1.52286">
        <ele>-33.65</ele>
        <time>2014-04-18T16:00:25Z</time>
      </trkpt>
      <trkpt lat="47.13924" lon="-1.52262">
        <ele>-33.6</ele>
        <time>2014-04-18T16:00:29Z</time>
      </trkpt>
      <trkpt lat="47.1394" lon="-1.52238">
        <ele>-33.14</ele>
        <time>2014-04-18T16:00:33Z</time>
      </trkpt>
      <trkpt lat="47.13954" lon="-1.52214">
        <ele>-33.41</ele>
        <time>2014-04-18T16:00:37Z</time>
      </trkpt>
      <trkpt lat="47.13971" lon="-1.52192">
        <ele>-33.1</ele>
        <time>2014-04-18T16:00:41Z</time>
      </trkpt>
      <trkpt lat="47.13987" lon="-1.52171">
        <ele>-32.69</ele>
        <time>2014-04-18T16:00:45Z</time>
      </trkpt>
      <trkpt lat="47.14003" lon="-1.52152">
        <ele>-32.43</ele>
        <time>2014-04-18T16:00:49Z</time>
      </trkpt>
      <trkpt lat="47.1402" lon="-1.52137">
        <ele>-32.87</ele>
        <time>2014-04-18T16:00:53Z</time>
      </trkpt>
      <trkpt lat="47.14033" lon="-1.52116">
        <ele>-33.29</ele>
        <time>2014-04-18T16:00:57Z</time>
      </trkpt>
      <trkpt lat="47.1405" lon="-1.52097">
        <ele>-32.99</ele>
        <time>2014-04-18T16:01:02Z</time>
      </trkpt>
      <trkpt lat="47.1407" lon="-1.5208">
        <ele>-32.65</ele>
        <time>2014-04-18T16:01:06Z</time>
      </trkpt>
      <trkpt lat="47.14085" lon="-1.52059">
        <ele>-32.86</ele>
        <time>2014-04-18T16:01:10Z</time>
      </trkpt>
      <trkpt lat="47.14103" lon="-1.5204">
        <ele>-32.48</ele>
        <time>2014-04-18T16:01:14Z</time>
      </trkpt>
      <trkpt lat="47.1412" lon="-1.52024">
        <ele>-33.48</ele>
        <time>2014-04-18T16:01:18Z</time>
      </trkpt>
      <trkpt lat="47.14139" lon="-1.52007">
        <ele>-33.83</ele>
        <time>2014-04-18T16:01:22Z</time>
      </trkpt>
      <trkpt lat="47.14158" lon="-1.51989">
        <ele>-33.92</ele>
        <time>2014-04-18T16:01:26Z</time>
      </trkpt>
      <trkpt lat="47.14177" lon="-1.51971">
        <ele>-34.41</ele>
        <time>2014-04-18T16:01:30Z</time>
      </trkpt>
      <trkpt lat="47.14198" lon="-1.51953">
        <ele>-34.9</ele>
        <time>2014-04-18T16:01:34Z</time>
      </trkpt>
      <trkpt lat="47.14216" lon="-1.51934">
        <ele>-34.01</ele>
        <time>2014-04-18T16:01:38Z</time>
      </trkpt>
      <trkpt lat="47.14233" lon="-1.51917">
        <ele>-33.81</ele>
        <time>2014-04-18T16:01:42Z</time>
      </trkpt>
      <trkpt lat="47.14252" lon="-1.51897">
        <ele>-34.46</ele>
        <time>2014-04-18T16:01:46Z</time>
      </trkpt>
      <trkpt lat="47.14271" lon="-1.51877">
        <ele>-35.5</ele>
        <time>2014-04-18T16:01:50Z</time>
      </trkpt>
      <trkpt lat="47.14287" lon="-1.51862">
        <ele>-35.17</ele>
        <time>2014-04-18T16:01:53Z</time>
      </trkpt>
      <trkpt lat="47.14313" lon="-1.51837">
        <ele>-34.76</ele>
        <time>2014-04-18T16:01:58Z</time>
      </trkpt>
      <trkpt lat="47.14327" lon="-1.51821">
        <ele>-34.42</ele>
        <time>2014-04-18T16:02:01Z</time>
      </trkpt>
      <trkpt lat="47.14342" lon="-1.51805">
        <ele>-34.81</ele>
        <time>2014-04-18T16:02:04Z</time>
      </trkpt>
      <trkpt lat="47.14358" lon="-1.5179">
        <ele>-35.46</ele>
        <time>2014-04-18T16:02:07Z</time>
      </trkpt>
      <trkpt lat="47.14372" lon="-1.51774">
        <ele>-36.31</ele>
        <time>2014-04-18T16:02:10Z</time>
      </trkpt>
      <trkpt lat="47.14392" lon="-1.51754">
        <ele>-36.43</ele>
        <time>2014-04-18T16:02:14Z</time>
      </trkpt>
      <trkpt lat="47.14407" lon="-1.51739">
        <ele>-36.3</ele>
        <time>2014-04-18T16:02:17Z</time>
      </trkpt>
      <trkpt lat="47.14422" lon="-1.51724">
        <ele>-36.13</ele>
        <time>2014-04-18T16:02:20Z</time>
      </trkpt>
      <trkpt lat="47.14438" lon="-1.51708">
        <ele>-36.34</ele>
        <time>2014-04-18T16:02:23Z</time>
      </trkpt>
      <trkpt lat="47.14452" lon="-1.51692">
        <ele>-36.23</ele>
        <time>2014-04-18T16:02:26Z</time>
      </trkpt>
      <trkpt lat="47.1448" lon="-1.51663">
        <ele>-35.67</ele>
        <time>2014-04-18T16:02:32Z</time>
      </trkpt>
      <trkpt lat="47.14499" lon="-1.51642">
        <ele>-36.87</ele>
        <time>2014-04-18T16:02:36Z</time>
      </trkpt>
      <trkpt lat="47.14514" lon="-1.51626">
        <ele>-37.37</ele>
        <time>2014-04-18T16:02:39Z</time>
      </trkpt>
      <trkpt lat="47.14528" lon="-1.51608">
        <ele>-38.3</ele>
        <time>2014-04-18T16:02:42Z</time>
      </trkpt>
      <trkpt lat="47.14542" lon="-1.51591">
        <ele>-39.04</ele>
        <time>2014-04-18T16:02:45Z</time>
      </trkpt>
      <trkpt lat="47.14557" lon="-1.51573">
        <ele>-39.89</ele>
        <time>2014-04-18T16:02:48Z</time>
      </trkpt>
      <trkpt lat="47.14571" lon="-1.51554">
        <ele>-40.16</ele>
        <time>2014-04-18T16:02:51Z</time>
      </trkpt>
      <trkpt lat="47.14586" lon="-1.51527">
        <ele>-40.09</ele>
        <time>2014-04-18T16:02:55Z</time>
      </trkpt>
      <trkpt lat="47.14598" lon="-1.51506">
        <ele>-39.79</ele>
        <time>2014-04-18T16:02:58Z</time>
      </trkpt>
      <trkpt lat="47.1461" lon="-1.51481">
        <ele>-39.06</ele>
        <time>2014-04-18T16:03:02Z</time>
      </trkpt>
      <trkpt lat="47.14625" lon="-1.51454">
        <ele>-37.98</ele>
        <time>2014-04-18T16:03:06Z</time>
      </trkpt>
      <trkpt lat="47.14638" lon="-1.51427">
        <ele>-38</ele>
        <time>2014-04-18T16:03:10Z</time>
      </trkpt>
      <trkpt lat="47.14652" lon="-1.51399">
        <ele>-38.38</ele>
        <time>2014-04-18T16:03:14Z</time>
      </trkpt>
      <trkpt lat="47.14662" lon="-1.51374">
        <ele>-38.86</ele>
        <time>2014-04-18T16:03:17Z</time>
      </trkpt>
      <trkpt lat="47.14678" lon="-1.51343">
        <ele>-38.96</ele>
        <time>2014-04-18T16:03:21Z</time>
      </trkpt>
      <trkpt lat="47.14689" lon="-1.51319">
        <ele>-39.57</ele>
        <time>2014-04-18T16:03:24Z</time>
      </trkpt>
      <trkpt lat="47.14675" lon="-1.51301">
        <ele>-38.57</ele>
        <time>2014-04-18T16:03:28Z</time>
      </trkpt>
      <trkpt lat="47.14653" lon="-1.51303">
        <ele>-36.99</ele>
        <time>2014-04-18T16:03:31Z</time>
      </trkpt>
      <trkpt lat="47.14632" lon="-1.51307">
        <ele>-35.93</ele>
        <time>2014-04-18T16:03:34Z</time>
      </trkpt>
      <trkpt lat="47.14611" lon="-1.5131">
        <ele>-34.94</ele>
        <time>2014-04-18T16:03:37Z</time>
      </trkpt>
      <trkpt lat="47.1459" lon="-1.51313">
        <ele>-33.88</ele>
        <time>2014-04-18T16:03:40Z</time>
      </trkpt>
      <trkpt lat="47.14569" lon="-1.51314">
        <ele>-34.06</ele>
        <time>2014-04-18T16:03:43Z</time>
      </trkpt>
      <trkpt lat="47.14549" lon="-1.51314">
        <ele>-34.69</ele>
        <time>2014-04-18T16:03:46Z</time>
      </trkpt>
      <trkpt lat="47.14528" lon="-1.51313">
        <ele>-34.95</ele>
        <time>2014-04-18T16:03:49Z</time>
      </trkpt>
      <trkpt lat="47.14508" lon="-1.5131">
        <ele>-34.38</ele>
        <time>2014-04-18T16:03:52Z</time>
      </trkpt>
      <trkpt lat="47.14488" lon="-1.51307">
        <ele>-31.93</ele>
        <time>2014-04-18T16:03:55Z</time>
      </trkpt>
      <trkpt lat="47.14468" lon="-1.51302">
        <ele>-29.73</ele>
        <time>2014-04-18T16:03:58Z</time>
      </trkpt>
      <trkpt lat="47.14449" lon="-1.51294">
        <ele>-27.78</ele>
        <time>2014-04-18T16:04:01Z</time>
      </trkpt>
      <trkpt lat="47.14432" lon="-1.51281">
        <ele>-28.01</ele>
        <time>2014-04-18T16:04:04Z</time>
      </trkpt>
      <trkpt lat="47.14417" lon="-1.5126">
        <ele>-27.88</ele>
        <time>2014-04-18T16:04:07Z</time>
      </trkpt>
      <trkpt lat="47.14406" lon="-1.51235">
        <ele>-27.36</ele>
        <time>2014-04-18T16:04:10Z</time>
      </trkpt>
      <trkpt lat="47.14397" lon="-1.51208">
        <ele>-26.15</ele>
        <time>2014-04-18T16:04:13Z</time>
      </trkpt>
      <trkpt lat="47.14387" lon="-1.51184">
        <ele>-25.21</ele>
        <time>2014-04-18T16:04:16Z</time>
      </trkpt>
      <trkpt lat="47.14377" lon="-1.51159">
        <ele>-24.23</ele>
        <time>2014-04-18T16:04:19Z</time>
      </trkpt>
      <trkpt lat="47.14366" lon="-1.51135">
        <ele>-23.13</ele>
        <time>2014-04-18T16:04:22Z</time>
      </trkpt>
      <trkpt lat="47.14355" lon="-1.51109">
        <ele>-22.18</ele>
        <time>2014-04-18T16:04:25Z</time>
      </trkpt>
      <trkpt lat="47.14343" lon="-1.51084">
        <ele>-21.36</ele>
        <time>2014-04-18T16:04:28Z</time>
      </trkpt>
      <trkpt lat="47.14335" lon="-1.51057">
        <ele>-20.45</ele>
        <time>2014-04-18T16:04:31Z</time>
      </trkpt>
      <trkpt lat="47.14326" lon="-1.5103">
        <ele>-19.65</ele>
        <time>2014-04-18T16:04:34Z</time>
      </trkpt>
      <trkpt lat="47.14317" lon="-1.51004">
        <ele>-19.02</ele>
        <time>2014-04-18T16:04:37Z</time>
      </trkpt>
      <trkpt lat="47.14308" lon="-1.50978">
        <ele>-18.57</ele>
        <time>2014-04-18T16:04:40Z</time>
      </trkpt>
      <trkpt lat="47.14302" lon="-1.50952">
        <ele>-18.1</ele>
        <time>2014-04-18T16:04:43Z</time>
      </trkpt>
      <trkpt lat="47.14295" lon="-1.50925">
        <ele>-18.11</ele>
        <time>2014-04-18T16:04:46Z</time>
      </trkpt>
      <trkpt lat="47.14286" lon="-1.50901">
        <ele>-20.23</ele>
        <time>2014-04-18T16:04:49Z</time>
      </trkpt>
      <trkpt lat="47.14279" lon="-1.50875">
        <ele>-21.31</ele>
        <time>2014-04-18T16:04:52Z</time>
      </trkpt>
      <trkpt lat="47.14272" lon="-1.5085">
        <ele>-21.92</ele>
        <time>2014-04-18T16:04:55Z</time>
      </trkpt>
      <trkpt lat="47.14266" lon="-1.50825">
        <ele>-22.58</ele>
        <time>2014-04-18T16:04:58Z</time>
      </trkpt>
      <trkpt lat="47.14259" lon="-1.50792">
        <ele>-23.27</ele>
        <time>2014-04-18T16:05:02Z</time>
      </trkpt>
      <trkpt lat="47.14252" lon="-1.50767">
        <ele>-23.94</ele>
        <time>2014-04-18T16:05:05Z</time>
      </trkpt>
      <trkpt lat="47.14246" lon="-1.50741">
        <ele>-24.68</ele>
        <time>2014-04-18T16:05:08Z</time>
      </trkpt>
      <trkpt lat="47.1424" lon="-1.50715">
        <ele>-26.91</ele>
        <time>2014-04-18T16:05:11Z</time>
      </trkpt>
      <trkpt lat="47.14232" lon="-1.50682">
        <ele>-29.25</ele>
        <time>2014-04-18T16:05:15Z</time>
      </trkpt>
      <trkpt lat="47.14227" lon="-1.50657">
        <ele>-30.57</ele>
        <time>2014-04-18T16:05:18Z</time>
      </trkpt>
      <trkpt lat="47.14221" lon="-1.50623">
        <ele>-32.12</ele>
        <time>2014-04-18T16:05:22Z</time>
      </trkpt>
      <trkpt lat="47.14216" lon="-1.50597">
        <ele>-33.39</ele>
        <time>2014-04-18T16:05:25Z</time>
      </trkpt>
      <trkpt lat="47.14212" lon="-1.50571">
        <ele>-34.54</ele>
        <time>2014-04-18T16:05:28Z</time>
      </trkpt>
      <trkpt lat="47.14205" lon="-1.50537">
        <ele>-36.1</ele>
        <time>2014-04-18T16:05:32Z</time>
      </trkpt>
      <trkpt lat="47.142" lon="-1.50504">
        <ele>-36.21</ele>
        <time>2014-04-18T16:05:36Z</time>
      </trkpt>
      <trkpt lat="47.14193" lon="-1.50471">
        <ele>-35.86</ele>
        <time>2014-04-18T16:05:40Z</time>
      </trkpt>
      <trkpt lat="47.14186" lon="-1.5044">
        <ele>-35.32</ele>
        <time>2014-04-18T16:05:44Z</time>
      </trkpt>
      <trkpt lat="47.14181" lon="-1.50414">
        <ele>-35.32</ele>
        <time>2014-04-18T16:05:47Z</time>
      </trkpt>
      <trkpt lat="47.14175" lon="-1.50381">
        <ele>-34.75</ele>
        <time>2014-04-18T16:05:51Z</time>
      </trkpt>
      <trkpt lat="47.1417" lon="-1.50349">
        <ele>-33.49</ele>
        <time>2014-04-18T16:05:55Z</time>
      </trkpt>
      <trkpt lat="47.14166" lon="-1.50315">
        <ele>-33.72</ele>
        <time>2014-04-18T16:05:59Z</time>
      </trkpt>
      <trkpt lat="47.14165" lon="-1.50288">
        <ele>-33.69</ele>
        <time>2014-04-18T16:06:02Z</time>
      </trkpt>
      <trkpt lat="47.14161" lon="-1.50254">
        <ele>-32.79</ele>
        <time>2014-04-18T16:06:06Z</time>
      </trkpt>
      <trkpt lat="47.1416" lon="-1.50227">
        <ele>-33.6</ele>
        <time>2014-04-18T16:06:09Z</time>
      </trkpt>
      <trkpt lat="47.14159" lon="-1.502">
        <ele>-34.68</ele>
        <time>2014-04-18T16:06:12Z</time>
      </trkpt>
      <trkpt lat="47.14156" lon="-1.50166">
        <ele>-36.58</ele>
        <time>2014-04-18T16:06:16Z</time>
      </trkpt>
      <trkpt lat="47.14151" lon="-1.5014">
        <ele>-37.74</ele>
        <time>2014-04-18T16:06:19Z</time>
      </trkpt>
      <trkpt lat="47.14146" lon="-1.50113">
        <ele>-38.72</ele>
        <time>2014-04-18T16:06:22Z</time>
      </trkpt>
      <trkpt lat="47.14142" lon="-1.50087">
        <ele>-40.23</ele>
        <time>2014-04-18T16:06:25Z</time>
      </trkpt>
      <trkpt lat="47.14136" lon="-1.50054">
        <ele>-40.41</ele>
        <time>2014-04-18T16:06:29Z</time>
      </trkpt>
      <trkpt lat="47.14131" lon="-1.5002">
        <ele>-40.24</ele>
        <time>2014-04-18T16:06:33Z</time>
      </trkpt>
      <trkpt lat="47.14125" lon="-1.49989">
        <ele>-39.27</ele>
        <time>2014-04-18T16:06:37Z</time>
      </trkpt>
      <trkpt lat="47.14122" lon="-1.49959">
        <ele>-38.1</ele>
        <time>2014-04-18T16:06:41Z</time>
      </trkpt>
      <trkpt lat="47.14118" lon="-1.49927">
        <ele>-36.93</ele>
        <time>2014-04-18T16:06:45Z</time>
      </trkpt>
      <trkpt lat="47.14113" lon="-1.49894">
        <ele>-36.06</ele>
        <time>2014-04-18T16:06:49Z</time>
      </trkpt>
      <trkpt lat="47.14109" lon="-1.49868">
        <ele>-35.42</ele>
        <time>2014-04-18T16:06:52Z</time>
      </trkpt>
      <trkpt lat="47.14105" lon="-1.49834">
        <ele>-35.97</ele>
        <time>2014-04-18T16:06:56Z</time>
      </trkpt>
      <trkpt lat="47.14102" lon="-1.498">
        <ele>-36.66</ele>
        <time>2014-04-18T16:07:00Z</time>
      </trkpt>
      <trkpt lat="47.14099" lon="-1.49768">
        <ele>-36.13</ele>
        <time>2014-04-18T16:07:04Z</time>
      </trkpt>
      <trkpt lat="47.14098" lon="-1.49733">
        <ele>-35.56</ele>
        <time>2014-04-18T16:07:08Z</time>
      </trkpt>
      <trkpt lat="47.14098" lon="-1.49701">
        <ele>-35.59</ele>
        <time>2014-04-18T16:07:12Z</time>
      </trkpt>
      <trkpt lat="47.14099" lon="-1.49669">
        <ele>-35.2</ele>
        <time>2014-04-18T16:07:16Z</time>
      </trkpt>
      <trkpt lat="47.14099" lon="-1.49638">
        <ele>-33.79</ele>
        <time>2014-04-18T16:07:20Z</time>
      </trkpt>
      <trkpt lat="47.14099" lon="-1.49607">
        <ele>-31.76</ele>
        <time>2014-04-18T16:07:24Z</time>
      </trkpt>
      <trkpt lat="47.14098" lon="-1.49575">
        <ele>-29.9</ele>
        <time>2014-04-18T16:07:28Z</time>
      </trkpt>
      <trkpt lat="47.14098" lon="-1.49545">
        <ele>-29.65</ele>
        <time>2014-04-18T16:07:32Z</time>
      </trkpt>
      <trkpt lat="47.14098" lon="-1.49514">
        <ele>-30.58</ele>
        <time>2014-04-18T16:07:36Z</time>
      </trkpt>
      <trkpt lat="47.14098" lon="-1.49481">
        <ele>-31.76</ele>
        <time>2014-04-18T16:07:40Z</time>
      </trkpt>
      <trkpt lat="47.14098" lon="-1.49451">
        <ele>-31.82</ele>
        <time>2014-04-18T16:07:44Z</time>
      </trkpt>
      <trkpt lat="47.14097" lon="-1.49419">
        <ele>-31.87</ele>
        <time>2014-04-18T16:07:48Z</time>
      </trkpt>
      <trkpt lat="47.14097" lon="-1.49387">
        <ele>-32.44</ele>
        <time>2014-04-18T16:07:52Z</time>
      </trkpt>
      <trkpt lat="47.14098" lon="-1.49357">
        <ele>-33.04</ele>
        <time>2014-04-18T16:07:56Z</time>
      </trkpt>
      <trkpt lat="47.14098" lon="-1.49326">
        <ele>-32.95</ele>
        <time>2014-04-18T16:08:00Z</time>
      </trkpt>
      <trkpt lat="47.14098" lon="-1.49294">
        <ele>-33.12</ele>
        <time>2014-04-18T16:08:04Z</time>
      </trkpt>
      <trkpt lat="47.14098" lon="-1.49264">
        <ele>-32.77</ele>
        <time>2014-04-18T16:08:08Z</time>
      </trkpt>
      <trkpt lat="47.14099" lon="-1.49231">
        <ele>-32.86</ele>
        <time>2014-04-18T16:08:12Z</time>
      </trkpt>
      <trkpt lat="47.14099" lon="-1.492">
        <ele>-32.39</ele>
        <time>2014-04-18T16:08:16Z</time>
      </trkpt>
      <trkpt lat="47.14099" lon="-1.49167">
        <ele>-33.09</ele>
        <time>2014-04-18T16:08:20Z</time>
      </trkpt>
      <trkpt lat="47.14099" lon="-1.49133">
        <ele>-32.98</ele>
        <time>2014-04-18T16:08:24Z</time>
      </trkpt>
      <trkpt lat="47.14102" lon="-1.49099">
        <ele>-32.39</ele>
        <time>2014-04-18T16:08:28Z</time>
      </trkpt>
      <trkpt lat="47.14103" lon="-1.49064">
        <ele>-32</ele>
        <time>2014-04-18T16:08:32Z</time>
      </trkpt>
      <trkpt lat="47.14102" lon="-1.49037">
        <ele>-31.99</ele>
        <time>2014-04-18T16:08:35Z</time>
      </trkpt>
      <trkpt lat="47.14098" lon="-1.49011">
        <ele>-31.7</ele>
        <time>2014-04-18T16:08:38Z</time>
      </trkpt>
      <trkpt lat="47.14092" lon="-1.48985">
        <ele>-31.5</ele>
        <time>2014-04-18T16:08:41Z</time>
      </trkpt>
      <trkpt lat="47.14087" lon="-1.48958">
        <ele>-31.45</ele>
        <time>2014-04-18T16:08:44Z</time>
      </trkpt>
      <trkpt lat="47.1408" lon="-1.48932">
        <ele>-32.36</ele>
        <time>2014-04-18T16:08:47Z</time>
      </trkpt>
      <trkpt lat="47.14074" lon="-1.48906">
        <ele>-32.36</ele>
        <time>2014-04-18T16:08:50Z</time>
      </trkpt>
      <trkpt lat="47.14067" lon="-1.48873">
        <ele>-31.2</ele>
        <time>2014-04-18T16:08:54Z</time>
      </trkpt>
      <trkpt lat="47.14061" lon="-1.48843">
        <ele>-29.78</ele>
        <time>2014-04-18T16:08:58Z</time>
      </trkpt>
      <trkpt lat="47.14055" lon="-1.48813">
        <ele>-28.04</ele>
        <time>2014-04-18T16:09:02Z</time>
      </trkpt>
      <trkpt lat="47.14048" lon="-1.48781">
        <ele>-27.01</ele>
        <time>2014-04-18T16:09:06Z</time>
      </trkpt>
      <trkpt lat="47.14041" lon="-1.4875">
        <ele>-24.82</ele>
        <time>2014-04-18T16:09:10Z</time>
      </trkpt>
      <trkpt lat="47.14036" lon="-1.4872">
        <ele>-23.28</ele>
        <time>2014-04-18T16:09:14Z</time>
      </trkpt>
      <trkpt lat="47.14032" lon="-1.48687">
        <ele>-21.76</ele>
        <time>2014-04-18T16:09:18Z</time>
      </trkpt>
      <trkpt lat="47.14027" lon="-1.48657">
        <ele>-20.05</ele>
        <time>2014-04-18T16:09:22Z</time>
      </trkpt>
      <trkpt lat="47.14022" lon="-1.48627">
        <ele>-18.31</ele>
        <time>2014-04-18T16:09:26Z</time>
      </trkpt>
      <trkpt lat="47.14018" lon="-1.48601">
        <ele>-16.45</ele>
        <time>2014-04-18T16:09:29Z</time>
      </trkpt>
      <trkpt lat="47.14014" lon="-1.48574">
        <ele>-15.1</ele>
        <time>2014-04-18T16:09:32Z</time>
      </trkpt>
      <trkpt lat="47.1401" lon="-1.4854">
        <ele>-14.56</ele>
        <time>2014-04-18T16:09:36Z</time>
      </trkpt>
      <trkpt lat="47.14005" lon="-1.48514">
        <ele>-14.71</ele>
        <time>2014-04-18T16:09:39Z</time>
      </trkpt>
      <trkpt lat="47.13998" lon="-1.4848">
        <ele>-17.08</ele>
        <time>2014-04-18T16:09:43Z</time>
      </trkpt>
      <trkpt lat="47.13993" lon="-1.48447">
        <ele>-18.62</ele>
        <time>2014-04-18T16:09:47Z</time>
      </trkpt>
      <trkpt lat="47.13991" lon="-1.4842">
        <ele>-19.3</ele>
        <time>2014-04-18T16:09:50Z</time>
      </trkpt>
      <trkpt lat="47.1399" lon="-1.48392">
        <ele>-20.53</ele>
        <time>2014-04-18T16:09:53Z</time>
      </trkpt>
      <trkpt lat="47.13989" lon="-1.48363">
        <ele>-21.31</ele>
        <time>2014-04-18T16:09:56Z</time>
      </trkpt>
      <trkpt lat="47.13989" lon="-1.48335">
        <ele>-21.59</ele>
        <time>2014-04-18T16:09:59Z</time>
      </trkpt>
      <trkpt lat="47.13989" lon="-1.48308">
        <ele>-22.28</ele>
        <time>2014-04-18T16:10:02Z</time>
      </trkpt>
      <trkpt lat="47.13989" lon="-1.48273">
        <ele>-22.37</ele>
        <time>2014-04-18T16:10:06Z</time>
      </trkpt>
      <trkpt lat="47.13988" lon="-1.48246">
        <ele>-22.57</ele>
        <time>2014-04-18T16:10:09Z</time>
      </trkpt>
      <trkpt lat="47.13987" lon="-1.48211">
        <ele>-22.79</ele>
        <time>2014-04-18T16:10:13Z</time>
      </trkpt>
      <trkpt lat="47.13985" lon="-1.48177">
        <ele>-22.69</ele>
        <time>2014-04-18T16:10:17Z</time>
      </trkpt>
      <trkpt lat="47.13983" lon="-1.48144">
        <ele>-22.44</ele>
        <time>2014-04-18T16:10:21Z</time>
      </trkpt>
      <trkpt lat="47.13982" lon="-1.48109">
        <ele>-22.49</ele>
        <time>2014-04-18T16:10:25Z</time>
      </trkpt>
      <trkpt lat="47.13979" lon="-1.48075">
        <ele>-22.74</ele>
        <time>2014-04-18T16:10:29Z</time>
      </trkpt>
      <trkpt lat="47.13978" lon="-1.4804">
        <ele>-23.61</ele>
        <time>2014-04-18T16:10:33Z</time>
      </trkpt>
      <trkpt lat="47.13977" lon="-1.48005">
        <ele>-24.03</ele>
        <time>2014-04-18T16:10:37Z</time>
      </trkpt>
      <trkpt lat="47.13976" lon="-1.47971">
        <ele>-24.77</ele>
        <time>2014-04-18T16:10:41Z</time>
      </trkpt>
      <trkpt lat="47.13973" lon="-1.47945">
        <ele>-24.81</ele>
        <time>2014-04-18T16:10:44Z</time>
      </trkpt>
      <trkpt lat="47.13967" lon="-1.47912">
        <ele>-25.38</ele>
        <time>2014-04-18T16:10:48Z</time>
      </trkpt>
      <trkpt lat="47.13961" lon="-1.4788">
        <ele>-26.03</ele>
        <time>2014-04-18T16:10:52Z</time>
      </trkpt>
      <trkpt lat="47.13953" lon="-1.4785">
        <ele>-26.03</ele>
        <time>2014-04-18T16:10:56Z</time>
      </trkpt>
      <trkpt lat="47.13945" lon="-1.4782">
        <ele>-26.03</ele>
        <time>2014-04-18T16:11:00Z</time>
      </trkpt>
      <trkpt lat="47.13939" lon="-1.47796">
        <ele>-26.22</ele>
        <time>2014-04-18T16:11:03Z</time>
      </trkpt>
      <trkpt lat="47.13933" lon="-1.47771">
        <ele>-26.87</ele>
        <time>2014-04-18T16:11:06Z</time>
      </trkpt>
      <trkpt lat="47.13925" lon="-1.4774">
        <ele>-27.33</ele>
        <time>2014-04-18T16:11:10Z</time>
      </trkpt>
      <trkpt lat="47.13917" lon="-1.47711">
        <ele>-27.56</ele>
        <time>2014-04-18T16:11:14Z</time>
      </trkpt>
      <trkpt lat="47.13908" lon="-1.47678">
        <ele>-27.44</ele>
        <time>2014-04-18T16:11:18Z</time>
      </trkpt>
      <trkpt lat="47.13901" lon="-1.47653">
        <ele>-27.05</ele>
        <time>2014-04-18T16:11:21Z</time>
      </trkpt>
      <trkpt lat="47.13892" lon="-1.47621">
        <ele>-26.5</ele>
        <time>2014-04-18T16:11:25Z</time>
      </trkpt>
      <trkpt lat="47.13884" lon="-1.47589">
        <ele>-25.95</ele>
        <time>2014-04-18T16:11:29Z</time>
      </trkpt>
      <trkpt lat="47.13877" lon="-1.47564">
        <ele>-25.37</ele>
        <time>2014-04-18T16:11:32Z</time>
      </trkpt>
      <trkpt lat="47.13871" lon="-1.47539">
        <ele>-24.44</ele>
        <time>2014-04-18T16:11:35Z</time>
      </trkpt>
      <trkpt lat="47.13864" lon="-1.47507">
        <ele>-23.14</ele>
        <time>2014-04-18T16:11:39Z</time>
      </trkpt>
      <trkpt lat="47.13856" lon="-1.47482">
        <ele>-21.58</ele>
        <time>2014-04-18T16:11:42Z</time>
      </trkpt>
      <trkpt lat="47.13849" lon="-1.47457">
        <ele>-20.4</ele>
        <time>2014-04-18T16:11:45Z</time>
      </trkpt>
      <trkpt lat="47.13841" lon="-1.47426">
        <ele>-19.11</ele>
        <time>2014-04-18T16:11:49Z</time>
      </trkpt>
      <trkpt lat="47.13834" lon="-1.47401">
        <ele>-19.14</ele>
        <time>2014-04-18T16:11:52Z</time>
      </trkpt>
      <trkpt lat="47.13826" lon="-1.47376">
        <ele>-18.49</ele>
        <time>2014-04-18T16:11:55Z</time>
      </trkpt>
      <trkpt lat="47.13818" lon="-1.47343">
        <ele>-17.54</ele>
        <time>2014-04-18T16:11:59Z</time>
      </trkpt>
      <trkpt lat="47.13809" lon="-1.47311">
        <ele>-16.43</ele>
        <time>2014-04-18T16:12:03Z</time>
      </trkpt>
      <trkpt lat="47.138" lon="-1.47278">
        <ele>-15.64</ele>
        <time>2014-04-18T16:12:07Z</time>
      </trkpt>
      <trkpt lat="47.13794" lon="-1.47253">
        <ele>-14.98</ele>
        <time>2014-04-18T16:12:10Z</time>
      </trkpt>
      <trkpt lat="47.13789" lon="-1.47227">
        <ele>-13.94</ele>
        <time>2014-04-18T16:12:13Z</time>
      </trkpt>
      <trkpt lat="47.13786" lon="-1.47191">
        <ele>-15.1</ele>
        <time>2014-04-18T16:12:17Z</time>
      </trkpt>
      <trkpt lat="47.13785" lon="-1.47163">
        <ele>-21.36</ele>
        <time>2014-04-18T16:12:20Z</time>
      </trkpt>
      <trkpt lat="47.13784" lon="-1.47135">
        <ele>-24.94</ele>
        <time>2014-04-18T16:12:23Z</time>
      </trkpt>
      <trkpt lat="47.13785" lon="-1.47108">
        <ele>-26.78</ele>
        <time>2014-04-18T16:12:26Z</time>
      </trkpt>
      <trkpt lat="47.13787" lon="-1.47074">
        <ele>-27.33</ele>
        <time>2014-04-18T16:12:30Z</time>
      </trkpt>
      <trkpt lat="47.13786" lon="-1.4704">
        <ele>-26.53</ele>
        <time>2014-04-18T16:12:34Z</time>
      </trkpt>
      <trkpt lat="47.13785" lon="-1.47007">
        <ele>-26.55</ele>
        <time>2014-04-18T16:12:38Z</time>
      </trkpt>
      <trkpt lat="47.13784" lon="-1.46972">
        <ele>-27.25</ele>
        <time>2014-04-18T16:12:42Z</time>
      </trkpt>
      <trkpt lat="47.13782" lon="-1.46941">
        <ele>-27.55</ele>
        <time>2014-04-18T16:12:46Z</time>
      </trkpt>
      <trkpt lat="47.13778" lon="-1.4691">
        <ele>-26.97</ele>
        <time>2014-04-18T16:12:50Z</time>
      </trkpt>
      <trkpt lat="47.13774" lon="-1.46877">
        <ele>-26.26</ele>
        <time>2014-04-18T16:12:54Z</time>
      </trkpt>
      <trkpt lat="47.13769" lon="-1.46845">
        <ele>-26.16</ele>
        <time>2014-04-18T16:12:58Z</time>
      </trkpt>
      <trkpt lat="47.13763" lon="-1.46812">
        <ele>-26.57</ele>
        <time>2014-04-18T16:13:02Z</time>
      </trkpt>
      <trkpt lat="47.13759" lon="-1.46783">
        <ele>-26.37</ele>
        <time>2014-04-18T16:13:06Z</time>
      </trkpt>
      <trkpt lat="47.13778" lon="-1.46763">
        <ele>-25.44</ele>
        <time>2014-04-18T16:13:50Z</time>
      </trkpt>
      <trkpt lat="47.13798" lon="-1.46756">
        <ele>-25.06</ele>
        <time>2014-04-18T16:13:53Z</time>
      </trkpt>
      <trkpt lat="47.13818" lon="-1.46751">
        <ele>-24.58</ele>
        <time>2014-04-18T16:13:56Z</time>
      </trkpt>
      <trkpt lat="47.13837" lon="-1.46747">
        <ele>-24.29</ele>
        <time>2014-04-18T16:13:59Z</time>
      </trkpt>
      <trkpt lat="47.13856" lon="-1.46742">
        <ele>-23.78</ele>
        <time>2014-04-18T16:14:02Z</time>
      </trkpt>
      <trkpt lat="47.13876" lon="-1.46736">
        <ele>-23.49</ele>
        <time>2014-04-18T16:14:05Z</time>
      </trkpt>
      <trkpt lat="47.13896" lon="-1.46734">
        <ele>-23.41</ele>
        <time>2014-04-18T16:14:08Z</time>
      </trkpt>
      <trkpt lat="47.13916" lon="-1.4673">
        <ele>-22.85</ele>
        <time>2014-04-18T16:14:11Z</time>
      </trkpt>
      <trkpt lat="47.13936" lon="-1.46727">
        <ele>-22.23</ele>
        <time>2014-04-18T16:14:14Z</time>
      </trkpt>
      <trkpt lat="47.13957" lon="-1.46723">
        <ele>-21.51</ele>
        <time>2014-04-18T16:14:17Z</time>
      </trkpt>
      <trkpt lat="47.13978" lon="-1.46723">
        <ele>-22.08</ele>
        <time>2014-04-18T16:14:20Z</time>
      </trkpt>
      <trkpt lat="47.14001" lon="-1.46728">
        <ele>-22.8</ele>
        <time>2014-04-18T16:14:23Z</time>
      </trkpt>
      <trkpt lat="47.14023" lon="-1.4673">
        <ele>-22.89</ele>
        <time>2014-04-18T16:14:26Z</time>
      </trkpt>
      <trkpt lat="47.14047" lon="-1.46733">
        <ele>-22.99</ele>
        <time>2014-04-18T16:14:29Z</time>
      </trkpt>
      <trkpt lat="47.14071" lon="-1.46737">
        <ele>-23.6</ele>
        <time>2014-04-18T16:14:32Z</time>
      </trkpt>
      <trkpt lat="47.14095" lon="-1.46742">
        <ele>-23.54</ele>
        <time>2014-04-18T16:14:35Z</time>
      </trkpt>
      <trkpt lat="47.14117" lon="-1.46748">
        <ele>-22.57</ele>
        <time>2014-04-18T16:14:38Z</time>
      </trkpt>
      <trkpt lat="47.14141" lon="-1.46752">
        <ele>-21.81</ele>
        <time>2014-04-18T16:14:41Z</time>
      </trkpt>
      <trkpt lat="47.14166" lon="-1.46757">
        <ele>-21.4</ele>
        <time>2014-04-18T16:14:44Z</time>
      </trkpt>
      <trkpt lat="47.14191" lon="-1.46761">
        <ele>-22.67</ele>
        <time>2014-04-18T16:14:47Z</time>
      </trkpt>
      <trkpt lat="47.14216" lon="-1.46766">
        <ele>-23.51</ele>
        <time>2014-04-18T16:14:50Z</time>
      </trkpt>
      <trkpt lat="47.14241" lon="-1.46772">
        <ele>-23.72</ele>
        <time>2014-04-18T16:14:53Z</time>
      </trkpt>
      <trkpt lat="47.14265" lon="-1.46776">
        <ele>-22.94</ele>
        <time>2014-04-18T16:14:56Z</time>
      </trkpt>
      <trkpt lat="47.1429" lon="-1.4678">
        <ele>-23.06</ele>
        <time>2014-04-18T16:14:59Z</time>
      </trkpt>
      <trkpt lat="47.14316" lon="-1.46786">
        <ele>-23.36</ele>
        <time>2014-04-18T16:15:02Z</time>
      </trkpt>
      <trkpt lat="47.14342" lon="-1.46792">
        <ele>-22.93</ele>
        <time>2014-04-18T16:15:05Z</time>
      </trkpt>
      <trkpt lat="47.14367" lon="-1.46795">
        <ele>-22.21</ele>
        <time>2014-04-18T16:15:08Z</time>
      </trkpt>
      <trkpt lat="47.14392" lon="-1.46799">
        <ele>-20.98</ele>
        <time>2014-04-18T16:15:11Z</time>
      </trkpt>
      <trkpt lat="47.14417" lon="-1.46808">
        <ele>-20.81</ele>
        <time>2014-04-18T16:15:14Z</time>
      </trkpt>
      <trkpt lat="47.14435" lon="-1.46816">
        <ele>-20.81</ele>
        <time>2014-04-18T16:15:16Z</time>
      </trkpt>
      <trkpt lat="47.14459" lon="-1.46829">
        <ele>-20.15</ele>
        <time>2014-04-18T16:15:19Z</time>
      </trkpt>
      <trkpt lat="47.14477" lon="-1.46837">
        <ele>-19.64</ele>
        <time>2014-04-18T16:15:21Z</time>
      </trkpt>
      <trkpt lat="47.14495" lon="-1.46849">
        <ele>-19.12</ele>
        <time>2014-04-18T16:15:23Z</time>
      </trkpt>
      <trkpt lat="47.14513" lon="-1.4686">
        <ele>-18.56</ele>
        <time>2014-04-18T16:15:25Z</time>
      </trkpt>
      <trkpt lat="47.14532" lon="-1.46874">
        <ele>-18.15</ele>
        <time>2014-04-18T16:15:27Z</time>
      </trkpt>
      <trkpt lat="47.14553" lon="-1.46881">
        <ele>-17.62</ele>
        <time>2014-04-18T16:15:29Z</time>
      </trkpt>
      <trkpt lat="47.14578" lon="-1.46882">
        <ele>-18.11</ele>
        <time>2014-04-18T16:15:31Z</time>
      </trkpt>
      <trkpt lat="47.14607" lon="-1.4688">
        <ele>-20.53</ele>
        <time>2014-04-18T16:15:33Z</time>
      </trkpt>
      <trkpt lat="47.14632" lon="-1.46876">
        <ele>-23.01</ele>
        <time>2014-04-18T16:15:35Z</time>
      </trkpt>
      <trkpt lat="47.14657" lon="-1.46874">
        <ele>-24.61</ele>
        <time>2014-04-18T16:15:37Z</time>
      </trkpt>
      <trkpt lat="47.14681" lon="-1.46872">
        <ele>-26.08</ele>
        <time>2014-04-18T16:15:39Z</time>
      </trkpt>
      <trkpt lat="47.14704" lon="-1.46872">
        <ele>-27.33</ele>
        <time>2014-04-18T16:15:41Z</time>
      </trkpt>
      <trkpt lat="47.14728" lon="-1.46872">
        <ele>-28.61</ele>
        <time>2014-04-18T16:15:43Z</time>
      </trkpt>
      <trkpt lat="47.14753" lon="-1.46871">
        <ele>-30.21</ele>
        <time>2014-04-18T16:15:45Z</time>
      </trkpt>
      <trkpt lat="47.14775" lon="-1.46872">
        <ele>-31.71</ele>
        <time>2014-04-18T16:15:47Z</time>
      </trkpt>
      <trkpt lat="47.14799" lon="-1.46873">
        <ele>-34.28</ele>
        <time>2014-04-18T16:15:49Z</time>
      </trkpt>
      <trkpt lat="47.1482" lon="-1.46874">
        <ele>-36.43</ele>
        <time>2014-04-18T16:15:51Z</time>
      </trkpt>
      <trkpt lat="47.14839" lon="-1.46871">
        <ele>-38.54</ele>
        <time>2014-04-18T16:15:53Z</time>
      </trkpt>
      <trkpt lat="47.14858" lon="-1.4687">
        <ele>-40.66</ele>
        <time>2014-04-18T16:15:55Z</time>
      </trkpt>
      <trkpt lat="47.14883" lon="-1.46867">
        <ele>-43.79</ele>
        <time>2014-04-18T16:15:58Z</time>
      </trkpt>
      <trkpt lat="47.14906" lon="-1.46864">
        <ele>-45.71</ele>
        <time>2014-04-18T16:16:01Z</time>
      </trkpt>
      <trkpt lat="47.14927" lon="-1.46862">
        <ele>-47</ele>
        <time>2014-04-18T16:16:04Z</time>
      </trkpt>
      <trkpt lat="47.1495" lon="-1.46864">
        <ele>-47.48</ele>
        <time>2014-04-18T16:16:07Z</time>
      </trkpt>
      <trkpt lat="47.14974" lon="-1.46862">
        <ele>-47.09</ele>
        <time>2014-04-18T16:16:10Z</time>
      </trkpt>
      <trkpt lat="47.14996" lon="-1.46861">
        <ele>-48</ele>
        <time>2014-04-18T16:16:13Z</time>
      </trkpt>
      <trkpt lat="47.1502" lon="-1.46858">
        <ele>-46.55</ele>
        <time>2014-04-18T16:16:17Z</time>
      </trkpt>
      <trkpt lat="47.15042" lon="-1.46854">
        <ele>-45.82</ele>
        <time>2014-04-18T16:16:20Z</time>
      </trkpt>
      <trkpt lat="47.1506" lon="-1.46853">
        <ele>-43.82</ele>
        <time>2014-04-18T16:16:23Z</time>
      </trkpt>
      <trkpt lat="47.1508" lon="-1.46852">
        <ele>-41.64</ele>
        <time>2014-04-18T16:16:26Z</time>
      </trkpt>
      <trkpt lat="47.151" lon="-1.46851">
        <ele>-39.96</ele>
        <time>2014-04-18T16:16:29Z</time>
      </trkpt>
      <trkpt lat="47.15122" lon="-1.46849">
        <ele>-41.47</ele>
        <time>2014-04-18T16:16:32Z</time>
      </trkpt>
      <trkpt lat="47.15142" lon="-1.46848">
        <ele>-42.01</ele>
        <time>2014-04-18T16:16:35Z</time>
      </trkpt>
      <trkpt lat="47.15164" lon="-1.46849">
        <ele>-42.8</ele>
        <time>2014-04-18T16:16:38Z</time>
      </trkpt>
      <trkpt lat="47.15187" lon="-1.46848">
        <ele>-43.64</ele>
        <time>2014-04-18T16:16:41Z</time>
      </trkpt>
      <trkpt lat="47.15211" lon="-1.46845">
        <ele>-44.42</ele>
        <time>2014-04-18T16:16:44Z</time>
      </trkpt>
      <trkpt lat="47.15235" lon="-1.4684">
        <ele>-46.07</ele>
        <time>2014-04-18T16:16:47Z</time>
      </trkpt>
      <trkpt lat="47.15257" lon="-1.46836">
        <ele>-48.52</ele>
        <time>2014-04-18T16:16:50Z</time>
      </trkpt>
      <trkpt lat="47.1528" lon="-1.46828">
        <ele>-51.04</ele>
        <time>2014-04-18T16:16:53Z</time>
      </trkpt>
      <trkpt lat="47.15302" lon="-1.46819">
        <ele>-52.48</ele>
        <time>2014-04-18T16:16:56Z</time>
      </trkpt>
      <trkpt lat="47.15323" lon="-1.46809">
        <ele>-54.25</ele>
        <time>2014-04-18T16:16:59Z</time>
      </trkpt>
      <trkpt lat="47.15343" lon="-1.46801">
        <ele>-55.97</ele>
        <time>2014-04-18T16:17:02Z</time>
      </trkpt>
      <trkpt lat="47.15362" lon="-1.46792">
        <ele>-57.61</ele>
        <time>2014-04-18T16:17:05Z</time>
      </trkpt>
      <trkpt lat="47.15382" lon="-1.46783">
        <ele>-58.59</ele>
        <time>2014-04-18T16:17:08Z</time>
      </trkpt>
      <trkpt lat="47.15399" lon="-1.46773">
        <ele>-59.23</ele>
        <time>2014-04-18T16:17:11Z</time>
      </trkpt>
      <trkpt lat="47.15419" lon="-1.46758">
        <ele>-60.24</ele>
        <time>2014-04-18T16:17:15Z</time>
      </trkpt>
      <trkpt lat="47.15439" lon="-1.4674">
        <ele>-61.67</ele>
        <time>2014-04-18T16:17:19Z</time>
      </trkpt>
      <trkpt lat="47.15419" lon="-1.46744">
        <ele>-64.85</ele>
        <time>2014-04-18T16:17:29Z</time>
      </trkpt>
      <trkpt lat="47.15399" lon="-1.46761">
        <ele>-64.61</ele>
        <time>2014-04-18T16:17:32Z</time>
      </trkpt>
      <trkpt lat="47.15378" lon="-1.46771">
        <ele>-64.15</ele>
        <time>2014-04-18T16:17:35Z</time>
      </trkpt>
      <trkpt lat="47.15359" lon="-1.4678">
        <ele>-64.53</ele>
        <time>2014-04-18T16:17:39Z</time>
      </trkpt>
      <trkpt lat="47.15348" lon="-1.46808">
        <ele>-65.56</ele>
        <time>2014-04-18T16:17:44Z</time>
      </trkpt>
      <trkpt lat="47.15368" lon="-1.46829">
        <ele>-65.8</ele>
        <time>2014-04-18T16:17:48Z</time>
      </trkpt>
      <trkpt lat="47.15384" lon="-1.46854">
        <ele>-66.09</ele>
        <time>2014-04-18T16:17:51Z</time>
      </trkpt>
      <trkpt lat="47.15399" lon="-1.46878">
        <ele>-66.45</ele>
        <time>2014-04-18T16:17:54Z</time>
      </trkpt>
      <trkpt lat="47.15416" lon="-1.46898">
        <ele>-66.85</ele>
        <time>2014-04-18T16:17:57Z</time>
      </trkpt>
      <trkpt lat="47.15431" lon="-1.4692">
        <ele>-67.05</ele>
        <time>2014-04-18T16:18:00Z</time>
      </trkpt>
      <trkpt lat="47.15447" lon="-1.46944">
        <ele>-67.85</ele>
        <time>2014-04-18T16:18:04Z</time>
      </trkpt>
      <trkpt lat="47.15462" lon="-1.46961">
        <ele>-68.42</ele>
        <time>2014-04-18T16:18:07Z</time>
      </trkpt>
      <trkpt lat="47.1548" lon="-1.46978">
        <ele>-68.63</ele>
        <time>2014-04-18T16:18:10Z</time>
      </trkpt>
      <trkpt lat="47.15499" lon="-1.46992">
        <ele>-68.31</ele>
        <time>2014-04-18T16:18:13Z</time>
      </trkpt>
      <trkpt lat="47.15518" lon="-1.47003">
        <ele>-68.17</ele>
        <time>2014-04-18T16:18:16Z</time>
      </trkpt>
      <trkpt lat="47.15537" lon="-1.47008">
        <ele>-68.17</ele>
        <time>2014-04-18T16:18:19Z</time>
      </trkpt>
      <trkpt lat="47.15556" lon="-1.47016">
        <ele>-68</ele>
        <time>2014-04-18T16:18:22Z</time>
      </trkpt>
      <trkpt lat="47.15574" lon="-1.47023">
        <ele>-67.66</ele>
        <time>2014-04-18T16:18:25Z</time>
      </trkpt>
      <trkpt lat="47.15592" lon="-1.47032">
        <ele>-67.59</ele>
        <time>2014-04-18T16:18:28Z</time>
      </trkpt>
      <trkpt lat="47.15615" lon="-1.4704">
        <ele>-67.02</ele>
        <time>2014-04-18T16:18:32Z</time>
      </trkpt>
      <trkpt lat="47.15637" lon="-1.47042">
        <ele>-66.97</ele>
        <time>2014-04-18T16:18:36Z</time>
      </trkpt>
      <trkpt lat="47.15655" lon="-1.4706">
        <ele>-67.1</ele>
        <time>2014-04-18T16:18:40Z</time>
      </trkpt>
      <trkpt lat="47.1567" lon="-1.47082">
        <ele>-67.31</ele>
        <time>2014-04-18T16:18:44Z</time>
      </trkpt>
      <trkpt lat="47.15689" lon="-1.47093">
        <ele>-67.25</ele>
        <time>2014-04-18T16:18:48Z</time>
      </trkpt>
      <trkpt lat="47.15703" lon="-1.4711">
        <ele>-67.09</ele>
        <time>2014-04-18T16:18:52Z</time>
      </trkpt>
      <trkpt lat="47.15721" lon="-1.47126">
        <ele>-67.09</ele>
        <time>2014-04-18T16:18:55Z</time>
      </trkpt>
      <trkpt lat="47.15735" lon="-1.47143">
        <ele>-67.08</ele>
        <time>2014-04-18T16:18:58Z</time>
      </trkpt>
      <trkpt lat="47.15753" lon="-1.47162">
        <ele>-67.2</ele>
        <time>2014-04-18T16:19:02Z</time>
      </trkpt>
      <trkpt lat="47.15769" lon="-1.47177">
        <ele>-67.39</ele>
        <time>2014-04-18T16:19:05Z</time>
      </trkpt>
      <trkpt lat="47.15784" lon="-1.47193">
        <ele>-67.59</ele>
        <time>2014-04-18T16:19:08Z</time>
      </trkpt>
      <trkpt lat="47.15796" lon="-1.47213">
        <ele>-67.95</ele>
        <time>2014-04-18T16:19:11Z</time>
      </trkpt>
      <trkpt lat="47.15809" lon="-1.47237">
        <ele>-68.62</ele>
        <time>2014-04-18T16:19:14Z</time>
      </trkpt>
      <trkpt lat="47.15826" lon="-1.47259">
        <ele>-69.34</ele>
        <time>2014-04-18T16:19:17Z</time>
      </trkpt>
      <trkpt lat="47.15846" lon="-1.47279">
        <ele>-69.97</ele>
        <time>2014-04-18T16:19:20Z</time>
      </trkpt>
      <trkpt lat="47.1586" lon="-1.473">
        <ele>-70.52</ele>
        <time>2014-04-18T16:19:23Z</time>
      </trkpt>
      <trkpt lat="47.15871" lon="-1.47322">
        <ele>-70.87</ele>
        <time>2014-04-18T16:19:26Z</time>
      </trkpt>
      <trkpt lat="47.15889" lon="-1.47343">
        <ele>-71.24</ele>
        <time>2014-04-18T16:19:30Z</time>
      </trkpt>
      <trkpt lat="47.15904" lon="-1.47371">
        <ele>-71.47</ele>
        <time>2014-04-18T16:19:34Z</time>
      </trkpt>
      <trkpt lat="47.15915" lon="-1.47392">
        <ele>-71.86</ele>
        <time>2014-04-18T16:19:37Z</time>
      </trkpt>
      <trkpt lat="47.1593" lon="-1.47411">
        <ele>-72.2</ele>
        <time>2014-04-18T16:19:40Z</time>
      </trkpt>
      <trkpt lat="47.15945" lon="-1.47435">
        <ele>-72.48</ele>
        <time>2014-04-18T16:19:44Z</time>
      </trkpt>
      <trkpt lat="47.1596" lon="-1.47456">
        <ele>-72.52</ele>
        <time>2014-04-18T16:19:48Z</time>
      </trkpt>
      <trkpt lat="47.15975" lon="-1.47475">
        <ele>-72.62</ele>
        <time>2014-04-18T16:19:52Z</time>
      </trkpt>
      <trkpt lat="47.15992" lon="-1.47493">
        <ele>-72.67</ele>
        <time>2014-04-18T16:19:56Z</time>
      </trkpt>
      <trkpt lat="47.16007" lon="-1.47513">
        <ele>-73.04</ele>
        <time>2014-04-18T16:20:00Z</time>
      </trkpt>
      <trkpt lat="47.16022" lon="-1.47537">
        <ele>-73.46</ele>
        <time>2014-04-18T16:20:05Z</time>
      </trkpt>
      <trkpt lat="47.16036" lon="-1.47564">
        <ele>-73.75</ele>
        <time>2014-04-18T16:20:09Z</time>
      </trkpt>
      <trkpt lat="47.16052" lon="-1.47588">
        <ele>-73.87</ele>
        <time>2014-04-18T16:20:13Z</time>
      </trkpt>
      <trkpt lat="47.16064" lon="-1.47609">
        <ele>-73.86</ele>
        <time>2014-04-18T16:20:16Z</time>
      </trkpt>
      <trkpt lat="47.16077" lon="-1.4763">
        <ele>-73.96</ele>
        <time>2014-04-18T16:20:19Z</time>
      </trkpt>
      <trkpt lat="47.16088" lon="-1.47652">
        <ele>-74.01</ele>
        <time>2014-04-18T16:20:22Z</time>
      </trkpt>
      <trkpt lat="47.16098" lon="-1.47677">
        <ele>-73.9</ele>
        <time>2014-04-18T16:20:25Z</time>
      </trkpt>
      <trkpt lat="47.1611" lon="-1.47707">
        <ele>-74.02</ele>
        <time>2014-04-18T16:20:29Z</time>
      </trkpt>
      <trkpt lat="47.16118" lon="-1.47739">
        <ele>-73.93</ele>
        <time>2014-04-18T16:20:33Z</time>
      </trkpt>
      <trkpt lat="47.16128" lon="-1.47768">
        <ele>-73.68</ele>
        <time>2014-04-18T16:20:37Z</time>
      </trkpt>
      <trkpt lat="47.16144" lon="-1.47783">
        <ele>-74.03</ele>
        <time>2014-04-18T16:20:42Z</time>
      </trkpt>
      <trkpt lat="47.1616" lon="-1.47805">
        <ele>-74.36</ele>
        <time>2014-04-18T16:20:47Z</time>
      </trkpt>
      <trkpt lat="47.16167" lon="-1.47833">
        <ele>-74.28</ele>
        <time>2014-04-18T16:20:50Z</time>
      </trkpt>
      <trkpt lat="47.16172" lon="-1.47863">
        <ele>-74.36</ele>
        <time>2014-04-18T16:20:53Z</time>
      </trkpt>
      <trkpt lat="47.16181" lon="-1.47888">
        <ele>-74.5</ele>
        <time>2014-04-18T16:20:56Z</time>
      </trkpt>
      <trkpt lat="47.16192" lon="-1.47911">
        <ele>-74.69</ele>
        <time>2014-04-18T16:20:59Z</time>
      </trkpt>
      <trkpt lat="47.16203" lon="-1.47934">
        <ele>-74.9</ele>
        <time>2014-04-18T16:21:02Z</time>
      </trkpt>
      <trkpt lat="47.16212" lon="-1.47958">
        <ele>-75.18</ele>
        <time>2014-04-18T16:21:05Z</time>
      </trkpt>
      <trkpt lat="47.16215" lon="-1.47987">
        <ele>-75.55</ele>
        <time>2014-04-18T16:21:08Z</time>
      </trkpt>
      <trkpt lat="47.16225" lon="-1.4801">
        <ele>-75.88</ele>
        <time>2014-04-18T16:21:11Z</time>
      </trkpt>
      <trkpt lat="47.1624" lon="-1.48029">
        <ele>-76.01</ele>
        <time>2014-04-18T16:21:14Z</time>
      </trkpt>
      <trkpt lat="47.16256" lon="-1.48052">
        <ele>-76.29</ele>
        <time>2014-04-18T16:21:18Z</time>
      </trkpt>
      <trkpt lat="47.16265" lon="-1.48075">
        <ele>-76.53</ele>
        <time>2014-04-18T16:21:21Z</time>
      </trkpt>
      <trkpt lat="47.16277" lon="-1.48097">
        <ele>-76.66</ele>
        <time>2014-04-18T16:21:24Z</time>
      </trkpt>
      <trkpt lat="47.16294" lon="-1.48121">
        <ele>-76.81</ele>
        <time>2014-04-18T16:21:28Z</time>
      </trkpt>
      <trkpt lat="47.16308" lon="-1.48141">
        <ele>-77.01</ele>
        <time>2014-04-18T16:21:32Z</time>
      </trkpt>
      <trkpt lat="47.16327" lon="-1.48164">
        <ele>-77.38</ele>
        <time>2014-04-18T16:21:37Z</time>
      </trkpt>
      <trkpt lat="47.16345" lon="-1.48175">
        <ele>-77.51</ele>
        <time>2014-04-18T16:21:40Z</time>
      </trkpt>
      <trkpt lat="47.16366" lon="-1.48182">
        <ele>-77.74</ele>
        <time>2014-04-18T16:21:44Z</time>
      </trkpt>
      <trkpt lat="47.1639" lon="-1.48184">
        <ele>-77.75</ele>
        <time>2014-04-18T16:21:48Z</time>
      </trkpt>
      <trkpt lat="47.16413" lon="-1.4819">
        <ele>-77.65</ele>
        <time>2014-04-18T16:21:52Z</time>
      </trkpt>
      <trkpt lat="47.16431" lon="-1.48193">
        <ele>-77.82</ele>
        <time>2014-04-18T16:21:55Z</time>
      </trkpt>
      <trkpt lat="47.16452" lon="-1.48191">
        <ele>-78.12</ele>
        <time>2014-04-18T16:21:58Z</time>
      </trkpt>
      <trkpt lat="47.1647" lon="-1.48185">
        <ele>-79.1</ele>
        <time>2014-04-18T16:22:01Z</time>
      </trkpt>
      <trkpt lat="47.16488" lon="-1.48168">
        <ele>-79.22</ele>
        <time>2014-04-18T16:22:05Z</time>
      </trkpt>
      <trkpt lat="47.16506" lon="-1.4817">
        <ele>-78.82</ele>
        <time>2014-04-18T16:22:14Z</time>
      </trkpt>
      <trkpt lat="47.16521" lon="-1.48148">
        <ele>-79.41</ele>
        <time>2014-04-18T16:22:19Z</time>
      </trkpt>
      <trkpt lat="47.16537" lon="-1.48129">
        <ele>-79.8</ele>
        <time>2014-04-18T16:22:23Z</time>
      </trkpt>
      <trkpt lat="47.16557" lon="-1.48117">
        <ele>-79.38</ele>
        <time>2014-04-18T16:22:28Z</time>
      </trkpt>
      <trkpt lat="47.16574" lon="-1.48105">
        <ele>-79.21</ele>
        <time>2014-04-18T16:22:31Z</time>
      </trkpt>
      <trkpt lat="47.1659" lon="-1.48094">
        <ele>-78.63</ele>
        <time>2014-04-18T16:22:34Z</time>
      </trkpt>
      <trkpt lat="47.16611" lon="-1.48081">
        <ele>-78.38</ele>
        <time>2014-04-18T16:22:38Z</time>
      </trkpt>
      <trkpt lat="47.16632" lon="-1.48065">
        <ele>-78.56</ele>
        <time>2014-04-18T16:22:42Z</time>
      </trkpt>
      <trkpt lat="47.16649" lon="-1.48051">
        <ele>-78.48</ele>
        <time>2014-04-18T16:22:45Z</time>
      </trkpt>
      <trkpt lat="47.1667" lon="-1.48036">
        <ele>-78.39</ele>
        <time>2014-04-18T16:22:49Z</time>
      </trkpt>
      <trkpt lat="47.16693" lon="-1.48021">
        <ele>-78.03</ele>
        <time>2014-04-18T16:22:53Z</time>
      </trkpt>
      <trkpt lat="47.16712" lon="-1.48012">
        <ele>-77.98</ele>
        <time>2014-04-18T16:22:56Z</time>
      </trkpt>
      <trkpt lat="47.16731" lon="-1.48004">
        <ele>-78.01</ele>
        <time>2014-04-18T16:22:59Z</time>
      </trkpt>
      <trkpt lat="47.16749" lon="-1.48">
        <ele>-78.03</ele>
        <time>2014-04-18T16:23:02Z</time>
      </trkpt>
      <trkpt lat="47.16767" lon="-1.47996">
        <ele>-78.14</ele>
        <time>2014-04-18T16:23:05Z</time>
      </trkpt>
      <trkpt lat="47.16785" lon="-1.48002">
        <ele>-78.03</ele>
        <time>2014-04-18T16:23:08Z</time>
      </trkpt>
      <trkpt lat="47.16807" lon="-1.48005">
        <ele>-77.6</ele>
        <time>2014-04-18T16:23:12Z</time>
      </trkpt>
      <trkpt lat="47.16823" lon="-1.48031">
        <ele>-77.26</ele>
        <time>2014-04-18T16:23:16Z</time>
      </trkpt>
      <trkpt lat="47.16835" lon="-1.48054">
        <ele>-77.13</ele>
        <time>2014-04-18T16:23:19Z</time>
      </trkpt>
      <trkpt lat="47.1685" lon="-1.48075">
        <ele>-77.01</ele>
        <time>2014-04-18T16:23:22Z</time>
      </trkpt>
      <trkpt lat="47.16867" lon="-1.48089">
        <ele>-76.9</ele>
        <time>2014-04-18T16:23:25Z</time>
      </trkpt>
      <trkpt lat="47.1688" lon="-1.48111">
        <ele>-76.88</ele>
        <time>2014-04-18T16:23:28Z</time>
      </trkpt>
      <trkpt lat="47.16892" lon="-1.48136">
        <ele>-76.79</ele>
        <time>2014-04-18T16:23:31Z</time>
      </trkpt>
      <trkpt lat="47.16905" lon="-1.48163">
        <ele>-76.85</ele>
        <time>2014-04-18T16:23:35Z</time>
      </trkpt>
      <trkpt lat="47.16918" lon="-1.48182">
        <ele>-77.08</ele>
        <time>2014-04-18T16:23:38Z</time>
      </trkpt>
      <trkpt lat="47.16931" lon="-1.48204">
        <ele>-77.5</ele>
        <time>2014-04-18T16:23:41Z</time>
      </trkpt>
      <trkpt lat="47.16942" lon="-1.4823">
        <ele>-78.11</ele>
        <time>2014-04-18T16:23:44Z</time>
      </trkpt>
      <trkpt lat="47.16946" lon="-1.48258">
        <ele>-78.55</ele>
        <time>2014-04-18T16:23:47Z</time>
      </trkpt>
      <trkpt lat="47.1695" lon="-1.48285">
        <ele>-78.9</ele>
        <time>2014-04-18T16:23:50Z</time>
      </trkpt>
      <trkpt lat="47.16952" lon="-1.4832">
        <ele>-78.99</ele>
        <time>2014-04-18T16:23:54Z</time>
      </trkpt>
      <trkpt lat="47.16948" lon="-1.48346">
        <ele>-78.83</ele>
        <time>2014-04-18T16:23:57Z</time>
      </trkpt>
      <trkpt lat="47.1694" lon="-1.48375">
        <ele>-78.69</ele>
        <time>2014-04-18T16:24:00Z</time>
      </trkpt>
      <trkpt lat="47.16934" lon="-1.484">
        <ele>-78.76</ele>
        <time>2014-04-18T16:24:03Z</time>
      </trkpt>
      <trkpt lat="47.16927" lon="-1.48425">
        <ele>-78.77</ele>
        <time>2014-04-18T16:24:06Z</time>
      </trkpt>
      <trkpt lat="47.16918" lon="-1.48458">
        <ele>-78.61</ele>
        <time>2014-04-18T16:24:10Z</time>
      </trkpt>
      <trkpt lat="47.16912" lon="-1.48484">
        <ele>-78.37</ele>
        <time>2014-04-18T16:24:13Z</time>
      </trkpt>
      <trkpt lat="47.16908" lon="-1.48511">
        <ele>-78.25</ele>
        <time>2014-04-18T16:24:16Z</time>
      </trkpt>
      <trkpt lat="47.16908" lon="-1.4854">
        <ele>-78.37</ele>
        <time>2014-04-18T16:24:19Z</time>
      </trkpt>
      <trkpt lat="47.16909" lon="-1.48569">
        <ele>-78.67</ele>
        <time>2014-04-18T16:24:22Z</time>
      </trkpt>
      <trkpt lat="47.16912" lon="-1.48595">
        <ele>-78.97</ele>
        <time>2014-04-18T16:24:25Z</time>
      </trkpt>
      <trkpt lat="47.16916" lon="-1.48627">
        <ele>-79.19</ele>
        <time>2014-04-18T16:24:29Z</time>
      </trkpt>
      <trkpt lat="47.16921" lon="-1.48659">
        <ele>-79.48</ele>
        <time>2014-04-18T16:24:33Z</time>
      </trkpt>
      <trkpt lat="47.16926" lon="-1.48685">
        <ele>-79.7</ele>
        <time>2014-04-18T16:24:36Z</time>
      </trkpt>
      <trkpt lat="47.1693" lon="-1.48714">
        <ele>-79.9</ele>
        <time>2014-04-18T16:24:39Z</time>
      </trkpt>
      <trkpt lat="47.16936" lon="-1.48746">
        <ele>-79.97</ele>
        <time>2014-04-18T16:24:43Z</time>
      </trkpt>
      <trkpt lat="47.16944" lon="-1.48779">
        <ele>-80.28</ele>
        <time>2014-04-18T16:24:47Z</time>
      </trkpt>
      <trkpt lat="47.16949" lon="-1.48806">
        <ele>-80.57</ele>
        <time>2014-04-18T16:24:50Z</time>
      </trkpt>
      <trkpt lat="47.16956" lon="-1.48832">
        <ele>-80.79</ele>
        <time>2014-04-18T16:24:53Z</time>
      </trkpt>
      <trkpt lat="47.16961" lon="-1.48862">
        <ele>-81.13</ele>
        <time>2014-04-18T16:24:56Z</time>
      </trkpt>
      <trkpt lat="47.16967" lon="-1.48893">
        <ele>-81.66</ele>
        <time>2014-04-18T16:25:00Z</time>
      </trkpt>
      <trkpt lat="47.16973" lon="-1.48924">
        <ele>-81.98</ele>
        <time>2014-04-18T16:25:04Z</time>
      </trkpt>
      <trkpt lat="47.1698" lon="-1.48951">
        <ele>-82.39</ele>
        <time>2014-04-18T16:25:07Z</time>
      </trkpt>
      <trkpt lat="47.16986" lon="-1.4898">
        <ele>-82.7</ele>
        <time>2014-04-18T16:25:11Z</time>
      </trkpt>
      <trkpt lat="47.16989" lon="-1.4901">
        <ele>-82.94</ele>
        <time>2014-04-18T16:25:15Z</time>
      </trkpt>
      <trkpt lat="47.16999" lon="-1.4904">
        <ele>-83.42</ele>
        <time>2014-04-18T16:25:19Z</time>
      </trkpt>
      <trkpt lat="47.17007" lon="-1.49064">
        <ele>-83.9</ele>
        <time>2014-04-18T16:25:22Z</time>
      </trkpt>
      <trkpt lat="47.17019" lon="-1.49093">
        <ele>-84.46</ele>
        <time>2014-04-18T16:25:26Z</time>
      </trkpt>
      <trkpt lat="47.17031" lon="-1.49118">
        <ele>-85.02</ele>
        <time>2014-04-18T16:25:30Z</time>
      </trkpt>
      <trkpt lat="47.17042" lon="-1.49142">
        <ele>-85.72</ele>
        <time>2014-04-18T16:25:33Z</time>
      </trkpt>
      <trkpt lat="47.17043" lon="-1.4917">
        <ele>-86.42</ele>
        <time>2014-04-18T16:25:36Z</time>
      </trkpt>
      <trkpt lat="47.1704" lon="-1.49202">
        <ele>-87.25</ele>
        <time>2014-04-18T16:25:39Z</time>
      </trkpt>
      <trkpt lat="47.17048" lon="-1.49227">
        <ele>-88.01</ele>
        <time>2014-04-18T16:25:42Z</time>
      </trkpt>
      <trkpt lat="47.17058" lon="-1.49257">
        <ele>-89.09</ele>
        <time>2014-04-18T16:25:45Z</time>
      </trkpt>
      <trkpt lat="47.17071" lon="-1.49283">
        <ele>-89.96</ele>
        <time>2014-04-18T16:25:49Z</time>
      </trkpt>
      <trkpt lat="47.1708" lon="-1.49308">
        <ele>-90.78</ele>
        <time>2014-04-18T16:25:52Z</time>
      </trkpt>
      <trkpt lat="47.17089" lon="-1.49334">
        <ele>-91.79</ele>
        <time>2014-04-18T16:25:55Z</time>
      </trkpt>
      <trkpt lat="47.17102" lon="-1.49358">
        <ele>-92.3</ele>
        <time>2014-04-18T16:25:58Z</time>
      </trkpt>
      <trkpt lat="47.17114" lon="-1.49379">
        <ele>-92.76</ele>
        <time>2014-04-18T16:26:01Z</time>
      </trkpt>
      <trkpt lat="47.17126" lon="-1.49409">
        <ele>-93.66</ele>
        <time>2014-04-18T16:26:04Z</time>
      </trkpt>
      <trkpt lat="47.17131" lon="-1.49438">
        <ele>-94.62</ele>
        <time>2014-04-18T16:26:07Z</time>
      </trkpt>
      <trkpt lat="47.17141" lon="-1.49466">
        <ele>-95.14</ele>
        <time>2014-04-18T16:26:10Z</time>
      </trkpt>
      <trkpt lat="47.17148" lon="-1.49491">
        <ele>-95.42</ele>
        <time>2014-04-18T16:26:13Z</time>
      </trkpt>
      <trkpt lat="47.17157" lon="-1.49524">
        <ele>-95.87</ele>
        <time>2014-04-18T16:26:17Z</time>
      </trkpt>
      <trkpt lat="47.17161" lon="-1.49554">
        <ele>-96.37</ele>
        <time>2014-04-18T16:26:20Z</time>
      </trkpt>
      <trkpt lat="47.17166" lon="-1.49581">
        <ele>-96.75</ele>
        <time>2014-04-18T16:26:23Z</time>
      </trkpt>
      <trkpt lat="47.17174" lon="-1.49608">
        <ele>-96.98</ele>
        <time>2014-04-18T16:26:26Z</time>
      </trkpt>
      <trkpt lat="47.17177" lon="-1.49637">
        <ele>-97.28</ele>
        <time>2014-04-18T16:26:29Z</time>
      </trkpt>
      <trkpt lat="47.17188" lon="-1.49667">
        <ele>-97.89</ele>
        <time>2014-04-18T16:26:33Z</time>
      </trkpt>
      <trkpt lat="47.17197" lon="-1.4969">
        <ele>-98.44</ele>
        <time>2014-04-18T16:26:36Z</time>
      </trkpt>
      <trkpt lat="47.17203" lon="-1.49717">
        <ele>-99.16</ele>
        <time>2014-04-18T16:26:39Z</time>
      </trkpt>
      <trkpt lat="47.17211" lon="-1.49742">
        <ele>-99.9</ele>
        <time>2014-04-18T16:26:42Z</time>
      </trkpt>
      <trkpt lat="47.17221" lon="-1.49773">
        <ele>-100.84</ele>
        <time>2014-04-18T16:26:46Z</time>
      </trkpt>
      <trkpt lat="47.17229" lon="-1.49798">
        <ele>-101.62</ele>
        <time>2014-04-18T16:26:49Z</time>
      </trkpt>
      <trkpt lat="47.17239" lon="-1.49824">
        <ele>-102.73</ele>
        <time>2014-04-18T16:26:52Z</time>
      </trkpt>
      <trkpt lat="47.17251" lon="-1.49848">
        <ele>-103.98</ele>
        <time>2014-04-18T16:26:55Z</time>
      </trkpt>
      <trkpt lat="47.1726" lon="-1.49873">
        <ele>-105.1</ele>
        <time>2014-04-18T16:26:58Z</time>
      </trkpt>
      <trkpt lat="47.17267" lon="-1.49898">
        <ele>-105.85</ele>
        <time>2014-04-18T16:27:01Z</time>
      </trkpt>
      <trkpt lat="47.17276" lon="-1.49923">
        <ele>-106.35</ele>
        <time>2014-04-18T16:27:04Z</time>
      </trkpt>
      <trkpt lat="47.17284" lon="-1.49955">
        <ele>-106.93</ele>
        <time>2014-04-18T16:27:08Z</time>
      </trkpt>
      <trkpt lat="47.17293" lon="-1.49986">
        <ele>-107.63</ele>
        <time>2014-04-18T16:27:12Z</time>
      </trkpt>
      <trkpt lat="47.17306" lon="-1.50011">
        <ele>-108.3</ele>
        <time>2014-04-18T16:27:16Z</time>
      </trkpt>
      <trkpt lat="47.17323" lon="-1.50036">
        <ele>-109</ele>
        <time>2014-04-18T16:27:20Z</time>
      </trkpt>
      <trkpt lat="47.17335" lon="-1.50056">
        <ele>-109.58</ele>
        <time>2014-04-18T16:27:23Z</time>
      </trkpt>
      <trkpt lat="47.17349" lon="-1.50095">
        <ele>-110.43</ele>
        <time>2014-04-18T16:27:28Z</time>
      </trkpt>
      <trkpt lat="47.17362" lon="-1.50123">
        <ele>-111.51</ele>
        <time>2014-04-18T16:27:32Z</time>
      </trkpt>
      <trkpt lat="47.17375" lon="-1.50147">
        <ele>-112.22</ele>
        <time>2014-04-18T16:27:35Z</time>
      </trkpt>
      <trkpt lat="47.17389" lon="-1.50174">
        <ele>-113.16</ele>
        <time>2014-04-18T16:27:39Z</time>
      </trkpt>
      <trkpt lat="47.174" lon="-1.50196">
        <ele>-113.93</ele>
        <time>2014-04-18T16:27:42Z</time>
      </trkpt>
      <trkpt lat="47.17413" lon="-1.50224">
        <ele>-115.12</ele>
        <time>2014-04-18T16:27:46Z</time>
      </trkpt>
      <trkpt lat="47.17428" lon="-1.50252">
        <ele>-116.66</ele>
        <time>2014-04-18T16:27:50Z</time>
      </trkpt>
      <trkpt lat="47.17438" lon="-1.50276">
        <ele>-117.55</ele>
        <time>2014-04-18T16:27:53Z</time>
      </trkpt>
      <trkpt lat="47.17449" lon="-1.50303">
        <ele>-118.16</ele>
        <time>2014-04-18T16:27:56Z</time>
      </trkpt>
      <trkpt lat="47.17461" lon="-1.5033">
        <ele>-118.8</ele>
        <time>2014-04-18T16:27:59Z</time>
      </trkpt>
      <trkpt lat="47.17473" lon="-1.50356">
        <ele>-119.35</ele>
        <time>2014-04-18T16:28:02Z</time>
      </trkpt>
      <trkpt lat="47.17487" lon="-1.50382">
        <ele>-119.92</ele>
        <time>2014-04-18T16:28:05Z</time>
      </trkpt>
      <trkpt lat="47.175" lon="-1.50407">
        <ele>-120.48</ele>
        <time>2014-04-18T16:28:08Z</time>
      </trkpt>
      <trkpt lat="47.17512" lon="-1.50432">
        <ele>-121.12</ele>
        <time>2014-04-18T16:28:11Z</time>
      </trkpt>
      <trkpt lat="47.17524" lon="-1.50455">
        <ele>-121.82</ele>
        <time>2014-04-18T16:28:14Z</time>
      </trkpt>
      <trkpt lat="47.17536" lon="-1.50476">
        <ele>-122.73</ele>
        <time>2014-04-18T16:28:17Z</time>
      </trkpt>
      <trkpt lat="47.1755" lon="-1.50501">
        <ele>-123.96</ele>
        <time>2014-04-18T16:28:21Z</time>
      </trkpt>
      <trkpt lat="47.17564" lon="-1.50526">
        <ele>-125.22</ele>
        <time>2014-04-18T16:28:25Z</time>
      </trkpt>
      <trkpt lat="47.1758" lon="-1.50547">
        <ele>-126.43</ele>
        <time>2014-04-18T16:28:29Z</time>
      </trkpt>
      <trkpt lat="47.17596" lon="-1.5057">
        <ele>-128.69</ele>
        <time>2014-04-18T16:28:34Z</time>
      </trkpt>
      <trkpt lat="47.17607" lon="-1.50591">
        <ele>-129.75</ele>
        <time>2014-04-18T16:28:37Z</time>
      </trkpt>
      <trkpt lat="47.17621" lon="-1.50613">
        <ele>-130.53</ele>
        <time>2014-04-18T16:28:40Z</time>
      </trkpt>
      <trkpt lat="47.17639" lon="-1.50638">
        <ele>-131.08</ele>
        <time>2014-04-18T16:28:43Z</time>
      </trkpt>
      <trkpt lat="47.17652" lon="-1.50664">
        <ele>-131.67</ele>
        <time>2014-04-18T16:28:46Z</time>
      </trkpt>
      <trkpt lat="47.17666" lon="-1.50684">
        <ele>-132.24</ele>
        <time>2014-04-18T16:28:49Z</time>
      </trkpt>
      <trkpt lat="47.17677" lon="-1.5071">
        <ele>-133.38</ele>
        <time>2014-04-18T16:28:52Z</time>
      </trkpt>
      <trkpt lat="47.17679" lon="-1.50737">
        <ele>-134</ele>
        <time>2014-04-18T16:28:55Z</time>
      </trkpt>
      <trkpt lat="47.17683" lon="-1.50768">
        <ele>-134.7</ele>
        <time>2014-04-18T16:28:59Z</time>
      </trkpt>
      <trkpt lat="47.17687" lon="-1.50798">
        <ele>-135.4</ele>
        <time>2014-04-18T16:29:03Z</time>
      </trkpt>
      <trkpt lat="47.17708" lon="-1.50813">
        <ele>-134.94</ele>
        <time>2014-04-18T16:29:07Z</time>
      </trkpt>
      <trkpt lat="47.17727" lon="-1.508">
        <ele>-136.02</ele>
        <time>2014-04-18T16:29:12Z</time>
      </trkpt>
      <trkpt lat="47.17749" lon="-1.50801">
        <ele>-137.11</ele>
        <time>2014-04-18T16:29:17Z</time>
      </trkpt>
      <trkpt lat="47.17766" lon="-1.50818">
        <ele>-138.15</ele>
        <time>2014-04-18T16:29:21Z</time>
      </trkpt>
      <trkpt lat="47.1778" lon="-1.50836">
        <ele>-138.78</ele>
        <time>2014-04-18T16:29:24Z</time>
      </trkpt>
      <trkpt lat="47.17797" lon="-1.50853">
        <ele>-139.33</ele>
        <time>2014-04-18T16:29:27Z</time>
      </trkpt>
      <trkpt lat="47.17814" lon="-1.50869">
        <ele>-139.72</ele>
        <time>2014-04-18T16:29:30Z</time>
      </trkpt>
      <trkpt lat="47.17829" lon="-1.50885">
        <ele>-140.12</ele>
        <time>2014-04-18T16:29:33Z</time>
      </trkpt>
      <trkpt lat="47.17846" lon="-1.509">
        <ele>-140.88</ele>
        <time>2014-04-18T16:29:37Z</time>
      </trkpt>
      <trkpt lat="47.17864" lon="-1.50917">
        <ele>-141.67</ele>
        <time>2014-04-18T16:29:41Z</time>
      </trkpt>
      <trkpt lat="47.17881" lon="-1.50943">
        <ele>-142.9</ele>
        <time>2014-04-18T16:29:45Z</time>
      </trkpt>
      <trkpt lat="47.17899" lon="-1.50964">
        <ele>-143.91</ele>
        <time>2014-04-18T16:29:48Z</time>
      </trkpt>
      <trkpt lat="47.17914" lon="-1.50983">
        <ele>-145.07</ele>
        <time>2014-04-18T16:29:51Z</time>
      </trkpt>
      <trkpt lat="47.17929" lon="-1.51">
        <ele>-146.11</ele>
        <time>2014-04-18T16:29:54Z</time>
      </trkpt>
      <trkpt lat="47.17942" lon="-1.51018">
        <ele>-147.14</ele>
        <time>2014-04-18T16:29:57Z</time>
      </trkpt>
      <trkpt lat="47.17957" lon="-1.51043">
        <ele>-148.46</ele>
        <time>2014-04-18T16:30:01Z</time>
      </trkpt>
      <trkpt lat="47.17976" lon="-1.51068">
        <ele>-149.57</ele>
        <time>2014-04-18T16:30:05Z</time>
      </trkpt>
      <trkpt lat="47.17993" lon="-1.51089">
        <ele>-150.67</ele>
        <time>2014-04-18T16:30:09Z</time>
      </trkpt>
      <trkpt lat="47.18013" lon="-1.51107">
        <ele>-151.96</ele>
        <time>2014-04-18T16:30:13Z</time>
      </trkpt>
      <trkpt lat="47.18032" lon="-1.51121">
        <ele>-153.03</ele>
        <time>2014-04-18T16:30:16Z</time>
      </trkpt>
      <trkpt lat="47.18051" lon="-1.51131">
        <ele>-153.88</ele>
        <time>2014-04-18T16:30:19Z</time>
      </trkpt>
      <trkpt lat="47.18069" lon="-1.51136">
        <ele>-154.77</ele>
        <time>2014-04-18T16:30:22Z</time>
      </trkpt>
      <trkpt lat="47.18089" lon="-1.51148">
        <ele>-155.83</ele>
        <time>2014-04-18T16:30:26Z</time>
      </trkpt>
      <trkpt lat="47.18097" lon="-1.51181">
        <ele>-156.28</ele>
        <time>2014-04-18T16:30:30Z</time>
      </trkpt>
      <trkpt lat="47.181" lon="-1.51209">
        <ele>-156.71</ele>
        <time>2014-04-18T16:30:33Z</time>
      </trkpt>
      <trkpt lat="47.18105" lon="-1.51236">
        <ele>-157.27</ele>
        <time>2014-04-18T16:30:36Z</time>
      </trkpt>
      <trkpt lat="47.18108" lon="-1.51262">
        <ele>-158.09</ele>
        <time>2014-04-18T16:30:39Z</time>
      </trkpt>
      <trkpt lat="47.18113" lon="-1.5129">
        <ele>-158.85</ele>
        <time>2014-04-18T16:30:42Z</time>
      </trkpt>
      <trkpt lat="47.18118" lon="-1.51318">
        <ele>-159.47</ele>
        <time>2014-04-18T16:30:45Z</time>
      </trkpt>
      <trkpt lat="47.18127" lon="-1.51343">
        <ele>-160.16</ele>
        <time>2014-04-18T16:30:48Z</time>
      </trkpt>
      <trkpt lat="47.18137" lon="-1.51374">
        <ele>-161.05</ele>
        <time>2014-04-18T16:30:52Z</time>
      </trkpt>
      <trkpt lat="47.18147" lon="-1.51399">
        <ele>-161.83</ele>
        <time>2014-04-18T16:30:55Z</time>
      </trkpt>
      <trkpt lat="47.18157" lon="-1.51423">
        <ele>-162.61</ele>
        <time>2014-04-18T16:30:58Z</time>
      </trkpt>
      <trkpt lat="47.18169" lon="-1.51446">
        <ele>-163.4</ele>
        <time>2014-04-18T16:31:01Z</time>
      </trkpt>
      <trkpt lat="47.1818" lon="-1.5147">
        <ele>-164.2</ele>
        <time>2014-04-18T16:31:04Z</time>
      </trkpt>
      <trkpt lat="47.18191" lon="-1.51492">
        <ele>-164.99</ele>
        <time>2014-04-18T16:31:07Z</time>
      </trkpt>
      <trkpt lat="47.18204" lon="-1.51522">
        <ele>-166.12</ele>
        <time>2014-04-18T16:31:11Z</time>
      </trkpt>
      <trkpt lat="47.18208" lon="-1.5155">
        <ele>-166.64</ele>
        <time>2014-04-18T16:31:14Z</time>
      </trkpt>
      <trkpt lat="47.18207" lon="-1.51581">
        <ele>-167.05</ele>
        <time>2014-04-18T16:31:17Z</time>
      </trkpt>
      <trkpt lat="47.182" lon="-1.51607">
        <ele>-167.12</ele>
        <time>2014-04-18T16:31:19Z</time>
      </trkpt>
      <trkpt lat="47.18201" lon="-1.51635">
        <ele>-167.37</ele>
        <time>2014-04-18T16:31:22Z</time>
      </trkpt>
      <trkpt lat="47.18203" lon="-1.51664">
        <ele>-167.66</ele>
        <time>2014-04-18T16:31:25Z</time>
      </trkpt>
      <trkpt lat="47.18204" lon="-1.51691">
        <ele>-168.1</ele>
        <time>2014-04-18T16:31:28Z</time>
      </trkpt>
      <trkpt lat="47.18208" lon="-1.51724">
        <ele>-168.87</ele>
        <time>2014-04-18T16:31:32Z</time>
      </trkpt>
      <trkpt lat="47.18207" lon="-1.51751">
        <ele>-169.77</ele>
        <time>2014-04-18T16:31:36Z</time>
      </trkpt>
      <trkpt lat="47.18199" lon="-1.51777">
        <ele>-171.08</ele>
        <time>2014-04-18T16:31:41Z</time>
      </trkpt>
      <trkpt lat="47.18186" lon="-1.51805">
        <ele>-172.52</ele>
        <time>2014-04-18T16:31:46Z</time>
      </trkpt>
      <trkpt lat="47.18179" lon="-1.5183">
        <ele>-173.22</ele>
        <time>2014-04-18T16:31:49Z</time>
      </trkpt>
      <trkpt lat="47.18176" lon="-1.51858">
        <ele>-174.23</ele>
        <time>2014-04-18T16:31:53Z</time>
      </trkpt>
      <trkpt lat="47.18175" lon="-1.51888">
        <ele>-177.16</ele>
        <time>2014-04-18T16:32:04Z</time>
      </trkpt>
      <trkpt lat="47.18173" lon="-1.5192">
        <ele>-178.12</ele>
        <time>2014-04-18T16:32:08Z</time>
      </trkpt>
      <trkpt lat="47.18172" lon="-1.5195">
        <ele>-179.15</ele>
        <time>2014-04-18T16:32:12Z</time>
      </trkpt>
      <trkpt lat="47.1817" lon="-1.51983">
        <ele>-180.2</ele>
        <time>2014-04-18T16:32:16Z</time>
      </trkpt>
      <trkpt lat="47.18169" lon="-1.52011">
        <ele>-180.99</ele>
        <time>2014-04-18T16:32:19Z</time>
      </trkpt>
      <trkpt lat="47.18176" lon="-1.52045">
        <ele>-181.36</ele>
        <time>2014-04-18T16:32:22Z</time>
      </trkpt>
      <trkpt lat="47.18186" lon="-1.52076">
        <ele>-181.89</ele>
        <time>2014-04-18T16:32:25Z</time>
      </trkpt>
      <trkpt lat="47.18197" lon="-1.52102">
        <ele>-182.83</ele>
        <time>2014-04-18T16:32:28Z</time>
      </trkpt>
      <trkpt lat="47.18209" lon="-1.52134">
        <ele>-183.76</ele>
        <time>2014-04-18T16:32:31Z</time>
      </trkpt>
      <trkpt lat="47.18218" lon="-1.52167">
        <ele>-184.55</ele>
        <time>2014-04-18T16:32:34Z</time>
      </trkpt>
      <trkpt lat="47.18227" lon="-1.52197">
        <ele>-185.31</ele>
        <time>2014-04-18T16:32:37Z</time>
      </trkpt>
      <trkpt lat="47.18239" lon="-1.52222">
        <ele>-186.09</ele>
        <time>2014-04-18T16:32:40Z</time>
      </trkpt>
      <trkpt lat="47.18248" lon="-1.52251">
        <ele>-186.55</ele>
        <time>2014-04-18T16:32:43Z</time>
      </trkpt>
      <trkpt lat="47.1825" lon="-1.52281">
        <ele>-187.08</ele>
        <time>2014-04-18T16:32:46Z</time>
      </trkpt>
      <trkpt lat="47.18247" lon="-1.5231">
        <ele>-187.49</ele>
        <time>2014-04-18T16:32:49Z</time>
      </trkpt>
      <trkpt lat="47.18244" lon="-1.52338">
        <ele>-188.04</ele>
        <time>2014-04-18T16:32:52Z</time>
      </trkpt>
      <trkpt lat="47.18246" lon="-1.52366">
        <ele>-188.59</ele>
        <time>2014-04-18T16:32:55Z</time>
      </trkpt>
      <trkpt lat="47.18248" lon="-1.52392">
        <ele>-189.46</ele>
        <time>2014-04-18T16:32:58Z</time>
      </trkpt>
      <trkpt lat="47.18258" lon="-1.5242">
        <ele>-191.3</ele>
        <time>2014-04-18T16:33:03Z</time>
      </trkpt>
      <trkpt lat="47.18265" lon="-1.52446">
        <ele>-192.71</ele>
        <time>2014-04-18T16:33:07Z</time>
      </trkpt>
      <trkpt lat="47.18259" lon="-1.52477">
        <ele>-194.19</ele>
        <time>2014-04-18T16:33:11Z</time>
      </trkpt>
      <trkpt lat="47.18267" lon="-1.52505">
        <ele>-195.65</ele>
        <time>2014-04-18T16:33:15Z</time>
      </trkpt>
      <trkpt lat="47.18271" lon="-1.52533">
        <ele>-197.04</ele>
        <time>2014-04-18T16:33:19Z</time>
      </trkpt>
      <trkpt lat="47.18279" lon="-1.52557">
        <ele>-198.18</ele>
        <time>2014-04-18T16:33:23Z</time>
      </trkpt>
      <trkpt lat="47.18291" lon="-1.5258">
        <ele>-198.8</ele>
        <time>2014-04-18T16:33:27Z</time>
      </trkpt>
      <trkpt lat="47.18294" lon="-1.52618">
        <ele>-199.03</ele>
        <time>2014-04-18T16:33:31Z</time>
      </trkpt>
      <trkpt lat="47.18297" lon="-1.52655">
        <ele>-199.64</ele>
        <time>2014-04-18T16:33:34Z</time>
      </trkpt>
      <trkpt lat="47.18299" lon="-1.52686">
        <ele>-200.53</ele>
        <time>2014-04-18T16:33:37Z</time>
      </trkpt>
      <trkpt lat="47.18301" lon="-1.52715">
        <ele>-201.77</ele>
        <time>2014-04-18T16:33:41Z</time>
      </trkpt>
      <trkpt lat="47.18302" lon="-1.52745">
        <ele>-204.43</ele>
        <time>2014-04-18T16:33:50Z</time>
      </trkpt>
      <trkpt lat="47.1831" lon="-1.52777">
        <ele>-205.58</ele>
        <time>2014-04-18T16:33:54Z</time>
      </trkpt>
      <trkpt lat="47.18318" lon="-1.52805">
        <ele>-206.52</ele>
        <time>2014-04-18T16:33:57Z</time>
      </trkpt>
      <trkpt lat="47.18327" lon="-1.52833">
        <ele>-207.17</ele>
        <time>2014-04-18T16:34:00Z</time>
      </trkpt>
      <trkpt lat="47.18334" lon="-1.52858">
        <ele>-208.06</ele>
        <time>2014-04-18T16:34:03Z</time>
      </trkpt>
      <trkpt lat="47.18344" lon="-1.52881">
        <ele>-209.1</ele>
        <time>2014-04-18T16:34:06Z</time>
      </trkpt>
      <trkpt lat="47.18358" lon="-1.52908">
        <ele>-210.8</ele>
        <time>2014-04-18T16:34:10Z</time>
      </trkpt>
      <trkpt lat="47.18369" lon="-1.52934">
        <ele>-212.31</ele>
        <time>2014-04-18T16:34:13Z</time>
      </trkpt>
      <trkpt lat="47.1838" lon="-1.52965">
        <ele>-213.59</ele>
        <time>2014-04-18T16:34:16Z</time>
      </trkpt>
      <trkpt lat="47.18392" lon="-1.52993">
        <ele>-215.22</ele>
        <time>2014-04-18T16:34:20Z</time>
      </trkpt>
      <trkpt lat="47.18393" lon="-1.53023">
        <ele>-217</ele>
        <time>2014-04-18T16:34:25Z</time>
      </trkpt>
      <trkpt lat="47.18401" lon="-1.53053">
        <ele>-218.41</ele>
        <time>2014-04-18T16:34:29Z</time>
      </trkpt>
      <trkpt lat="47.18411" lon="-1.53085">
        <ele>-219.83</ele>
        <time>2014-04-18T16:34:33Z</time>
      </trkpt>
      <trkpt lat="47.18424" lon="-1.53111">
        <ele>-221.25</ele>
        <time>2014-04-18T16:34:37Z</time>
      </trkpt>
      <trkpt lat="47.18436" lon="-1.53137">
        <ele>-222.69</ele>
        <time>2014-04-18T16:34:41Z</time>
      </trkpt>
      <trkpt lat="47.18454" lon="-1.53158">
        <ele>-224.27</ele>
        <time>2014-04-18T16:34:45Z</time>
      </trkpt>
      <trkpt lat="47.18472" lon="-1.53178">
        <ele>-226.66</ele>
        <time>2014-04-18T16:34:50Z</time>
      </trkpt>
      <trkpt lat="47.18487" lon="-1.532">
        <ele>-228.9</ele>
        <time>2014-04-18T16:34:54Z</time>
      </trkpt>
      <trkpt lat="47.18502" lon="-1.53223">
        <ele>-231.06</ele>
        <time>2014-04-18T16:34:58Z</time>
      </trkpt>
      <trkpt lat="47.18523" lon="-1.53236">
        <ele>-233.21</ele>
        <time>2014-04-18T16:35:02Z</time>
      </trkpt>
      <trkpt lat="47.18538" lon="-1.53253">
        <ele>-234.72</ele>
        <time>2014-04-18T16:35:05Z</time>
      </trkpt>
      <trkpt lat="47.18556" lon="-1.53267">
        <ele>-236.07</ele>
        <time>2014-04-18T16:35:08Z</time>
      </trkpt>
      <trkpt lat="47.18572" lon="-1.53285">
        <ele>-237.81</ele>
        <time>2014-04-18T16:35:12Z</time>
      </trkpt>
      <trkpt lat="47.18588" lon="-1.533">
        <ele>-239.14</ele>
        <time>2014-04-18T16:35:15Z</time>
      </trkpt>
      <trkpt lat="47.18607" lon="-1.53313">
        <ele>-240.58</ele>
        <time>2014-04-18T16:35:18Z</time>
      </trkpt>
      <trkpt lat="47.18628" lon="-1.53328">
        <ele>-242.48</ele>
        <time>2014-04-18T16:35:22Z</time>
      </trkpt>
      <trkpt lat="47.18644" lon="-1.53347">
        <ele>-243.97</ele>
        <time>2014-04-18T16:35:25Z</time>
      </trkpt>
      <trkpt lat="47.18659" lon="-1.53365">
        <ele>-245.31</ele>
        <time>2014-04-18T16:35:28Z</time>
      </trkpt>
      <trkpt lat="47.18676" lon="-1.53385">
        <ele>-247.28</ele>
        <time>2014-04-18T16:35:32Z</time>
      </trkpt>
      <trkpt lat="47.18692" lon="-1.53401">
        <ele>-248.5</ele>
        <time>2014-04-18T16:35:35Z</time>
      </trkpt>
      <trkpt lat="47.18713" lon="-1.53418">
        <ele>-249.26</ele>
        <time>2014-04-18T16:35:39Z</time>
      </trkpt>
      <trkpt lat="47.18734" lon="-1.53433">
        <ele>-249.84</ele>
        <time>2014-04-18T16:35:43Z</time>
      </trkpt>
      <trkpt lat="47.18753" lon="-1.53433">
        <ele>-245.99</ele>
        <time>2014-04-18T16:35:47Z</time>
      </trkpt>
      <trkpt lat="47.18766" lon="-1.53412">
        <ele>-243.75</ele>
        <time>2014-04-18T16:35:50Z</time>
      </trkpt>
      <trkpt lat="47.18782" lon="-1.534">
        <ele>-242.68</ele>
        <time>2014-04-18T16:35:53Z</time>
      </trkpt>
      <trkpt lat="47.18799" lon="-1.53411">
        <ele>-243.62</ele>
        <time>2014-04-18T16:35:57Z</time>
      </trkpt>
      <trkpt lat="47.18818" lon="-1.53426">
        <ele>-245.04</ele>
        <time>2014-04-18T16:36:01Z</time>
      </trkpt>
      <trkpt lat="47.18835" lon="-1.53439">
        <ele>-246.49</ele>
        <time>2014-04-18T16:36:05Z</time>
      </trkpt>
      <trkpt lat="47.18855" lon="-1.5345">
        <ele>-247.45</ele>
        <time>2014-04-18T16:36:08Z</time>
      </trkpt>
      <trkpt lat="47.18873" lon="-1.5347">
        <ele>-249.07</ele>
        <time>2014-04-18T16:36:12Z</time>
      </trkpt>
      <trkpt lat="47.18892" lon="-1.53484">
        <ele>-250.98</ele>
        <time>2014-04-18T16:36:16Z</time>
      </trkpt>
      <trkpt lat="47.18913" lon="-1.53495">
        <ele>-252.71</ele>
        <time>2014-04-18T16:36:20Z</time>
      </trkpt>
      <trkpt lat="47.18931" lon="-1.53504">
        <ele>-253.67</ele>
        <time>2014-04-18T16:36:23Z</time>
      </trkpt>
      <trkpt lat="47.18949" lon="-1.53512">
        <ele>-254.74</ele>
        <time>2014-04-18T16:36:26Z</time>
      </trkpt>
      <trkpt lat="47.18967" lon="-1.53521">
        <ele>-255.54</ele>
        <time>2014-04-18T16:36:29Z</time>
      </trkpt>
      <trkpt lat="47.18988" lon="-1.53533">
        <ele>-256.42</ele>
        <time>2014-04-18T16:36:33Z</time>
      </trkpt>
      <trkpt lat="47.19008" lon="-1.53542">
        <ele>-256.7</ele>
        <time>2014-04-18T16:36:36Z</time>
      </trkpt>
      <trkpt lat="47.19026" lon="-1.53546">
        <ele>-257.2</ele>
        <time>2014-04-18T16:36:39Z</time>
      </trkpt>
      <trkpt lat="47.19045" lon="-1.53559">
        <ele>-258.47</ele>
        <time>2014-04-18T16:36:43Z</time>
      </trkpt>
      <trkpt lat="47.19062" lon="-1.53577">
        <ele>-260.33</ele>
        <time>2014-04-18T16:36:48Z</time>
      </trkpt>
      <trkpt lat="47.19079" lon="-1.53594">
        <ele>-263.68</ele>
        <time>2014-04-18T16:36:56Z</time>
      </trkpt>
      <trkpt lat="47.19094" lon="-1.53609">
        <ele>-266.4</ele>
        <time>2014-04-18T16:37:02Z</time>
      </trkpt>
      <trkpt lat="47.19108" lon="-1.53628">
        <ele>-269.51</ele>
        <time>2014-04-18T16:37:09Z</time>
      </trkpt>
      <trkpt lat="47.19124" lon="-1.53646">
        <ele>-271.55</ele>
        <time>2014-04-18T16:37:14Z</time>
      </trkpt>
      <trkpt lat="47.19142" lon="-1.53667">
        <ele>-273.34</ele>
        <time>2014-04-18T16:37:18Z</time>
      </trkpt>
      <trkpt lat="47.19156" lon="-1.53687">
        <ele>-274.71</ele>
        <time>2014-04-18T16:37:21Z</time>
      </trkpt>
      <trkpt lat="47.19173" lon="-1.53706">
        <ele>-275.88</ele>
        <time>2014-04-18T16:37:24Z</time>
      </trkpt>
      <trkpt lat="47.1919" lon="-1.53728">
        <ele>-277.42</ele>
        <time>2014-04-18T16:37:28Z</time>
      </trkpt>
      <trkpt lat="47.19206" lon="-1.53748">
        <ele>-279.03</ele>
        <time>2014-04-18T16:37:33Z</time>
      </trkpt>
      <trkpt lat="47.19223" lon="-1.53759">
        <ele>-280.87</ele>
        <time>2014-04-18T16:37:39Z</time>
      </trkpt>
      <trkpt lat="47.19238" lon="-1.53777">
        <ele>-283.04</ele>
        <time>2014-04-18T16:37:44Z</time>
      </trkpt>
      <trkpt lat="47.19253" lon="-1.53795">
        <ele>-285.31</ele>
        <time>2014-04-18T16:37:49Z</time>
      </trkpt>
      <trkpt lat="47.19268" lon="-1.53815">
        <ele>-287.18</ele>
        <time>2014-04-18T16:37:53Z</time>
      </trkpt>
      <trkpt lat="47.19283" lon="-1.53839">
        <ele>-289.34</ele>
        <time>2014-04-18T16:37:57Z</time>
      </trkpt>
      <trkpt lat="47.19297" lon="-1.53859">
        <ele>-290.95</ele>
        <time>2014-04-18T16:38:00Z</time>
      </trkpt>
      <trkpt lat="47.19312" lon="-1.53884">
        <ele>-292.61</ele>
        <time>2014-04-18T16:38:03Z</time>
      </trkpt>
      <trkpt lat="47.19324" lon="-1.53908">
        <ele>-294.38</ele>
        <time>2014-04-18T16:38:06Z</time>
      </trkpt>
      <trkpt lat="47.19335" lon="-1.5393">
        <ele>-295.7</ele>
        <time>2014-04-18T16:38:08Z</time>
      </trkpt>
      <trkpt lat="47.19349" lon="-1.5395">
        <ele>-296.78</ele>
        <time>2014-04-18T16:38:10Z</time>
      </trkpt>
      <trkpt lat="47.19367" lon="-1.53975">
        <ele>-298.57</ele>
        <time>2014-04-18T16:38:13Z</time>
      </trkpt>
      <trkpt lat="47.19381" lon="-1.54001">
        <ele>-300.37</ele>
        <time>2014-04-18T16:38:16Z</time>
      </trkpt>
      <trkpt lat="47.19392" lon="-1.54023">
        <ele>-302.34</ele>
        <time>2014-04-18T16:38:19Z</time>
      </trkpt>
      <trkpt lat="47.19407" lon="-1.54045">
        <ele>-304.12</ele>
        <time>2014-04-18T16:38:22Z</time>
      </trkpt>
      <trkpt lat="47.1942" lon="-1.54068">
        <ele>-305.45</ele>
        <time>2014-04-18T16:38:25Z</time>
      </trkpt>
      <trkpt lat="47.19432" lon="-1.54087">
        <ele>-306.75</ele>
        <time>2014-04-18T16:38:28Z</time>
      </trkpt>
      <trkpt lat="47.19444" lon="-1.5411">
        <ele>-308.41</ele>
        <time>2014-04-18T16:38:32Z</time>
      </trkpt>
      <trkpt lat="47.19461" lon="-1.54136">
        <ele>-310.45</ele>
        <time>2014-04-18T16:38:37Z</time>
      </trkpt>
      <trkpt lat="47.19474" lon="-1.54154">
        <ele>-311.72</ele>
        <time>2014-04-18T16:38:40Z</time>
      </trkpt>
      <trkpt lat="47.19489" lon="-1.5417">
        <ele>-313.53</ele>
        <time>2014-04-18T16:38:43Z</time>
      </trkpt>
      <trkpt lat="47.19507" lon="-1.5419">
        <ele>-316.2</ele>
        <time>2014-04-18T16:38:47Z</time>
      </trkpt>
      <trkpt lat="47.19526" lon="-1.54212">
        <ele>-318.81</ele>
        <time>2014-04-18T16:38:51Z</time>
      </trkpt>
      <trkpt lat="47.19543" lon="-1.54231">
        <ele>-321.27</ele>
        <time>2014-04-18T16:38:55Z</time>
      </trkpt>
      <trkpt lat="47.19558" lon="-1.54246">
        <ele>-323.69</ele>
        <time>2014-04-18T16:38:59Z</time>
      </trkpt>
      <trkpt lat="47.19574" lon="-1.54262">
        <ele>-326.08</ele>
        <time>2014-04-18T16:39:03Z</time>
      </trkpt>
      <trkpt lat="47.19593" lon="-1.54286">
        <ele>-328.27</ele>
        <time>2014-04-18T16:39:07Z</time>
      </trkpt>
      <trkpt lat="47.19609" lon="-1.5431">
        <ele>-330.46</ele>
        <time>2014-04-18T16:39:11Z</time>
      </trkpt>
      <trkpt lat="47.19627" lon="-1.54328">
        <ele>-332.4</ele>
        <time>2014-04-18T16:39:14Z</time>
      </trkpt>
      <trkpt lat="47.19645" lon="-1.54351">
        <ele>-334.68</ele>
        <time>2014-04-18T16:39:18Z</time>
      </trkpt>
      <trkpt lat="47.19666" lon="-1.54373">
        <ele>-335.92</ele>
        <time>2014-04-18T16:39:21Z</time>
      </trkpt>
      <trkpt lat="47.19685" lon="-1.54373">
        <ele>-335.17</ele>
        <time>2014-04-18T16:39:26Z</time>
      </trkpt>
      <trkpt lat="47.19705" lon="-1.54362">
        <ele>-332.92</ele>
        <time>2014-04-18T16:39:30Z</time>
      </trkpt>
      <trkpt lat="47.19723" lon="-1.5434">
        <ele>-327.85</ele>
        <time>2014-04-18T16:39:34Z</time>
      </trkpt>
      <trkpt lat="47.19737" lon="-1.54315">
        <ele>-320.9</ele>
        <time>2014-04-18T16:39:38Z</time>
      </trkpt>
      <trkpt lat="47.19754" lon="-1.54293">
        <ele>-315.61</ele>
        <time>2014-04-18T16:39:42Z</time>
      </trkpt>
      <trkpt lat="47.19772" lon="-1.54272">
        <ele>-312.94</ele>
        <time>2014-04-18T16:39:46Z</time>
      </trkpt>
      <trkpt lat="47.1979" lon="-1.54255">
        <ele>-311.4</ele>
        <time>2014-04-18T16:39:50Z</time>
      </trkpt>
      <trkpt lat="47.19807" lon="-1.54242">
        <ele>-310.15</ele>
        <time>2014-04-18T16:39:54Z</time>
      </trkpt>
      <trkpt lat="47.19826" lon="-1.5423">
        <ele>-309.35</ele>
        <time>2014-04-18T16:39:58Z</time>
      </trkpt>
      <trkpt lat="47.19844" lon="-1.54216">
        <ele>-307.79</ele>
        <time>2014-04-18T16:40:02Z</time>
      </trkpt>
      <trkpt lat="47.19859" lon="-1.54201">
        <ele>-304.64</ele>
        <time>2014-04-18T16:40:06Z</time>
      </trkpt>
      <trkpt lat="47.19876" lon="-1.54184">
        <ele>-302.88</ele>
        <time>2014-04-18T16:40:10Z</time>
      </trkpt>
      <trkpt lat="47.19887" lon="-1.54157">
        <ele>-299.71</ele>
        <time>2014-04-18T16:40:14Z</time>
      </trkpt>
      <trkpt lat="47.19893" lon="-1.54123">
        <ele>-293.68</ele>
        <time>2014-04-18T16:40:18Z</time>
      </trkpt>
      <trkpt lat="47.19901" lon="-1.54098">
        <ele>-289.26</ele>
        <time>2014-04-18T16:40:21Z</time>
      </trkpt>
      <trkpt lat="47.19919" lon="-1.54082">
        <ele>-287.25</ele>
        <time>2014-04-18T16:40:24Z</time>
      </trkpt>
      <trkpt lat="47.19933" lon="-1.5406">
        <ele>-285.25</ele>
        <time>2014-04-18T16:40:27Z</time>
      </trkpt>
      <trkpt lat="47.19945" lon="-1.54031">
        <ele>-282.27</ele>
        <time>2014-04-18T16:40:30Z</time>
      </trkpt>
      <trkpt lat="47.19953" lon="-1.54003">
        <ele>-279.24</ele>
        <time>2014-04-18T16:40:33Z</time>
      </trkpt>
      <trkpt lat="47.19961" lon="-1.53973">
        <ele>-276.56</ele>
        <time>2014-04-18T16:40:36Z</time>
      </trkpt>
      <trkpt lat="47.19969" lon="-1.5394">
        <ele>-273.5</ele>
        <time>2014-04-18T16:40:39Z</time>
      </trkpt>
      <trkpt lat="47.19974" lon="-1.53912">
        <ele>-271.04</ele>
        <time>2014-04-18T16:40:42Z</time>
      </trkpt>
      <trkpt lat="47.19979" lon="-1.53886">
        <ele>-268.97</ele>
        <time>2014-04-18T16:40:45Z</time>
      </trkpt>
      <trkpt lat="47.19986" lon="-1.5386">
        <ele>-267.1</ele>
        <time>2014-04-18T16:40:48Z</time>
      </trkpt>
      <trkpt lat="47.19994" lon="-1.53836">
        <ele>-265.98</ele>
        <time>2014-04-18T16:40:51Z</time>
      </trkpt>
      <trkpt lat="47.20006" lon="-1.53815">
        <ele>-264.52</ele>
        <time>2014-04-18T16:40:54Z</time>
      </trkpt>
      <trkpt lat="47.20018" lon="-1.53788">
        <ele>-262.68</ele>
        <time>2014-04-18T16:40:58Z</time>
      </trkpt>
      <trkpt lat="47.20025" lon="-1.53758">
        <ele>-261.93</ele>
        <time>2014-04-18T16:41:02Z</time>
      </trkpt>
      <trkpt lat="47.20022" lon="-1.53725">
        <ele>-259.66</ele>
        <time>2014-04-18T16:41:05Z</time>
      </trkpt>
      <trkpt lat="47.20023" lon="-1.53696">
        <ele>-257.27</ele>
        <time>2014-04-18T16:41:08Z</time>
      </trkpt>
      <trkpt lat="47.20027" lon="-1.53666">
        <ele>-255.7</ele>
        <time>2014-04-18T16:41:11Z</time>
      </trkpt>
      <trkpt lat="47.20032" lon="-1.53633">
        <ele>-253.35</ele>
        <time>2014-04-18T16:41:14Z</time>
      </trkpt>
      <trkpt lat="47.20036" lon="-1.53603">
        <ele>-250.58</ele>
        <time>2014-04-18T16:41:17Z</time>
      </trkpt>
      <trkpt lat="47.20041" lon="-1.53576">
        <ele>-248.45</ele>
        <time>2014-04-18T16:41:20Z</time>
      </trkpt>
      <trkpt lat="47.20047" lon="-1.53549">
        <ele>-245.91</ele>
        <time>2014-04-18T16:41:23Z</time>
      </trkpt>
      <trkpt lat="47.20058" lon="-1.53519">
        <ele>-244.95</ele>
        <time>2014-04-18T16:41:27Z</time>
      </trkpt>
      <trkpt lat="47.20066" lon="-1.5349">
        <ele>-244.76</ele>
        <time>2014-04-18T16:41:31Z</time>
      </trkpt>
      <trkpt lat="47.20074" lon="-1.53464">
        <ele>-243.49</ele>
        <time>2014-04-18T16:41:35Z</time>
      </trkpt>
      <trkpt lat="47.20093" lon="-1.53457">
        <ele>-244.3</ele>
        <time>2014-04-18T16:41:39Z</time>
      </trkpt>
      <trkpt lat="47.20107" lon="-1.53429">
        <ele>-243.9</ele>
        <time>2014-04-18T16:41:43Z</time>
      </trkpt>
      <trkpt lat="47.20119" lon="-1.534">
        <ele>-243.53</ele>
        <time>2014-04-18T16:41:47Z</time>
      </trkpt>
      <trkpt lat="47.20127" lon="-1.53374">
        <ele>-242.33</ele>
        <time>2014-04-18T16:41:50Z</time>
      </trkpt>
      <trkpt lat="47.20132" lon="-1.53347">
        <ele>-239.21</ele>
        <time>2014-04-18T16:41:53Z</time>
      </trkpt>
      <trkpt lat="47.20127" lon="-1.53317">
        <ele>-235.44</ele>
        <time>2014-04-18T16:41:57Z</time>
      </trkpt>
      <trkpt lat="47.20109" lon="-1.53298">
        <ele>-233.42</ele>
        <time>2014-04-18T16:42:01Z</time>
      </trkpt>
      <trkpt lat="47.20091" lon="-1.53283">
        <ele>-232.36</ele>
        <time>2014-04-18T16:42:05Z</time>
      </trkpt>
      <trkpt lat="47.20072" lon="-1.53268">
        <ele>-231.45</ele>
        <time>2014-04-18T16:42:09Z</time>
      </trkpt>
      <trkpt lat="47.20058" lon="-1.53246">
        <ele>-229.96</ele>
        <time>2014-04-18T16:42:13Z</time>
      </trkpt>
      <trkpt lat="47.20035" lon="-1.53247">
        <ele>-229.97</ele>
        <time>2014-04-18T16:42:18Z</time>
      </trkpt>
      <trkpt lat="47.20019" lon="-1.5326">
        <ele>-230.01</ele>
        <time>2014-04-18T16:42:21Z</time>
      </trkpt>
      <trkpt lat="47.20005" lon="-1.53279">
        <ele>-230.04</ele>
        <time>2014-04-18T16:42:25Z</time>
      </trkpt>
      <trkpt lat="47.20014" lon="-1.53307">
        <ele>-230.44</ele>
        <time>2014-04-18T16:42:30Z</time>
      </trkpt>
      <trkpt lat="47.20029" lon="-1.53323">
        <ele>-230.93</ele>
        <time>2014-04-18T16:42:33Z</time>
      </trkpt>
      <trkpt lat="47.20047" lon="-1.5334">
        <ele>-231.53</ele>
        <time>2014-04-18T16:42:37Z</time>
      </trkpt>
      <trkpt lat="47.20067" lon="-1.53359">
        <ele>-232.37</ele>
        <time>2014-04-18T16:42:41Z</time>
      </trkpt>
      <trkpt lat="47.20086" lon="-1.5338">
        <ele>-233.08</ele>
        <time>2014-04-18T16:42:45Z</time>
      </trkpt>
      <trkpt lat="47.20104" lon="-1.53397">
        <ele>-233.64</ele>
        <time>2014-04-18T16:42:48Z</time>
      </trkpt>
      <trkpt lat="47.20122" lon="-1.53413">
        <ele>-234.27</ele>
        <time>2014-04-18T16:42:51Z</time>
      </trkpt>
      <trkpt lat="47.2014" lon="-1.53429">
        <ele>-234.92</ele>
        <time>2014-04-18T16:42:54Z</time>
      </trkpt>
      <trkpt lat="47.20157" lon="-1.53444">
        <ele>-235.57</ele>
        <time>2014-04-18T16:42:57Z</time>
      </trkpt>
      <trkpt lat="47.20178" lon="-1.5346">
        <ele>-236.3</ele>
        <time>2014-04-18T16:43:01Z</time>
      </trkpt>
      <trkpt lat="47.20194" lon="-1.53475">
        <ele>-236.71</ele>
        <time>2014-04-18T16:43:04Z</time>
      </trkpt>
      <trkpt lat="47.2021" lon="-1.53489">
        <ele>-237.19</ele>
        <time>2014-04-18T16:43:07Z</time>
      </trkpt>
      <trkpt lat="47.20227" lon="-1.53501">
        <ele>-237.78</ele>
        <time>2014-04-18T16:43:10Z</time>
      </trkpt>
      <trkpt lat="47.20244" lon="-1.53514">
        <ele>-238.37</ele>
        <time>2014-04-18T16:43:13Z</time>
      </trkpt>
      <trkpt lat="47.20265" lon="-1.5353">
        <ele>-239.04</ele>
        <time>2014-04-18T16:43:17Z</time>
      </trkpt>
      <trkpt lat="47.20286" lon="-1.53547">
        <ele>-239.64</ele>
        <time>2014-04-18T16:43:21Z</time>
      </trkpt>
      <trkpt lat="47.20302" lon="-1.53562">
        <ele>-240.04</ele>
        <time>2014-04-18T16:43:24Z</time>
      </trkpt>
      <trkpt lat="47.20319" lon="-1.53575">
        <ele>-240.58</ele>
        <time>2014-04-18T16:43:27Z</time>
      </trkpt>
      <trkpt lat="47.20336" lon="-1.53589">
        <ele>-241.1</ele>
        <time>2014-04-18T16:43:30Z</time>
      </trkpt>
      <trkpt lat="47.20354" lon="-1.53605">
        <ele>-241.6</ele>
        <time>2014-04-18T16:43:33Z</time>
      </trkpt>
      <trkpt lat="47.2037" lon="-1.53618">
        <ele>-242.13</ele>
        <time>2014-04-18T16:43:36Z</time>
      </trkpt>
      <trkpt lat="47.20386" lon="-1.53632">
        <ele>-242.61</ele>
        <time>2014-04-18T16:43:39Z</time>
      </trkpt>
      <trkpt lat="47.20406" lon="-1.53647">
        <ele>-243.29</ele>
        <time>2014-04-18T16:43:43Z</time>
      </trkpt>
      <trkpt lat="47.20427" lon="-1.53662">
        <ele>-244.07</ele>
        <time>2014-04-18T16:43:47Z</time>
      </trkpt>
      <trkpt lat="47.20449" lon="-1.53677">
        <ele>-244.96</ele>
        <time>2014-04-18T16:43:51Z</time>
      </trkpt>
      <trkpt lat="47.20465" lon="-1.53688">
        <ele>-245.62</ele>
        <time>2014-04-18T16:43:54Z</time>
      </trkpt>
      <trkpt lat="47.20481" lon="-1.53701">
        <ele>-246.34</ele>
        <time>2014-04-18T16:43:57Z</time>
      </trkpt>
      <trkpt lat="47.205" lon="-1.53716">
        <ele>-246.92</ele>
        <time>2014-04-18T16:44:00Z</time>
      </trkpt>
      <trkpt lat="47.20518" lon="-1.53731">
        <ele>-247.48</ele>
        <time>2014-04-18T16:44:03Z</time>
      </trkpt>
      <trkpt lat="47.20536" lon="-1.53747">
        <ele>-247.94</ele>
        <time>2014-04-18T16:44:06Z</time>
      </trkpt>
      <trkpt lat="47.20553" lon="-1.5376">
        <ele>-248.53</ele>
        <time>2014-04-18T16:44:09Z</time>
      </trkpt>
      <trkpt lat="47.20572" lon="-1.53774">
        <ele>-249.17</ele>
        <time>2014-04-18T16:44:12Z</time>
      </trkpt>
      <trkpt lat="47.20601" lon="-1.53799">
        <ele>-247.85</ele>
        <time>2014-04-18T16:44:17Z</time>
      </trkpt>
      <trkpt lat="47.20621" lon="-1.53818">
        <ele>-246.9</ele>
        <time>2014-04-18T16:44:20Z</time>
      </trkpt>
      <trkpt lat="47.20642" lon="-1.53835">
        <ele>-247.25</ele>
        <time>2014-04-18T16:44:23Z</time>
      </trkpt>
      <trkpt lat="47.20661" lon="-1.53851">
        <ele>-247.66</ele>
        <time>2014-04-18T16:44:26Z</time>
      </trkpt>
      <trkpt lat="47.20681" lon="-1.53867">
        <ele>-247.97</ele>
        <time>2014-04-18T16:44:29Z</time>
      </trkpt>
      <trkpt lat="47.207" lon="-1.53881">
        <ele>-248.41</ele>
        <time>2014-04-18T16:44:32Z</time>
      </trkpt>
      <trkpt lat="47.20718" lon="-1.53894">
        <ele>-248.89</ele>
        <time>2014-04-18T16:44:35Z</time>
      </trkpt>
      <trkpt lat="47.20735" lon="-1.53906">
        <ele>-249.46</ele>
        <time>2014-04-18T16:44:39Z</time>
      </trkpt>
      <trkpt lat="47.20755" lon="-1.5392">
        <ele>-249.75</ele>
        <time>2014-04-18T16:44:43Z</time>
      </trkpt>
      <trkpt lat="47.20773" lon="-1.53936">
        <ele>-249.9</ele>
        <time>2014-04-18T16:44:46Z</time>
      </trkpt>
      <trkpt lat="47.2079" lon="-1.53952">
        <ele>-250.04</ele>
        <time>2014-04-18T16:44:49Z</time>
      </trkpt>
      <trkpt lat="47.20808" lon="-1.53968">
        <ele>-250.19</ele>
        <time>2014-04-18T16:44:52Z</time>
      </trkpt>
      <trkpt lat="47.20827" lon="-1.53983">
        <ele>-250.43</ele>
        <time>2014-04-18T16:44:55Z</time>
      </trkpt>
      <trkpt lat="47.20845" lon="-1.53998">
        <ele>-250.63</ele>
        <time>2014-04-18T16:44:58Z</time>
      </trkpt>
      <trkpt lat="47.20865" lon="-1.54015">
        <ele>-251.02</ele>
        <time>2014-04-18T16:45:02Z</time>
      </trkpt>
      <trkpt lat="47.20884" lon="-1.54026">
        <ele>-250.44</ele>
        <time>2014-04-18T16:45:06Z</time>
      </trkpt>
      <trkpt lat="47.20904" lon="-1.54036">
        <ele>-249.07</ele>
        <time>2014-04-18T16:45:09Z</time>
      </trkpt>
      <trkpt lat="47.20923" lon="-1.5405">
        <ele>-248.54</ele>
        <time>2014-04-18T16:45:12Z</time>
      </trkpt>
      <trkpt lat="47.20941" lon="-1.54063">
        <ele>-248.21</ele>
        <time>2014-04-18T16:45:15Z</time>
      </trkpt>
      <trkpt lat="47.20963" lon="-1.5407">
        <ele>-248.5</ele>
        <time>2014-04-18T16:45:19Z</time>
      </trkpt>
      <trkpt lat="47.20981" lon="-1.5408">
        <ele>-246.97</ele>
        <time>2014-04-18T16:45:23Z</time>
      </trkpt>
      <trkpt lat="47.20999" lon="-1.54093">
        <ele>-245.14</ele>
        <time>2014-04-18T16:45:27Z</time>
      </trkpt>
      <trkpt lat="47.2101" lon="-1.54119">
        <ele>-245.85</ele>
        <time>2014-04-18T16:45:32Z</time>
      </trkpt>
      <trkpt lat="47.21012" lon="-1.5415">
        <ele>-241.55</ele>
        <time>2014-04-18T16:45:36Z</time>
      </trkpt>
      <trkpt lat="47.21004" lon="-1.54176">
        <ele>-235.86</ele>
        <time>2014-04-18T16:45:40Z</time>
      </trkpt>
      <trkpt lat="47.20996" lon="-1.54209">
        <ele>-235.7</ele>
        <time>2014-04-18T16:45:43Z</time>
      </trkpt>
      <trkpt lat="47.20991" lon="-1.54238">
        <ele>-235.68</ele>
        <time>2014-04-18T16:45:46Z</time>
      </trkpt>
      <trkpt lat="47.2098" lon="-1.54266">
        <ele>-235.67</ele>
        <time>2014-04-18T16:45:49Z</time>
      </trkpt>
      <trkpt lat="47.20968" lon="-1.54292">
        <ele>-235.67</ele>
        <time>2014-04-18T16:45:52Z</time>
      </trkpt>
      <trkpt lat="47.20958" lon="-1.54317">
        <ele>-235.85</ele>
        <time>2014-04-18T16:45:55Z</time>
      </trkpt>
      <trkpt lat="47.20949" lon="-1.54342">
        <ele>-236</ele>
        <time>2014-04-18T16:45:58Z</time>
      </trkpt>
      <trkpt lat="47.20943" lon="-1.54367">
        <ele>-236.24</ele>
        <time>2014-04-18T16:46:01Z</time>
      </trkpt>
      <trkpt lat="47.20935" lon="-1.54391">
        <ele>-236.61</ele>
        <time>2014-04-18T16:46:04Z</time>
      </trkpt>
      <trkpt lat="47.20925" lon="-1.54414">
        <ele>-236.74</ele>
        <time>2014-04-18T16:46:07Z</time>
      </trkpt>
      <trkpt lat="47.20917" lon="-1.54439">
        <ele>-236.82</ele>
        <time>2014-04-18T16:46:10Z</time>
      </trkpt>
      <trkpt lat="47.2091" lon="-1.54464">
        <ele>-237.13</ele>
        <time>2014-04-18T16:46:13Z</time>
      </trkpt>
      <trkpt lat="47.20902" lon="-1.54489">
        <ele>-237.56</ele>
        <time>2014-04-18T16:46:16Z</time>
      </trkpt>
      <trkpt lat="47.20892" lon="-1.5452">
        <ele>-237.87</ele>
        <time>2014-04-18T16:46:20Z</time>
      </trkpt>
      <trkpt lat="47.20879" lon="-1.54545">
        <ele>-237.74</ele>
        <time>2014-04-18T16:46:24Z</time>
      </trkpt>
      <trkpt lat="47.20867" lon="-1.54569">
        <ele>-237.94</ele>
        <time>2014-04-18T16:46:28Z</time>
      </trkpt>
      <trkpt lat="47.20848" lon="-1.54557">
        <ele>-232.5</ele>
        <time>2014-04-18T16:46:36Z</time>
      </trkpt>
      <trkpt lat="47.20833" lon="-1.54541">
        <ele>-230.13</ele>
        <time>2014-04-18T16:46:45Z</time>
      </trkpt>
      <trkpt lat="47.20757" lon="-1.54654">
        <ele>-191.8</ele>
        <time>2014-04-18T16:47:59Z</time>
      </trkpt>
      <trkpt lat="47.20737" lon="-1.54659">
        <ele>-127.93</ele>
        <time>2014-04-18T16:48:01Z</time>
      </trkpt>
      <trkpt lat="47.20802" lon="-1.54544">
        <ele>-67.04</ele>
        <time>2014-04-18T16:50:26Z</time>
      </trkpt>
      <trkpt lat="47.2081" lon="-1.54571">
        <ele>-68.85</ele>
        <time>2014-04-18T16:50:36Z</time>
      </trkpt>
      <trkpt lat="47.20802" lon="-1.54602">
        <ele>-68.14</ele>
        <time>2014-04-18T16:50:40Z</time>
      </trkpt>
      <trkpt lat="47.20793" lon="-1.54631">
        <ele>-69.97</ele>
        <time>2014-04-18T16:50:44Z</time>
      </trkpt>
      <trkpt lat="47.20788" lon="-1.54659">
        <ele>-71.01</ele>
        <time>2014-04-18T16:50:48Z</time>
      </trkpt>
      <trkpt lat="47.20782" lon="-1.54686">
        <ele>-70.1</ele>
        <time>2014-04-18T16:50:52Z</time>
      </trkpt>
      <trkpt lat="47.20774" lon="-1.54717">
        <ele>-69.65</ele>
        <time>2014-04-18T16:50:56Z</time>
      </trkpt>
      <trkpt lat="47.20764" lon="-1.54747">
        <ele>-68.54</ele>
        <time>2014-04-18T16:51:00Z</time>
      </trkpt>
      <trkpt lat="47.20756" lon="-1.54778">
        <ele>-67.43</ele>
        <time>2014-04-18T16:51:04Z</time>
      </trkpt>
      <trkpt lat="47.20748" lon="-1.54808">
        <ele>-66.73</ele>
        <time>2014-04-18T16:51:08Z</time>
      </trkpt>
      <trkpt lat="47.2074" lon="-1.54838">
        <ele>-65.93</ele>
        <time>2014-04-18T16:51:12Z</time>
      </trkpt>
      <trkpt lat="47.20737" lon="-1.54867">
        <ele>-67.45</ele>
        <time>2014-04-18T16:51:16Z</time>
      </trkpt>
      <trkpt lat="47.2073" lon="-1.54892">
        <ele>-70.4</ele>
        <time>2014-04-18T16:51:20Z</time>
      </trkpt>
      <trkpt lat="47.20727" lon="-1.54924">
        <ele>-69.86</ele>
        <time>2014-04-18T16:51:24Z</time>
      </trkpt>
      <trkpt lat="47.20726" lon="-1.54957">
        <ele>-69.27</ele>
        <time>2014-04-18T16:51:28Z</time>
      </trkpt>
      <trkpt lat="47.20721" lon="-1.54987">
        <ele>-68.5</ele>
        <time>2014-04-18T16:51:33Z</time>
      </trkpt>
      <trkpt lat="47.20717" lon="-1.55013">
        <ele>-67.77</ele>
        <time>2014-04-18T16:51:37Z</time>
      </trkpt>
      <trkpt lat="47.20714" lon="-1.55041">
        <ele>-66.15</ele>
        <time>2014-04-18T16:51:42Z</time>
      </trkpt>
      <trkpt lat="47.20714" lon="-1.5507">
        <ele>-66.31</ele>
        <time>2014-04-18T16:51:46Z</time>
      </trkpt>
      <trkpt lat="47.20713" lon="-1.55102">
        <ele>-67.86</ele>
        <time>2014-04-18T16:51:50Z</time>
      </trkpt>
      <trkpt lat="47.20714" lon="-1.55136">
        <ele>-68.2</ele>
        <time>2014-04-18T16:51:54Z</time>
      </trkpt>
      <trkpt lat="47.20721" lon="-1.55162">
        <ele>-67.91</ele>
        <time>2014-04-18T16:51:58Z</time>
      </trkpt>
      <trkpt lat="47.20728" lon="-1.55189">
        <ele>-67.57</ele>
        <time>2014-04-18T16:52:02Z</time>
      </trkpt>
      <trkpt lat="47.20735" lon="-1.55218">
        <ele>-67.07</ele>
        <time>2014-04-18T16:52:07Z</time>
      </trkpt>
      <trkpt lat="47.20738" lon="-1.55246">
        <ele>-67.77</ele>
        <time>2014-04-18T16:52:10Z</time>
      </trkpt>
      <trkpt lat="47.20744" lon="-1.55272">
        <ele>-67.56</ele>
        <time>2014-04-18T16:52:14Z</time>
      </trkpt>
      <trkpt lat="47.20746" lon="-1.55298">
        <ele>-67.17</ele>
        <time>2014-04-18T16:52:18Z</time>
      </trkpt>
      <trkpt lat="47.20751" lon="-1.55326">
        <ele>-66.95</ele>
        <time>2014-04-18T16:52:22Z</time>
      </trkpt>
      <trkpt lat="47.20756" lon="-1.55354">
        <ele>-66.6</ele>
        <time>2014-04-18T16:52:26Z</time>
      </trkpt>
      <trkpt lat="47.20759" lon="-1.55386">
        <ele>-66.08</ele>
        <time>2014-04-18T16:52:30Z</time>
      </trkpt>
      <trkpt lat="47.20761" lon="-1.55415">
        <ele>-66.27</ele>
        <time>2014-04-18T16:52:33Z</time>
      </trkpt>
      <trkpt lat="47.20765" lon="-1.55446">
        <ele>-65.91</ele>
        <time>2014-04-18T16:52:37Z</time>
      </trkpt>
      <trkpt lat="47.20764" lon="-1.55479">
        <ele>-65.03</ele>
        <time>2014-04-18T16:52:41Z</time>
      </trkpt>
      <trkpt lat="47.20765" lon="-1.55507">
        <ele>-64.38</ele>
        <time>2014-04-18T16:52:44Z</time>
      </trkpt>
      <trkpt lat="47.20766" lon="-1.55539">
        <ele>-64.65</ele>
        <time>2014-04-18T16:52:47Z</time>
      </trkpt>
      <trkpt lat="47.20767" lon="-1.55574">
        <ele>-64.76</ele>
        <time>2014-04-18T16:52:50Z</time>
      </trkpt>
      <trkpt lat="47.20769" lon="-1.55606">
        <ele>-66.07</ele>
        <time>2014-04-18T16:52:53Z</time>
      </trkpt>
      <trkpt lat="47.2077" lon="-1.55639">
        <ele>-67.01</ele>
        <time>2014-04-18T16:52:56Z</time>
      </trkpt>
      <trkpt lat="47.20771" lon="-1.55668">
        <ele>-67.22</ele>
        <time>2014-04-18T16:52:59Z</time>
      </trkpt>
      <trkpt lat="47.20776" lon="-1.55695">
        <ele>-67.64</ele>
        <time>2014-04-18T16:53:02Z</time>
      </trkpt>
      <trkpt lat="47.20779" lon="-1.55728">
        <ele>-68.57</ele>
        <time>2014-04-18T16:53:06Z</time>
      </trkpt>
      <trkpt lat="47.20783" lon="-1.55755">
        <ele>-69.26</ele>
        <time>2014-04-18T16:53:09Z</time>
      </trkpt>
      <trkpt lat="47.20786" lon="-1.55784">
        <ele>-69.95</ele>
        <time>2014-04-18T16:53:12Z</time>
      </trkpt>
      <trkpt lat="47.20789" lon="-1.55817">
        <ele>-70.48</ele>
        <time>2014-04-18T16:53:15Z</time>
      </trkpt>
      <trkpt lat="47.20793" lon="-1.55849">
        <ele>-70.95</ele>
        <time>2014-04-18T16:53:18Z</time>
      </trkpt>
      <trkpt lat="47.20797" lon="-1.55883">
        <ele>-71.07</ele>
        <time>2014-04-18T16:53:21Z</time>
      </trkpt>
      <trkpt lat="47.20802" lon="-1.55916">
        <ele>-71.15</ele>
        <time>2014-04-18T16:53:24Z</time>
      </trkpt>
      <trkpt lat="47.20807" lon="-1.55946">
        <ele>-71.33</ele>
        <time>2014-04-18T16:53:27Z</time>
      </trkpt>
      <trkpt lat="47.20812" lon="-1.55973">
        <ele>-71.49</ele>
        <time>2014-04-18T16:53:30Z</time>
      </trkpt>
      <trkpt lat="47.20818" lon="-1.56002">
        <ele>-72.09</ele>
        <time>2014-04-18T16:53:33Z</time>
      </trkpt>
      <trkpt lat="47.20824" lon="-1.56028">
        <ele>-71.85</ele>
        <time>2014-04-18T16:53:36Z</time>
      </trkpt>
      <trkpt lat="47.2083" lon="-1.56062">
        <ele>-69.79</ele>
        <time>2014-04-18T16:53:40Z</time>
      </trkpt>
      <trkpt lat="47.20835" lon="-1.56089">
        <ele>-68.8</ele>
        <time>2014-04-18T16:53:43Z</time>
      </trkpt>
      <trkpt lat="47.2084" lon="-1.56118">
        <ele>-68.08</ele>
        <time>2014-04-18T16:53:46Z</time>
      </trkpt>
      <trkpt lat="47.20846" lon="-1.56146">
        <ele>-67.44</ele>
        <time>2014-04-18T16:53:49Z</time>
      </trkpt>
      <trkpt lat="47.20847" lon="-1.56174">
        <ele>-67.16</ele>
        <time>2014-04-18T16:53:52Z</time>
      </trkpt>
      <trkpt lat="47.20848" lon="-1.56203">
        <ele>-66.76</ele>
        <time>2014-04-18T16:53:55Z</time>
      </trkpt>
      <trkpt lat="47.20848" lon="-1.56233">
        <ele>-66.92</ele>
        <time>2014-04-18T16:53:58Z</time>
      </trkpt>
      <trkpt lat="47.20847" lon="-1.56262">
        <ele>-67.46</ele>
        <time>2014-04-18T16:54:01Z</time>
      </trkpt>
      <trkpt lat="47.20846" lon="-1.56291">
        <ele>-68.53</ele>
        <time>2014-04-18T16:54:04Z</time>
      </trkpt>
      <trkpt lat="47.20845" lon="-1.56319">
        <ele>-69.64</ele>
        <time>2014-04-18T16:54:07Z</time>
      </trkpt>
      <trkpt lat="47.20843" lon="-1.56347">
        <ele>-69.95</ele>
        <time>2014-04-18T16:54:10Z</time>
      </trkpt>
      <trkpt lat="47.2084" lon="-1.56375">
        <ele>-70.27</ele>
        <time>2014-04-18T16:54:13Z</time>
      </trkpt>
      <trkpt lat="47.20837" lon="-1.56404">
        <ele>-70.52</ele>
        <time>2014-04-18T16:54:16Z</time>
      </trkpt>
      <trkpt lat="47.20833" lon="-1.56433">
        <ele>-70.77</ele>
        <time>2014-04-18T16:54:19Z</time>
      </trkpt>
      <trkpt lat="47.20827" lon="-1.5646">
        <ele>-71.16</ele>
        <time>2014-04-18T16:54:22Z</time>
      </trkpt>
      <trkpt lat="47.2082" lon="-1.56491">
        <ele>-71.88</ele>
        <time>2014-04-18T16:54:26Z</time>
      </trkpt>
      <trkpt lat="47.20816" lon="-1.5652">
        <ele>-72.51</ele>
        <time>2014-04-18T16:54:30Z</time>
      </trkpt>
      <trkpt lat="47.20798" lon="-1.56515">
        <ele>-74.02</ele>
        <time>2014-04-18T16:54:37Z</time>
      </trkpt>
      <trkpt lat="47.20777" lon="-1.56506">
        <ele>-74.04</ele>
        <time>2014-04-18T16:54:40Z</time>
      </trkpt>
      <trkpt lat="47.20761" lon="-1.56527">
        <ele>-73.44</ele>
        <time>2014-04-18T16:54:53Z</time>
      </trkpt>
      <trkpt lat="47.2075" lon="-1.56552">
        <ele>-73.22</ele>
        <time>2014-04-18T16:54:56Z</time>
      </trkpt>
      <trkpt lat="47.20735" lon="-1.56567">
        <ele>-73.3</ele>
        <time>2014-04-18T16:54:59Z</time>
      </trkpt>
      <trkpt lat="47.20717" lon="-1.56583">
        <ele>-73.65</ele>
        <time>2014-04-18T16:55:02Z</time>
      </trkpt>
      <trkpt lat="47.20701" lon="-1.566">
        <ele>-74.1</ele>
        <time>2014-04-18T16:55:05Z</time>
      </trkpt>
      <trkpt lat="47.20685" lon="-1.56619">
        <ele>-74.81</ele>
        <time>2014-04-18T16:55:08Z</time>
      </trkpt>
      <trkpt lat="47.20668" lon="-1.56639">
        <ele>-75.54</ele>
        <time>2014-04-18T16:55:11Z</time>
      </trkpt>
      <trkpt lat="47.2065" lon="-1.56659">
        <ele>-76.31</ele>
        <time>2014-04-18T16:55:14Z</time>
      </trkpt>
      <trkpt lat="47.20636" lon="-1.56681">
        <ele>-75.82</ele>
        <time>2014-04-18T16:55:17Z</time>
      </trkpt>
      <trkpt lat="47.20625" lon="-1.56704">
        <ele>-75.15</ele>
        <time>2014-04-18T16:55:20Z</time>
      </trkpt>
      <trkpt lat="47.20613" lon="-1.56725">
        <ele>-75.07</ele>
        <time>2014-04-18T16:55:23Z</time>
      </trkpt>
      <trkpt lat="47.20596" lon="-1.56742">
        <ele>-75.24</ele>
        <time>2014-04-18T16:55:26Z</time>
      </trkpt>
      <trkpt lat="47.20584" lon="-1.56765">
        <ele>-75.23</ele>
        <time>2014-04-18T16:55:29Z</time>
      </trkpt>
      <trkpt lat="47.20571" lon="-1.56794">
        <ele>-73.53</ele>
        <time>2014-04-18T16:55:32Z</time>
      </trkpt>
      <trkpt lat="47.20561" lon="-1.56826">
        <ele>-72.29</ele>
        <time>2014-04-18T16:55:35Z</time>
      </trkpt>
      <trkpt lat="47.20554" lon="-1.56858">
        <ele>-71.69</ele>
        <time>2014-04-18T16:55:38Z</time>
      </trkpt>
      <trkpt lat="47.20541" lon="-1.56883">
        <ele>-71.67</ele>
        <time>2014-04-18T16:55:42Z</time>
      </trkpt>
      <trkpt lat="47.2053" lon="-1.56913">
        <ele>-73.41</ele>
        <time>2014-04-18T16:55:46Z</time>
      </trkpt>
      <trkpt lat="47.20516" lon="-1.5694">
        <ele>-73.44</ele>
        <time>2014-04-18T16:55:49Z</time>
      </trkpt>
      <trkpt lat="47.20507" lon="-1.5697">
        <ele>-72.84</ele>
        <time>2014-04-18T16:55:52Z</time>
      </trkpt>
      <trkpt lat="47.20497" lon="-1.56999">
        <ele>-72.02</ele>
        <time>2014-04-18T16:55:55Z</time>
      </trkpt>
      <trkpt lat="47.20489" lon="-1.5703">
        <ele>-72.02</ele>
        <time>2014-04-18T16:55:58Z</time>
      </trkpt>
      <trkpt lat="47.20482" lon="-1.5706">
        <ele>-71.93</ele>
        <time>2014-04-18T16:56:01Z</time>
      </trkpt>
      <trkpt lat="47.20474" lon="-1.57089">
        <ele>-71.63</ele>
        <time>2014-04-18T16:56:04Z</time>
      </trkpt>
      <trkpt lat="47.20462" lon="-1.57114">
        <ele>-71.73</ele>
        <time>2014-04-18T16:56:07Z</time>
      </trkpt>
      <trkpt lat="47.20444" lon="-1.57134">
        <ele>-72.08</ele>
        <time>2014-04-18T16:56:10Z</time>
      </trkpt>
      <trkpt lat="47.20424" lon="-1.57148">
        <ele>-72.42</ele>
        <time>2014-04-18T16:56:13Z</time>
      </trkpt>
      <trkpt lat="47.20404" lon="-1.57162">
        <ele>-72.96</ele>
        <time>2014-04-18T16:56:16Z</time>
      </trkpt>
      <trkpt lat="47.20385" lon="-1.57174">
        <ele>-73.5</ele>
        <time>2014-04-18T16:56:19Z</time>
      </trkpt>
      <trkpt lat="47.20366" lon="-1.57182">
        <ele>-73.95</ele>
        <time>2014-04-18T16:56:22Z</time>
      </trkpt>
      <trkpt lat="47.20342" lon="-1.57191">
        <ele>-74.27</ele>
        <time>2014-04-18T16:56:25Z</time>
      </trkpt>
      <trkpt lat="47.20322" lon="-1.57203">
        <ele>-74.5</ele>
        <time>2014-04-18T16:56:28Z</time>
      </trkpt>
      <trkpt lat="47.20302" lon="-1.57214">
        <ele>-74.78</ele>
        <time>2014-04-18T16:56:31Z</time>
      </trkpt>
      <trkpt lat="47.20282" lon="-1.57225">
        <ele>-75.16</ele>
        <time>2014-04-18T16:56:34Z</time>
      </trkpt>
      <trkpt lat="47.20261" lon="-1.57227">
        <ele>-75.45</ele>
        <time>2014-04-18T16:56:37Z</time>
      </trkpt>
      <trkpt lat="47.20241" lon="-1.57224">
        <ele>-75.86</ele>
        <time>2014-04-18T16:56:40Z</time>
      </trkpt>
      <trkpt lat="47.2022" lon="-1.57221">
        <ele>-76.12</ele>
        <time>2014-04-18T16:56:42Z</time>
      </trkpt>
      <trkpt lat="47.20196" lon="-1.57232">
        <ele>-76.45</ele>
        <time>2014-04-18T16:56:45Z</time>
      </trkpt>
      <trkpt lat="47.20174" lon="-1.57242">
        <ele>-76.63</ele>
        <time>2014-04-18T16:56:48Z</time>
      </trkpt>
      <trkpt lat="47.20154" lon="-1.57256">
        <ele>-76.68</ele>
        <time>2014-04-18T16:56:51Z</time>
      </trkpt>
      <trkpt lat="47.20135" lon="-1.57271">
        <ele>-76.61</ele>
        <time>2014-04-18T16:56:54Z</time>
      </trkpt>
      <trkpt lat="47.20113" lon="-1.57286">
        <ele>-76.52</ele>
        <time>2014-04-18T16:56:57Z</time>
      </trkpt>
      <trkpt lat="47.20091" lon="-1.573">
        <ele>-76.12</ele>
        <time>2014-04-18T16:57:00Z</time>
      </trkpt>
      <trkpt lat="47.20073" lon="-1.57313">
        <ele>-75.83</ele>
        <time>2014-04-18T16:57:03Z</time>
      </trkpt>
      <trkpt lat="47.20054" lon="-1.57325">
        <ele>-75.62</ele>
        <time>2014-04-18T16:57:06Z</time>
      </trkpt>
      <trkpt lat="47.20035" lon="-1.57338">
        <ele>-74.99</ele>
        <time>2014-04-18T16:57:09Z</time>
      </trkpt>
      <trkpt lat="47.20013" lon="-1.57342">
        <ele>-74.06</ele>
        <time>2014-04-18T16:57:13Z</time>
      </trkpt>
      <trkpt lat="47.19992" lon="-1.57345">
        <ele>-73.65</ele>
        <time>2014-04-18T16:57:17Z</time>
      </trkpt>
      <trkpt lat="47.19973" lon="-1.57334">
        <ele>-73.13</ele>
        <time>2014-04-18T16:57:21Z</time>
      </trkpt>
      <trkpt lat="47.1997" lon="-1.57304">
        <ele>-73.29</ele>
        <time>2014-04-18T16:57:24Z</time>
      </trkpt>
      <trkpt lat="47.1996" lon="-1.5727">
        <ele>-72.81</ele>
        <time>2014-04-18T16:57:27Z</time>
      </trkpt>
      <trkpt lat="47.19952" lon="-1.57246">
        <ele>-71.46</ele>
        <time>2014-04-18T16:57:29Z</time>
      </trkpt>
      <trkpt lat="47.19951" lon="-1.57214">
        <ele>-70.66</ele>
        <time>2014-04-18T16:57:32Z</time>
      </trkpt>
      <trkpt lat="47.19948" lon="-1.57183">
        <ele>-70.03</ele>
        <time>2014-04-18T16:57:35Z</time>
      </trkpt>
      <trkpt lat="47.19945" lon="-1.57152">
        <ele>-69.23</ele>
        <time>2014-04-18T16:57:38Z</time>
      </trkpt>
      <trkpt lat="47.19942" lon="-1.57123">
        <ele>-68.79</ele>
        <time>2014-04-18T16:57:41Z</time>
      </trkpt>
      <trkpt lat="47.19939" lon="-1.57092">
        <ele>-68.38</ele>
        <time>2014-04-18T16:57:44Z</time>
      </trkpt>
      <trkpt lat="47.19938" lon="-1.57061">
        <ele>-68.4</ele>
        <time>2014-04-18T16:57:47Z</time>
      </trkpt>
      <trkpt lat="47.19938" lon="-1.57031">
        <ele>-69</ele>
        <time>2014-04-18T16:57:50Z</time>
      </trkpt>
      <trkpt lat="47.19936" lon="-1.57001">
        <ele>-69.22</ele>
        <time>2014-04-18T16:57:53Z</time>
      </trkpt>
      <trkpt lat="47.19933" lon="-1.56971">
        <ele>-69.05</ele>
        <time>2014-04-18T16:57:56Z</time>
      </trkpt>
      <trkpt lat="47.19931" lon="-1.56942">
        <ele>-68.13</ele>
        <time>2014-04-18T16:57:59Z</time>
      </trkpt>
      <trkpt lat="47.1993" lon="-1.56913">
        <ele>-67.78</ele>
        <time>2014-04-18T16:58:02Z</time>
      </trkpt>
      <trkpt lat="47.19929" lon="-1.56884">
        <ele>-68.22</ele>
        <time>2014-04-18T16:58:05Z</time>
      </trkpt>
      <trkpt lat="47.19929" lon="-1.56854">
        <ele>-68.64</ele>
        <time>2014-04-18T16:58:08Z</time>
      </trkpt>
      <trkpt lat="47.19928" lon="-1.56824">
        <ele>-68.85</ele>
        <time>2014-04-18T16:58:11Z</time>
      </trkpt>
      <trkpt lat="47.19928" lon="-1.56796">
        <ele>-69.38</ele>
        <time>2014-04-18T16:58:14Z</time>
      </trkpt>
      <trkpt lat="47.19929" lon="-1.56768">
        <ele>-70.04</ele>
        <time>2014-04-18T16:58:17Z</time>
      </trkpt>
      <trkpt lat="47.19931" lon="-1.56739">
        <ele>-70.67</ele>
        <time>2014-04-18T16:58:20Z</time>
      </trkpt>
      <trkpt lat="47.19931" lon="-1.5671">
        <ele>-70.94</ele>
        <time>2014-04-18T16:58:23Z</time>
      </trkpt>
      <trkpt lat="47.19932" lon="-1.56681">
        <ele>-71.14</ele>
        <time>2014-04-18T16:58:26Z</time>
      </trkpt>
      <trkpt lat="47.19933" lon="-1.56651">
        <ele>-70.92</ele>
        <time>2014-04-18T16:58:29Z</time>
      </trkpt>
      <trkpt lat="47.19937" lon="-1.56623">
        <ele>-70.39</ele>
        <time>2014-04-18T16:58:32Z</time>
      </trkpt>
      <trkpt lat="47.19939" lon="-1.56595">
        <ele>-70.84</ele>
        <time>2014-04-18T16:58:35Z</time>
      </trkpt>
      <trkpt lat="47.19941" lon="-1.56567">
        <ele>-71.19</ele>
        <time>2014-04-18T16:58:38Z</time>
      </trkpt>
      <trkpt lat="47.19943" lon="-1.56539">
        <ele>-70.74</ele>
        <time>2014-04-18T16:58:41Z</time>
      </trkpt>
      <trkpt lat="47.19947" lon="-1.56513">
        <ele>-70.68</ele>
        <time>2014-04-18T16:58:44Z</time>
      </trkpt>
      <trkpt lat="47.19952" lon="-1.56486">
        <ele>-70.43</ele>
        <time>2014-04-18T16:58:47Z</time>
      </trkpt>
      <trkpt lat="47.19959" lon="-1.5646">
        <ele>-70.27</ele>
        <time>2014-04-18T16:58:50Z</time>
      </trkpt>
      <trkpt lat="47.19966" lon="-1.56428">
        <ele>-70.04</ele>
        <time>2014-04-18T16:58:54Z</time>
      </trkpt>
      <trkpt lat="47.19972" lon="-1.56402">
        <ele>-70</ele>
        <time>2014-04-18T16:58:57Z</time>
      </trkpt>
      <trkpt lat="47.19975" lon="-1.56368">
        <ele>-69.38</ele>
        <time>2014-04-18T16:59:01Z</time>
      </trkpt>
      <trkpt lat="47.19977" lon="-1.56336">
        <ele>-68.71</ele>
        <time>2014-04-18T16:59:05Z</time>
      </trkpt>
      <trkpt lat="47.19979" lon="-1.56302">
        <ele>-67.93</ele>
        <time>2014-04-18T16:59:09Z</time>
      </trkpt>
      <trkpt lat="47.1998" lon="-1.56268">
        <ele>-67.38</ele>
        <time>2014-04-18T16:59:13Z</time>
      </trkpt>
      <trkpt lat="47.1998" lon="-1.56233">
        <ele>-67.01</ele>
        <time>2014-04-18T16:59:17Z</time>
      </trkpt>
      <trkpt lat="47.1998" lon="-1.56199">
        <ele>-66.8</ele>
        <time>2014-04-18T16:59:21Z</time>
      </trkpt>
      <trkpt lat="47.19975" lon="-1.56169">
        <ele>-66.56</ele>
        <time>2014-04-18T16:59:25Z</time>
      </trkpt>
      <trkpt lat="47.19957" lon="-1.56171">
        <ele>-63.06</ele>
        <time>2014-04-18T16:59:30Z</time>
      </trkpt>
      <trkpt lat="47.19937" lon="-1.5618">
        <ele>-61.29</ele>
        <time>2014-04-18T16:59:34Z</time>
      </trkpt>
      <trkpt lat="47.19917" lon="-1.56184">
        <ele>-60.81</ele>
        <time>2014-04-18T16:59:37Z</time>
      </trkpt>
      <trkpt lat="47.19896" lon="-1.56187">
        <ele>-60.21</ele>
        <time>2014-04-18T16:59:41Z</time>
      </trkpt>
      <trkpt lat="47.19878" lon="-1.56193">
        <ele>-59.76</ele>
        <time>2014-04-18T16:59:45Z</time>
      </trkpt>
      <trkpt lat="47.19858" lon="-1.56196">
        <ele>-59.38</ele>
        <time>2014-04-18T16:59:48Z</time>
      </trkpt>
      <trkpt lat="47.1984" lon="-1.56198">
        <ele>-58.91</ele>
        <time>2014-04-18T16:59:51Z</time>
      </trkpt>
      <trkpt lat="47.19818" lon="-1.562">
        <ele>-58.44</ele>
        <time>2014-04-18T16:59:55Z</time>
      </trkpt>
      <trkpt lat="47.19799" lon="-1.56202">
        <ele>-58.42</ele>
        <time>2014-04-18T16:59:58Z</time>
      </trkpt>
      <trkpt lat="47.19781" lon="-1.56204">
        <ele>-58.49</ele>
        <time>2014-04-18T17:00:01Z</time>
      </trkpt>
      <trkpt lat="47.19761" lon="-1.56208">
        <ele>-58.51</ele>
        <time>2014-04-18T17:00:04Z</time>
      </trkpt>
      <trkpt lat="47.19739" lon="-1.56211">
        <ele>-58.53</ele>
        <time>2014-04-18T17:00:07Z</time>
      </trkpt>
      <trkpt lat="47.19717" lon="-1.56216">
        <ele>-58.62</ele>
        <time>2014-04-18T17:00:10Z</time>
      </trkpt>
      <trkpt lat="47.19692" lon="-1.56222">
        <ele>-59.14</ele>
        <time>2014-04-18T17:00:13Z</time>
      </trkpt>
      <trkpt lat="47.19663" lon="-1.56228">
        <ele>-59.26</ele>
        <time>2014-04-18T17:00:16Z</time>
      </trkpt>
      <trkpt lat="47.19644" lon="-1.56237">
        <ele>-59.27</ele>
        <time>2014-04-18T17:00:18Z</time>
      </trkpt>
      <trkpt lat="47.1964" lon="-1.56275">
        <ele>-59.45</ele>
        <time>2014-04-18T17:00:21Z</time>
      </trkpt>
      <trkpt lat="47.1964" lon="-1.56313">
        <ele>-59.91</ele>
        <time>2014-04-18T17:00:24Z</time>
      </trkpt>
      <trkpt lat="47.19638" lon="-1.56348">
        <ele>-60.22</ele>
        <time>2014-04-18T17:00:27Z</time>
      </trkpt>
      <trkpt lat="47.19639" lon="-1.56382">
        <ele>-60.57</ele>
        <time>2014-04-18T17:00:30Z</time>
      </trkpt>
      <trkpt lat="47.1964" lon="-1.56415">
        <ele>-60.66</ele>
        <time>2014-04-18T17:00:33Z</time>
      </trkpt>
      <trkpt lat="47.19642" lon="-1.56447">
        <ele>-60.96</ele>
        <time>2014-04-18T17:00:36Z</time>
      </trkpt>
      <trkpt lat="47.19643" lon="-1.56479">
        <ele>-61.31</ele>
        <time>2014-04-18T17:00:39Z</time>
      </trkpt>
      <trkpt lat="47.19643" lon="-1.5651">
        <ele>-61.49</ele>
        <time>2014-04-18T17:00:42Z</time>
      </trkpt>
      <trkpt lat="47.19641" lon="-1.5654">
        <ele>-60.88</ele>
        <time>2014-04-18T17:00:45Z</time>
      </trkpt>
      <trkpt lat="47.19641" lon="-1.5657">
        <ele>-59.86</ele>
        <time>2014-04-18T17:00:48Z</time>
      </trkpt>
      <trkpt lat="47.1964" lon="-1.56599">
        <ele>-59.27</ele>
        <time>2014-04-18T17:00:51Z</time>
      </trkpt>
      <trkpt lat="47.19638" lon="-1.56628">
        <ele>-58.72</ele>
        <time>2014-04-18T17:00:54Z</time>
      </trkpt>
      <trkpt lat="47.19637" lon="-1.5666">
        <ele>-59.52</ele>
        <time>2014-04-18T17:00:57Z</time>
      </trkpt>
      <trkpt lat="47.19637" lon="-1.5669">
        <ele>-59.9</ele>
        <time>2014-04-18T17:01:00Z</time>
      </trkpt>
      <trkpt lat="47.19636" lon="-1.5672">
        <ele>-60.48</ele>
        <time>2014-04-18T17:01:03Z</time>
      </trkpt>
      <trkpt lat="47.19634" lon="-1.5675">
        <ele>-61.21</ele>
        <time>2014-04-18T17:01:06Z</time>
      </trkpt>
      <trkpt lat="47.19632" lon="-1.5678">
        <ele>-61.43</ele>
        <time>2014-04-18T17:01:09Z</time>
      </trkpt>
      <trkpt lat="47.19631" lon="-1.5681">
        <ele>-61.61</ele>
        <time>2014-04-18T17:01:12Z</time>
      </trkpt>
      <trkpt lat="47.19629" lon="-1.56839">
        <ele>-61.14</ele>
        <time>2014-04-18T17:01:15Z</time>
      </trkpt>
      <trkpt lat="47.19628" lon="-1.56869">
        <ele>-60.43</ele>
        <time>2014-04-18T17:01:18Z</time>
      </trkpt>
      <trkpt lat="47.19627" lon="-1.56897">
        <ele>-60.66</ele>
        <time>2014-04-18T17:01:21Z</time>
      </trkpt>
      <trkpt lat="47.19626" lon="-1.56924">
        <ele>-60.7</ele>
        <time>2014-04-18T17:01:24Z</time>
      </trkpt>
      <trkpt lat="47.19623" lon="-1.56955">
        <ele>-60.64</ele>
        <time>2014-04-18T17:01:27Z</time>
      </trkpt>
      <trkpt lat="47.19622" lon="-1.56984">
        <ele>-60.38</ele>
        <time>2014-04-18T17:01:30Z</time>
      </trkpt>
      <trkpt lat="47.19621" lon="-1.57012">
        <ele>-60.53</ele>
        <time>2014-04-18T17:01:33Z</time>
      </trkpt>
      <trkpt lat="47.19619" lon="-1.5704">
        <ele>-60.07</ele>
        <time>2014-04-18T17:01:36Z</time>
      </trkpt>
      <trkpt lat="47.19617" lon="-1.57067">
        <ele>-59.79</ele>
        <time>2014-04-18T17:01:39Z</time>
      </trkpt>
      <trkpt lat="47.19615" lon="-1.57096">
        <ele>-59.36</ele>
        <time>2014-04-18T17:01:42Z</time>
      </trkpt>
      <trkpt lat="47.19614" lon="-1.57123">
        <ele>-59.25</ele>
        <time>2014-04-18T17:01:45Z</time>
      </trkpt>
      <trkpt lat="47.19611" lon="-1.57157">
        <ele>-59.37</ele>
        <time>2014-04-18T17:01:49Z</time>
      </trkpt>
      <trkpt lat="47.19608" lon="-1.57188">
        <ele>-59.34</ele>
        <time>2014-04-18T17:01:52Z</time>
      </trkpt>
      <trkpt lat="47.19605" lon="-1.57223">
        <ele>-59.08</ele>
        <time>2014-04-18T17:01:55Z</time>
      </trkpt>
      <trkpt lat="47.19601" lon="-1.57256">
        <ele>-58.94</ele>
        <time>2014-04-18T17:01:58Z</time>
      </trkpt>
      <trkpt lat="47.19598" lon="-1.57287">
        <ele>-58.59</ele>
        <time>2014-04-18T17:02:01Z</time>
      </trkpt>
      <trkpt lat="47.19594" lon="-1.57317">
        <ele>-58.28</ele>
        <time>2014-04-18T17:02:04Z</time>
      </trkpt>
      <trkpt lat="47.19587" lon="-1.57346">
        <ele>-57.85</ele>
        <time>2014-04-18T17:02:07Z</time>
      </trkpt>
      <trkpt lat="47.1958" lon="-1.57374">
        <ele>-57.43</ele>
        <time>2014-04-18T17:02:10Z</time>
      </trkpt>
      <trkpt lat="47.19574" lon="-1.57402">
        <ele>-57.08</ele>
        <time>2014-04-18T17:02:13Z</time>
      </trkpt>
      <trkpt lat="47.19569" lon="-1.57431">
        <ele>-56.77</ele>
        <time>2014-04-18T17:02:16Z</time>
      </trkpt>
      <trkpt lat="47.19566" lon="-1.57457">
        <ele>-56.52</ele>
        <time>2014-04-18T17:02:19Z</time>
      </trkpt>
      <trkpt lat="47.19562" lon="-1.57487">
        <ele>-56.53</ele>
        <time>2014-04-18T17:02:22Z</time>
      </trkpt>
      <trkpt lat="47.19558" lon="-1.57515">
        <ele>-56.64</ele>
        <time>2014-04-18T17:02:25Z</time>
      </trkpt>
      <trkpt lat="47.19553" lon="-1.57543">
        <ele>-56.67</ele>
        <time>2014-04-18T17:02:28Z</time>
      </trkpt>
      <trkpt lat="47.19547" lon="-1.57574">
        <ele>-56.75</ele>
        <time>2014-04-18T17:02:31Z</time>
      </trkpt>
      <trkpt lat="47.19542" lon="-1.57604">
        <ele>-56.72</ele>
        <time>2014-04-18T17:02:34Z</time>
      </trkpt>
      <trkpt lat="47.19535" lon="-1.57632">
        <ele>-56.68</ele>
        <time>2014-04-18T17:02:37Z</time>
      </trkpt>
      <trkpt lat="47.19529" lon="-1.5766">
        <ele>-57.01</ele>
        <time>2014-04-18T17:02:40Z</time>
      </trkpt>
      <trkpt lat="47.19524" lon="-1.57689">
        <ele>-57.39</ele>
        <time>2014-04-18T17:02:43Z</time>
      </trkpt>
      <trkpt lat="47.19517" lon="-1.57719">
        <ele>-57.46</ele>
        <time>2014-04-18T17:02:46Z</time>
      </trkpt>
      <trkpt lat="47.1951" lon="-1.57748">
        <ele>-57.37</ele>
        <time>2014-04-18T17:02:49Z</time>
      </trkpt>
      <trkpt lat="47.19504" lon="-1.57777">
        <ele>-57.29</ele>
        <time>2014-04-18T17:02:52Z</time>
      </trkpt>
      <trkpt lat="47.19498" lon="-1.57807">
        <ele>-57.56</ele>
        <time>2014-04-18T17:02:55Z</time>
      </trkpt>
      <trkpt lat="47.19493" lon="-1.57837">
        <ele>-57.86</ele>
        <time>2014-04-18T17:02:58Z</time>
      </trkpt>
      <trkpt lat="47.19491" lon="-1.57867">
        <ele>-57.87</ele>
        <time>2014-04-18T17:03:01Z</time>
      </trkpt>
      <trkpt lat="47.19484" lon="-1.57896">
        <ele>-57.57</ele>
        <time>2014-04-18T17:03:04Z</time>
      </trkpt>
      <trkpt lat="47.19481" lon="-1.57928">
        <ele>-57.67</ele>
        <time>2014-04-18T17:03:07Z</time>
      </trkpt>
      <trkpt lat="47.19478" lon="-1.57959">
        <ele>-57.7</ele>
        <time>2014-04-18T17:03:10Z</time>
      </trkpt>
      <trkpt lat="47.19476" lon="-1.57987">
        <ele>-57.75</ele>
        <time>2014-04-18T17:03:13Z</time>
      </trkpt>
      <trkpt lat="47.19473" lon="-1.58015">
        <ele>-57.63</ele>
        <time>2014-04-18T17:03:16Z</time>
      </trkpt>
      <trkpt lat="47.19471" lon="-1.58047">
        <ele>-57.57</ele>
        <time>2014-04-18T17:03:20Z</time>
      </trkpt>
      <trkpt lat="47.19466" lon="-1.58076">
        <ele>-57.61</ele>
        <time>2014-04-18T17:03:24Z</time>
      </trkpt>
      <trkpt lat="47.19454" lon="-1.58103">
        <ele>-57.72</ele>
        <time>2014-04-18T17:03:28Z</time>
      </trkpt>
      <trkpt lat="47.19441" lon="-1.58121">
        <ele>-57.98</ele>
        <time>2014-04-18T17:03:31Z</time>
      </trkpt>
      <trkpt lat="47.19426" lon="-1.58139">
        <ele>-58.32</ele>
        <time>2014-04-18T17:03:34Z</time>
      </trkpt>
      <trkpt lat="47.19415" lon="-1.5816">
        <ele>-58.88</ele>
        <time>2014-04-18T17:03:37Z</time>
      </trkpt>
      <trkpt lat="47.19403" lon="-1.58183">
        <ele>-59.4</ele>
        <time>2014-04-18T17:03:40Z</time>
      </trkpt>
      <trkpt lat="47.19394" lon="-1.58208">
        <ele>-59.85</ele>
        <time>2014-04-18T17:03:43Z</time>
      </trkpt>
      <trkpt lat="47.19385" lon="-1.58234">
        <ele>-60.15</ele>
        <time>2014-04-18T17:03:46Z</time>
      </trkpt>
      <trkpt lat="47.19375" lon="-1.5826">
        <ele>-60.45</ele>
        <time>2014-04-18T17:03:49Z</time>
      </trkpt>
      <trkpt lat="47.19362" lon="-1.58283">
        <ele>-60.82</ele>
        <time>2014-04-18T17:03:52Z</time>
      </trkpt>
      <trkpt lat="47.19345" lon="-1.58302">
        <ele>-61.22</ele>
        <time>2014-04-18T17:03:55Z</time>
      </trkpt>
      <trkpt lat="47.19327" lon="-1.58317">
        <ele>-61.48</ele>
        <time>2014-04-18T17:03:58Z</time>
      </trkpt>
      <trkpt lat="47.19309" lon="-1.58333">
        <ele>-61.85</ele>
        <time>2014-04-18T17:04:01Z</time>
      </trkpt>
      <trkpt lat="47.1929" lon="-1.5835">
        <ele>-62.13</ele>
        <time>2014-04-18T17:04:04Z</time>
      </trkpt>
      <trkpt lat="47.19272" lon="-1.58368">
        <ele>-62.63</ele>
        <time>2014-04-18T17:04:07Z</time>
      </trkpt>
      <trkpt lat="47.19253" lon="-1.58384">
        <ele>-62.89</ele>
        <time>2014-04-18T17:04:10Z</time>
      </trkpt>
      <trkpt lat="47.19233" lon="-1.58399">
        <ele>-63.09</ele>
        <time>2014-04-18T17:04:13Z</time>
      </trkpt>
      <trkpt lat="47.19214" lon="-1.58417">
        <ele>-63.24</ele>
        <time>2014-04-18T17:04:16Z</time>
      </trkpt>
      <trkpt lat="47.19195" lon="-1.58431">
        <ele>-63.34</ele>
        <time>2014-04-18T17:04:19Z</time>
      </trkpt>
      <trkpt lat="47.19177" lon="-1.58447">
        <ele>-63.46</ele>
        <time>2014-04-18T17:04:22Z</time>
      </trkpt>
      <trkpt lat="47.19159" lon="-1.58467">
        <ele>-63.4</ele>
        <time>2014-04-18T17:04:26Z</time>
      </trkpt>
      <trkpt lat="47.19141" lon="-1.58483">
        <ele>-63.4</ele>
        <time>2014-04-18T17:04:29Z</time>
      </trkpt>
      <trkpt lat="47.19121" lon="-1.58501">
        <ele>-63.43</ele>
        <time>2014-04-18T17:04:32Z</time>
      </trkpt>
      <trkpt lat="47.19104" lon="-1.58518">
        <ele>-63.52</ele>
        <time>2014-04-18T17:04:35Z</time>
      </trkpt>
      <trkpt lat="47.19088" lon="-1.58535">
        <ele>-63.57</ele>
        <time>2014-04-18T17:04:38Z</time>
      </trkpt>
      <trkpt lat="47.19072" lon="-1.58552">
        <ele>-63.66</ele>
        <time>2014-04-18T17:04:41Z</time>
      </trkpt>
      <trkpt lat="47.19056" lon="-1.58569">
        <ele>-63.83</ele>
        <time>2014-04-18T17:04:44Z</time>
      </trkpt>
      <trkpt lat="47.19042" lon="-1.58586">
        <ele>-63.79</ele>
        <time>2014-04-18T17:04:47Z</time>
      </trkpt>
      <trkpt lat="47.19025" lon="-1.58604">
        <ele>-63.78</ele>
        <time>2014-04-18T17:04:50Z</time>
      </trkpt>
      <trkpt lat="47.19008" lon="-1.5862">
        <ele>-63.77</ele>
        <time>2014-04-18T17:04:53Z</time>
      </trkpt>
      <trkpt lat="47.18992" lon="-1.58635">
        <ele>-63.77</ele>
        <time>2014-04-18T17:04:56Z</time>
      </trkpt>
      <trkpt lat="47.18974" lon="-1.58651">
        <ele>-63.72</ele>
        <time>2014-04-18T17:04:59Z</time>
      </trkpt>
      <trkpt lat="47.18957" lon="-1.58666">
        <ele>-63.68</ele>
        <time>2014-04-18T17:05:02Z</time>
      </trkpt>
      <trkpt lat="47.1894" lon="-1.58681">
        <ele>-63.59</ele>
        <time>2014-04-18T17:05:05Z</time>
      </trkpt>
      <trkpt lat="47.18923" lon="-1.58698">
        <ele>-63.36</ele>
        <time>2014-04-18T17:05:08Z</time>
      </trkpt>
      <trkpt lat="47.18906" lon="-1.58713">
        <ele>-63.29</ele>
        <time>2014-04-18T17:05:11Z</time>
      </trkpt>
      <trkpt lat="47.18889" lon="-1.58723">
        <ele>-63.28</ele>
        <time>2014-04-18T17:05:14Z</time>
      </trkpt>
      <trkpt lat="47.1887" lon="-1.58743">
        <ele>-63.44</ele>
        <time>2014-04-18T17:05:18Z</time>
      </trkpt>
      <trkpt lat="47.18867" lon="-1.58771">
        <ele>-63.56</ele>
        <time>2014-04-18T17:05:21Z</time>
      </trkpt>
      <trkpt lat="47.18869" lon="-1.58801">
        <ele>-64.12</ele>
        <time>2014-04-18T17:05:24Z</time>
      </trkpt>
      <trkpt lat="47.18866" lon="-1.58829">
        <ele>-64.18</ele>
        <time>2014-04-18T17:05:27Z</time>
      </trkpt>
      <trkpt lat="47.18856" lon="-1.58854">
        <ele>-64.31</ele>
        <time>2014-04-18T17:05:30Z</time>
      </trkpt>
      <trkpt lat="47.18844" lon="-1.58878">
        <ele>-64.37</ele>
        <time>2014-04-18T17:05:33Z</time>
      </trkpt>
      <trkpt lat="47.18835" lon="-1.58904">
        <ele>-64.29</ele>
        <time>2014-04-18T17:05:36Z</time>
      </trkpt>
      <trkpt lat="47.18825" lon="-1.5893">
        <ele>-64.13</ele>
        <time>2014-04-18T17:05:39Z</time>
      </trkpt>
      <trkpt lat="47.18815" lon="-1.58956">
        <ele>-63.82</ele>
        <time>2014-04-18T17:05:42Z</time>
      </trkpt>
      <trkpt lat="47.18806" lon="-1.58982">
        <ele>-63.52</ele>
        <time>2014-04-18T17:05:45Z</time>
      </trkpt>
      <trkpt lat="47.188" lon="-1.59011">
        <ele>-63.18</ele>
        <time>2014-04-18T17:05:48Z</time>
      </trkpt>
      <trkpt lat="47.18798" lon="-1.59038">
        <ele>-63</ele>
        <time>2014-04-18T17:05:51Z</time>
      </trkpt>
      <trkpt lat="47.18795" lon="-1.59072">
        <ele>-62.91</ele>
        <time>2014-04-18T17:05:55Z</time>
      </trkpt>
      <trkpt lat="47.18793" lon="-1.591">
        <ele>-63.03</ele>
        <time>2014-04-18T17:05:58Z</time>
      </trkpt>
      <trkpt lat="47.18791" lon="-1.59127">
        <ele>-63.01</ele>
        <time>2014-04-18T17:06:01Z</time>
      </trkpt>
      <trkpt lat="47.18788" lon="-1.59155">
        <ele>-62.79</ele>
        <time>2014-04-18T17:06:04Z</time>
      </trkpt>
      <trkpt lat="47.18785" lon="-1.59183">
        <ele>-62.66</ele>
        <time>2014-04-18T17:06:07Z</time>
      </trkpt>
      <trkpt lat="47.18784" lon="-1.59211">
        <ele>-62.55</ele>
        <time>2014-04-18T17:06:10Z</time>
      </trkpt>
      <trkpt lat="47.18781" lon="-1.59246">
        <ele>-62.45</ele>
        <time>2014-04-18T17:06:14Z</time>
      </trkpt>
      <trkpt lat="47.18778" lon="-1.59274">
        <ele>-62.26</ele>
        <time>2014-04-18T17:06:17Z</time>
      </trkpt>
      <trkpt lat="47.18774" lon="-1.59303">
        <ele>-62.06</ele>
        <time>2014-04-18T17:06:20Z</time>
      </trkpt>
      <trkpt lat="47.1877" lon="-1.59331">
        <ele>-61.9</ele>
        <time>2014-04-18T17:06:23Z</time>
      </trkpt>
      <trkpt lat="47.18765" lon="-1.59359">
        <ele>-61.68</ele>
        <time>2014-04-18T17:06:26Z</time>
      </trkpt>
      <trkpt lat="47.18757" lon="-1.59389">
        <ele>-61.37</ele>
        <time>2014-04-18T17:06:29Z</time>
      </trkpt>
      <trkpt lat="47.18756" lon="-1.59416">
        <ele>-60.94</ele>
        <time>2014-04-18T17:06:32Z</time>
      </trkpt>
      <trkpt lat="47.18753" lon="-1.59446">
        <ele>-60.64</ele>
        <time>2014-04-18T17:06:35Z</time>
      </trkpt>
      <trkpt lat="47.1875" lon="-1.59476">
        <ele>-60.68</ele>
        <time>2014-04-18T17:06:38Z</time>
      </trkpt>
      <trkpt lat="47.18749" lon="-1.59508">
        <ele>-60.98</ele>
        <time>2014-04-18T17:06:41Z</time>
      </trkpt>
      <trkpt lat="47.18747" lon="-1.59538">
        <ele>-61.25</ele>
        <time>2014-04-18T17:06:44Z</time>
      </trkpt>
      <trkpt lat="47.18746" lon="-1.59567">
        <ele>-61.12</ele>
        <time>2014-04-18T17:06:47Z</time>
      </trkpt>
      <trkpt lat="47.18743" lon="-1.59597">
        <ele>-60.87</ele>
        <time>2014-04-18T17:06:50Z</time>
      </trkpt>
      <trkpt lat="47.18742" lon="-1.59627">
        <ele>-61.91</ele>
        <time>2014-04-18T17:06:53Z</time>
      </trkpt>
      <trkpt lat="47.1874" lon="-1.59657">
        <ele>-62.72</ele>
        <time>2014-04-18T17:06:56Z</time>
      </trkpt>
      <trkpt lat="47.18738" lon="-1.59686">
        <ele>-63.45</ele>
        <time>2014-04-18T17:06:59Z</time>
      </trkpt>
      <trkpt lat="47.18736" lon="-1.59716">
        <ele>-64.13</ele>
        <time>2014-04-18T17:07:02Z</time>
      </trkpt>
      <trkpt lat="47.18733" lon="-1.59747">
        <ele>-64.39</ele>
        <time>2014-04-18T17:07:05Z</time>
      </trkpt>
      <trkpt lat="47.18731" lon="-1.59776">
        <ele>-64.98</ele>
        <time>2014-04-18T17:07:08Z</time>
      </trkpt>
      <trkpt lat="47.18727" lon="-1.59804">
        <ele>-65.16</ele>
        <time>2014-04-18T17:07:11Z</time>
      </trkpt>
      <trkpt lat="47.1872" lon="-1.59832">
        <ele>-64.75</ele>
        <time>2014-04-18T17:07:14Z</time>
      </trkpt>
      <trkpt lat="47.18709" lon="-1.59856">
        <ele>-64.57</ele>
        <time>2014-04-18T17:07:17Z</time>
      </trkpt>
      <trkpt lat="47.187" lon="-1.5988">
        <ele>-64.45</ele>
        <time>2014-04-18T17:07:20Z</time>
      </trkpt>
      <trkpt lat="47.18689" lon="-1.59908">
        <ele>-64.26</ele>
        <time>2014-04-18T17:07:23Z</time>
      </trkpt>
      <trkpt lat="47.18678" lon="-1.59934">
        <ele>-63.9</ele>
        <time>2014-04-18T17:07:26Z</time>
      </trkpt>
      <trkpt lat="47.18668" lon="-1.59961">
        <ele>-63.84</ele>
        <time>2014-04-18T17:07:29Z</time>
      </trkpt>
      <trkpt lat="47.18658" lon="-1.59988">
        <ele>-63.97</ele>
        <time>2014-04-18T17:07:32Z</time>
      </trkpt>
      <trkpt lat="47.18644" lon="-1.60013">
        <ele>-60.16</ele>
        <time>2014-04-18T17:07:35Z</time>
      </trkpt>
      <trkpt lat="47.18633" lon="-1.60039">
        <ele>-58.43</ele>
        <time>2014-04-18T17:07:38Z</time>
      </trkpt>
      <trkpt lat="47.18623" lon="-1.60064">
        <ele>-57.57</ele>
        <time>2014-04-18T17:07:41Z</time>
      </trkpt>
      <trkpt lat="47.18612" lon="-1.6009">
        <ele>-57.14</ele>
        <time>2014-04-18T17:07:44Z</time>
      </trkpt>
      <trkpt lat="47.18603" lon="-1.60118">
        <ele>-56.61</ele>
        <time>2014-04-18T17:07:47Z</time>
      </trkpt>
      <trkpt lat="47.18593" lon="-1.60145">
        <ele>-56.22</ele>
        <time>2014-04-18T17:07:50Z</time>
      </trkpt>
      <trkpt lat="47.18583" lon="-1.60172">
        <ele>-55.62</ele>
        <time>2014-04-18T17:07:53Z</time>
      </trkpt>
      <trkpt lat="47.18575" lon="-1.60199">
        <ele>-54.98</ele>
        <time>2014-04-18T17:07:56Z</time>
      </trkpt>
      <trkpt lat="47.18565" lon="-1.60226">
        <ele>-55.12</ele>
        <time>2014-04-18T17:07:59Z</time>
      </trkpt>
      <trkpt lat="47.18555" lon="-1.60251">
        <ele>-55.39</ele>
        <time>2014-04-18T17:08:02Z</time>
      </trkpt>
      <trkpt lat="47.18545" lon="-1.60278">
        <ele>-55.91</ele>
        <time>2014-04-18T17:08:05Z</time>
      </trkpt>
      <trkpt lat="47.18535" lon="-1.60306">
        <ele>-56.14</ele>
        <time>2014-04-18T17:08:08Z</time>
      </trkpt>
      <trkpt lat="47.18525" lon="-1.60336">
        <ele>-55.73</ele>
        <time>2014-04-18T17:08:11Z</time>
      </trkpt>
      <trkpt lat="47.18516" lon="-1.60362">
        <ele>-55.19</ele>
        <time>2014-04-18T17:08:14Z</time>
      </trkpt>
      <trkpt lat="47.18507" lon="-1.60387">
        <ele>-54.76</ele>
        <time>2014-04-18T17:08:17Z</time>
      </trkpt>
      <trkpt lat="47.18499" lon="-1.60414">
        <ele>-53.95</ele>
        <time>2014-04-18T17:08:20Z</time>
      </trkpt>
      <trkpt lat="47.18491" lon="-1.6044">
        <ele>-53.6</ele>
        <time>2014-04-18T17:08:23Z</time>
      </trkpt>
      <trkpt lat="47.18483" lon="-1.60468">
        <ele>-53.58</ele>
        <time>2014-04-18T17:08:26Z</time>
      </trkpt>
      <trkpt lat="47.18476" lon="-1.60494">
        <ele>-53.27</ele>
        <time>2014-04-18T17:08:29Z</time>
      </trkpt>
      <trkpt lat="47.1847" lon="-1.60521">
        <ele>-52.47</ele>
        <time>2014-04-18T17:08:32Z</time>
      </trkpt>
      <trkpt lat="47.18464" lon="-1.60549">
        <ele>-51.76</ele>
        <time>2014-04-18T17:08:35Z</time>
      </trkpt>
      <trkpt lat="47.18458" lon="-1.60577">
        <ele>-50.98</ele>
        <time>2014-04-18T17:08:38Z</time>
      </trkpt>
      <trkpt lat="47.18452" lon="-1.60605">
        <ele>-50.48</ele>
        <time>2014-04-18T17:08:41Z</time>
      </trkpt>
      <trkpt lat="47.18446" lon="-1.60633">
        <ele>-50.76</ele>
        <time>2014-04-18T17:08:44Z</time>
      </trkpt>
      <trkpt lat="47.18442" lon="-1.60662">
        <ele>-51.13</ele>
        <time>2014-04-18T17:08:47Z</time>
      </trkpt>
      <trkpt lat="47.18439" lon="-1.60691">
        <ele>-50.89</ele>
        <time>2014-04-18T17:08:50Z</time>
      </trkpt>
      <trkpt lat="47.18436" lon="-1.6072">
        <ele>-50.9</ele>
        <time>2014-04-18T17:08:53Z</time>
      </trkpt>
      <trkpt lat="47.18433" lon="-1.6075">
        <ele>-50.7</ele>
        <time>2014-04-18T17:08:56Z</time>
      </trkpt>
      <trkpt lat="47.18429" lon="-1.60778">
        <ele>-51.03</ele>
        <time>2014-04-18T17:08:59Z</time>
      </trkpt>
      <trkpt lat="47.18427" lon="-1.60807">
        <ele>-51.33</ele>
        <time>2014-04-18T17:09:02Z</time>
      </trkpt>
      <trkpt lat="47.18425" lon="-1.60836">
        <ele>-51.83</ele>
        <time>2014-04-18T17:09:05Z</time>
      </trkpt>
      <trkpt lat="47.18423" lon="-1.60866">
        <ele>-52.07</ele>
        <time>2014-04-18T17:09:08Z</time>
      </trkpt>
      <trkpt lat="47.18423" lon="-1.60894">
        <ele>-52.35</ele>
        <time>2014-04-18T17:09:11Z</time>
      </trkpt>
      <trkpt lat="47.18422" lon="-1.60923">
        <ele>-52.12</ele>
        <time>2014-04-18T17:09:14Z</time>
      </trkpt>
      <trkpt lat="47.18421" lon="-1.60952">
        <ele>-52.67</ele>
        <time>2014-04-18T17:09:17Z</time>
      </trkpt>
      <trkpt lat="47.18422" lon="-1.60981">
        <ele>-53.74</ele>
        <time>2014-04-18T17:09:20Z</time>
      </trkpt>
      <trkpt lat="47.18424" lon="-1.61011">
        <ele>-54.06</ele>
        <time>2014-04-18T17:09:23Z</time>
      </trkpt>
      <trkpt lat="47.18426" lon="-1.61041">
        <ele>-54.33</ele>
        <time>2014-04-18T17:09:26Z</time>
      </trkpt>
      <trkpt lat="47.18428" lon="-1.61071">
        <ele>-53.66</ele>
        <time>2014-04-18T17:09:29Z</time>
      </trkpt>
      <trkpt lat="47.18431" lon="-1.61104">
        <ele>-53.56</ele>
        <time>2014-04-18T17:09:32Z</time>
      </trkpt>
      <trkpt lat="47.18433" lon="-1.61139">
        <ele>-53.05</ele>
        <time>2014-04-18T17:09:35Z</time>
      </trkpt>
      <trkpt lat="47.18435" lon="-1.6117">
        <ele>-52.93</ele>
        <time>2014-04-18T17:09:38Z</time>
      </trkpt>
      <trkpt lat="47.18436" lon="-1.61201">
        <ele>-52.36</ele>
        <time>2014-04-18T17:09:41Z</time>
      </trkpt>
      <trkpt lat="47.18438" lon="-1.61232">
        <ele>-51.7</ele>
        <time>2014-04-18T17:09:44Z</time>
      </trkpt>
      <trkpt lat="47.1844" lon="-1.61263">
        <ele>-51.36</ele>
        <time>2014-04-18T17:09:47Z</time>
      </trkpt>
      <trkpt lat="47.18442" lon="-1.61293">
        <ele>-51.4</ele>
        <time>2014-04-18T17:09:50Z</time>
      </trkpt>
      <trkpt lat="47.18444" lon="-1.61323">
        <ele>-52.1</ele>
        <time>2014-04-18T17:09:53Z</time>
      </trkpt>
      <trkpt lat="47.18446" lon="-1.61353">
        <ele>-52.66</ele>
        <time>2014-04-18T17:09:56Z</time>
      </trkpt>
      <trkpt lat="47.1845" lon="-1.61379">
        <ele>-52.77</ele>
        <time>2014-04-18T17:09:59Z</time>
      </trkpt>
      <trkpt lat="47.18453" lon="-1.61408">
        <ele>-53.24</ele>
        <time>2014-04-18T17:10:02Z</time>
      </trkpt>
      <trkpt lat="47.18453" lon="-1.61437">
        <ele>-53.41</ele>
        <time>2014-04-18T17:10:05Z</time>
      </trkpt>
      <trkpt lat="47.18454" lon="-1.61466">
        <ele>-52.94</ele>
        <time>2014-04-18T17:10:08Z</time>
      </trkpt>
      <trkpt lat="47.18455" lon="-1.61494">
        <ele>-52.44</ele>
        <time>2014-04-18T17:10:11Z</time>
      </trkpt>
      <trkpt lat="47.18455" lon="-1.61523">
        <ele>-52.41</ele>
        <time>2014-04-18T17:10:14Z</time>
      </trkpt>
      <trkpt lat="47.18458" lon="-1.61553">
        <ele>-52.43</ele>
        <time>2014-04-18T17:10:17Z</time>
      </trkpt>
      <trkpt lat="47.18459" lon="-1.61581">
        <ele>-53.07</ele>
        <time>2014-04-18T17:10:20Z</time>
      </trkpt>
      <trkpt lat="47.18461" lon="-1.61611">
        <ele>-53.71</ele>
        <time>2014-04-18T17:10:23Z</time>
      </trkpt>
      <trkpt lat="47.18464" lon="-1.61639">
        <ele>-53.89</ele>
        <time>2014-04-18T17:10:26Z</time>
      </trkpt>
      <trkpt lat="47.18466" lon="-1.61668">
        <ele>-54.06</ele>
        <time>2014-04-18T17:10:29Z</time>
      </trkpt>
      <trkpt lat="47.18468" lon="-1.61696">
        <ele>-54.12</ele>
        <time>2014-04-18T17:10:32Z</time>
      </trkpt>
      <trkpt lat="47.1847" lon="-1.61726">
        <ele>-54.49</ele>
        <time>2014-04-18T17:10:35Z</time>
      </trkpt>
      <trkpt lat="47.18472" lon="-1.61755">
        <ele>-55.23</ele>
        <time>2014-04-18T17:10:38Z</time>
      </trkpt>
      <trkpt lat="47.18473" lon="-1.61784">
        <ele>-55.17</ele>
        <time>2014-04-18T17:10:41Z</time>
      </trkpt>
      <trkpt lat="47.18475" lon="-1.61813">
        <ele>-55.32</ele>
        <time>2014-04-18T17:10:44Z</time>
      </trkpt>
      <trkpt lat="47.18477" lon="-1.6184">
        <ele>-55.14</ele>
        <time>2014-04-18T17:10:47Z</time>
      </trkpt>
      <trkpt lat="47.18479" lon="-1.61868">
        <ele>-55.27</ele>
        <time>2014-04-18T17:10:50Z</time>
      </trkpt>
      <trkpt lat="47.18481" lon="-1.61896">
        <ele>-55.15</ele>
        <time>2014-04-18T17:10:53Z</time>
      </trkpt>
      <trkpt lat="47.18482" lon="-1.61926">
        <ele>-55.05</ele>
        <time>2014-04-18T17:10:56Z</time>
      </trkpt>
      <trkpt lat="47.18483" lon="-1.61955">
        <ele>-54.83</ele>
        <time>2014-04-18T17:10:59Z</time>
      </trkpt>
      <trkpt lat="47.18486" lon="-1.61983">
        <ele>-55.28</ele>
        <time>2014-04-18T17:11:02Z</time>
      </trkpt>
      <trkpt lat="47.18489" lon="-1.62011">
        <ele>-56.65</ele>
        <time>2014-04-18T17:11:05Z</time>
      </trkpt>
      <trkpt lat="47.1849" lon="-1.6204">
        <ele>-57.37</ele>
        <time>2014-04-18T17:11:08Z</time>
      </trkpt>
      <trkpt lat="47.18492" lon="-1.62069">
        <ele>-57.85</ele>
        <time>2014-04-18T17:11:11Z</time>
      </trkpt>
      <trkpt lat="47.18493" lon="-1.62097">
        <ele>-57.87</ele>
        <time>2014-04-18T17:11:14Z</time>
      </trkpt>
      <trkpt lat="47.18496" lon="-1.62125">
        <ele>-58.29</ele>
        <time>2014-04-18T17:11:17Z</time>
      </trkpt>
      <trkpt lat="47.18497" lon="-1.62154">
        <ele>-59.78</ele>
        <time>2014-04-18T17:11:20Z</time>
      </trkpt>
      <trkpt lat="47.18497" lon="-1.62183">
        <ele>-60.06</ele>
        <time>2014-04-18T17:11:23Z</time>
      </trkpt>
      <trkpt lat="47.18497" lon="-1.62212">
        <ele>-60.38</ele>
        <time>2014-04-18T17:11:26Z</time>
      </trkpt>
      <trkpt lat="47.18496" lon="-1.6224">
        <ele>-60.96</ele>
        <time>2014-04-18T17:11:29Z</time>
      </trkpt>
      <trkpt lat="47.18496" lon="-1.62275">
        <ele>-60.32</ele>
        <time>2014-04-18T17:11:33Z</time>
      </trkpt>
      <trkpt lat="47.18494" lon="-1.62307">
        <ele>-56.94</ele>
        <time>2014-04-18T17:11:37Z</time>
      </trkpt>
      <trkpt lat="47.18491" lon="-1.62336">
        <ele>-55.35</ele>
        <time>2014-04-18T17:11:41Z</time>
      </trkpt>
      <trkpt lat="47.18483" lon="-1.62361">
        <ele>-53.57</ele>
        <time>2014-04-18T17:11:45Z</time>
      </trkpt>
      <trkpt lat="47.18464" lon="-1.62372">
        <ele>-53.13</ele>
        <time>2014-04-18T17:11:52Z</time>
      </trkpt>
      <trkpt lat="47.18462" lon="-1.62404">
        <ele>-52.77</ele>
        <time>2014-04-18T17:11:59Z</time>
      </trkpt>
      <trkpt lat="47.18462" lon="-1.62433">
        <ele>-52.11</ele>
        <time>2014-04-18T17:12:03Z</time>
      </trkpt>
      <trkpt lat="47.18465" lon="-1.62463">
        <ele>-50.87</ele>
        <time>2014-04-18T17:12:07Z</time>
      </trkpt>
      <trkpt lat="47.18466" lon="-1.62495">
        <ele>-49.01</ele>
        <time>2014-04-18T17:12:11Z</time>
      </trkpt>
      <trkpt lat="47.18467" lon="-1.62525">
        <ele>-47.24</ele>
        <time>2014-04-18T17:12:15Z</time>
      </trkpt>
      <trkpt lat="47.18467" lon="-1.62556">
        <ele>-45.93</ele>
        <time>2014-04-18T17:12:19Z</time>
      </trkpt>
      <trkpt lat="47.18465" lon="-1.62589">
        <ele>-44.95</ele>
        <time>2014-04-18T17:12:23Z</time>
      </trkpt>
      <trkpt lat="47.18461" lon="-1.62615">
        <ele>-44.25</ele>
        <time>2014-04-18T17:12:26Z</time>
      </trkpt>
      <trkpt lat="47.18457" lon="-1.62648">
        <ele>-43.04</ele>
        <time>2014-04-18T17:12:30Z</time>
      </trkpt>
      <trkpt lat="47.18449" lon="-1.62676">
        <ele>-42.33</ele>
        <time>2014-04-18T17:12:33Z</time>
      </trkpt>
      <trkpt lat="47.18443" lon="-1.62711">
        <ele>-41.31</ele>
        <time>2014-04-18T17:12:36Z</time>
      </trkpt>
      <trkpt lat="47.18437" lon="-1.62741">
        <ele>-40.62</ele>
        <time>2014-04-18T17:12:39Z</time>
      </trkpt>
      <trkpt lat="47.1843" lon="-1.62768">
        <ele>-40.14</ele>
        <time>2014-04-18T17:12:42Z</time>
      </trkpt>
      <trkpt lat="47.18424" lon="-1.62796">
        <ele>-38.19</ele>
        <time>2014-04-18T17:12:45Z</time>
      </trkpt>
      <trkpt lat="47.18417" lon="-1.62821">
        <ele>-37.95</ele>
        <time>2014-04-18T17:12:48Z</time>
      </trkpt>
      <trkpt lat="47.18411" lon="-1.62849">
        <ele>-38.18</ele>
        <time>2014-04-18T17:12:51Z</time>
      </trkpt>
      <trkpt lat="47.18406" lon="-1.62877">
        <ele>-38.4</ele>
        <time>2014-04-18T17:12:54Z</time>
      </trkpt>
      <trkpt lat="47.18402" lon="-1.62905">
        <ele>-38.81</ele>
        <time>2014-04-18T17:12:57Z</time>
      </trkpt>
      <trkpt lat="47.18401" lon="-1.62939">
        <ele>-38.86</ele>
        <time>2014-04-18T17:13:01Z</time>
      </trkpt>
      <trkpt lat="47.18411" lon="-1.62968">
        <ele>-38.71</ele>
        <time>2014-04-18T17:13:05Z</time>
      </trkpt>
      <trkpt lat="47.18428" lon="-1.62989">
        <ele>-38.96</ele>
        <time>2014-04-18T17:13:09Z</time>
      </trkpt>
      <trkpt lat="47.18441" lon="-1.63009">
        <ele>-39.29</ele>
        <time>2014-04-18T17:13:12Z</time>
      </trkpt>
      <trkpt lat="47.18457" lon="-1.63029">
        <ele>-39.37</ele>
        <time>2014-04-18T17:13:16Z</time>
      </trkpt>
      <trkpt lat="47.18469" lon="-1.63049">
        <ele>-39.42</ele>
        <time>2014-04-18T17:13:19Z</time>
      </trkpt>
      <trkpt lat="47.18483" lon="-1.63069">
        <ele>-39.58</ele>
        <time>2014-04-18T17:13:22Z</time>
      </trkpt>
      <trkpt lat="47.18499" lon="-1.63091">
        <ele>-39.5</ele>
        <time>2014-04-18T17:13:26Z</time>
      </trkpt>
      <trkpt lat="47.18514" lon="-1.63109">
        <ele>-39.43</ele>
        <time>2014-04-18T17:13:29Z</time>
      </trkpt>
      <trkpt lat="47.18533" lon="-1.6313">
        <ele>-39.36</ele>
        <time>2014-04-18T17:13:33Z</time>
      </trkpt>
      <trkpt lat="47.18549" lon="-1.63154">
        <ele>-38.99</ele>
        <time>2014-04-18T17:13:37Z</time>
      </trkpt>
      <trkpt lat="47.18561" lon="-1.63179">
        <ele>-39.71</ele>
        <time>2014-04-18T17:13:41Z</time>
      </trkpt>
      <trkpt lat="47.18557" lon="-1.63207">
        <ele>-40.32</ele>
        <time>2014-04-18T17:13:45Z</time>
      </trkpt>
      <trkpt lat="47.1857" lon="-1.63237">
        <ele>-39.86</ele>
        <time>2014-04-18T17:13:49Z</time>
      </trkpt>
      <trkpt lat="47.18585" lon="-1.63257">
        <ele>-39.98</ele>
        <time>2014-04-18T17:13:52Z</time>
      </trkpt>
      <trkpt lat="47.18598" lon="-1.63276">
        <ele>-40.16</ele>
        <time>2014-04-18T17:13:55Z</time>
      </trkpt>
      <trkpt lat="47.18611" lon="-1.63297">
        <ele>-40.34</ele>
        <time>2014-04-18T17:13:58Z</time>
      </trkpt>
      <trkpt lat="47.18622" lon="-1.6332">
        <ele>-40.61</ele>
        <time>2014-04-18T17:14:01Z</time>
      </trkpt>
      <trkpt lat="47.18631" lon="-1.63343">
        <ele>-41.64</ele>
        <time>2014-04-18T17:14:04Z</time>
      </trkpt>
      <trkpt lat="47.18635" lon="-1.63375">
        <ele>-43.78</ele>
        <time>2014-04-18T17:14:08Z</time>
      </trkpt>
      <trkpt lat="47.18625" lon="-1.63399">
        <ele>-43.83</ele>
        <time>2014-04-18T17:14:12Z</time>
      </trkpt>
      <trkpt lat="47.18605" lon="-1.63414">
        <ele>-43.58</ele>
        <time>2014-04-18T17:14:16Z</time>
      </trkpt>
      <trkpt lat="47.18589" lon="-1.6343">
        <ele>-42.55</ele>
        <time>2014-04-18T17:14:21Z</time>
      </trkpt>
      <trkpt lat="47.18574" lon="-1.63452">
        <ele>-42.43</ele>
        <time>2014-04-18T17:14:26Z</time>
      </trkpt>
      <trkpt lat="47.18558" lon="-1.63477">
        <ele>-43.53</ele>
        <time>2014-04-18T17:14:30Z</time>
      </trkpt>
      <trkpt lat="47.18549" lon="-1.63506">
        <ele>-44.59</ele>
        <time>2014-04-18T17:14:34Z</time>
      </trkpt>
      <trkpt lat="47.18536" lon="-1.63524">
        <ele>-44.54</ele>
        <time>2014-04-18T17:14:38Z</time>
      </trkpt>
      <trkpt lat="47.18517" lon="-1.63527">
        <ele>-43.88</ele>
        <time>2014-04-18T17:14:42Z</time>
      </trkpt>
      <trkpt lat="47.18498" lon="-1.63526">
        <ele>-43.47</ele>
        <time>2014-04-18T17:14:46Z</time>
      </trkpt>
      <trkpt lat="47.1848" lon="-1.63518">
        <ele>-43.35</ele>
        <time>2014-04-18T17:14:49Z</time>
      </trkpt>
      <trkpt lat="47.18462" lon="-1.63509">
        <ele>-43.16</ele>
        <time>2014-04-18T17:14:52Z</time>
      </trkpt>
      <trkpt lat="47.18443" lon="-1.63497">
        <ele>-42.87</ele>
        <time>2014-04-18T17:14:55Z</time>
      </trkpt>
      <trkpt lat="47.18423" lon="-1.63487">
        <ele>-42.81</ele>
        <time>2014-04-18T17:14:58Z</time>
      </trkpt>
      <trkpt lat="47.18402" lon="-1.63475">
        <ele>-43.17</ele>
        <time>2014-04-18T17:15:01Z</time>
      </trkpt>
      <trkpt lat="47.18385" lon="-1.63468">
        <ele>-43.34</ele>
        <time>2014-04-18T17:15:04Z</time>
      </trkpt>
      <trkpt lat="47.18366" lon="-1.63458">
        <ele>-43.37</ele>
        <time>2014-04-18T17:15:07Z</time>
      </trkpt>
      <trkpt lat="47.18349" lon="-1.63448">
        <ele>-43.46</ele>
        <time>2014-04-18T17:15:10Z</time>
      </trkpt>
      <trkpt lat="47.18331" lon="-1.63437">
        <ele>-43.47</ele>
        <time>2014-04-18T17:15:13Z</time>
      </trkpt>
      <trkpt lat="47.18315" lon="-1.63426">
        <ele>-43.35</ele>
        <time>2014-04-18T17:15:16Z</time>
      </trkpt>
      <trkpt lat="47.18293" lon="-1.63411">
        <ele>-43.12</ele>
        <time>2014-04-18T17:15:20Z</time>
      </trkpt>
      <trkpt lat="47.18273" lon="-1.63396">
        <ele>-42.96</ele>
        <time>2014-04-18T17:15:24Z</time>
      </trkpt>
      <trkpt lat="47.18252" lon="-1.63382">
        <ele>-42.89</ele>
        <time>2014-04-18T17:15:28Z</time>
      </trkpt>
      <trkpt lat="47.18232" lon="-1.63367">
        <ele>-42.52</ele>
        <time>2014-04-18T17:15:32Z</time>
      </trkpt>
      <trkpt lat="47.18213" lon="-1.6335">
        <ele>-41.98</ele>
        <time>2014-04-18T17:15:36Z</time>
      </trkpt>
      <trkpt lat="47.18194" lon="-1.63334">
        <ele>-41.55</ele>
        <time>2014-04-18T17:15:41Z</time>
      </trkpt>
      <trkpt lat="47.18178" lon="-1.63319">
        <ele>-40.88</ele>
        <time>2014-04-18T17:15:47Z</time>
      </trkpt>
      <trkpt lat="47.18161" lon="-1.63308">
        <ele>-40.6</ele>
        <time>2014-04-18T17:15:51Z</time>
      </trkpt>
      <trkpt lat="47.18143" lon="-1.63294">
        <ele>-40.21</ele>
        <time>2014-04-18T17:15:55Z</time>
      </trkpt>
      <trkpt lat="47.18124" lon="-1.63275">
        <ele>-40.01</ele>
        <time>2014-04-18T17:15:59Z</time>
      </trkpt>
      <trkpt lat="47.18106" lon="-1.63256">
        <ele>-39.58</ele>
        <time>2014-04-18T17:16:03Z</time>
      </trkpt>
      <trkpt lat="47.18092" lon="-1.63236">
        <ele>-39.29</ele>
        <time>2014-04-18T17:16:07Z</time>
      </trkpt>
      <trkpt lat="47.18079" lon="-1.63215">
        <ele>-39.21</ele>
        <time>2014-04-18T17:16:11Z</time>
      </trkpt>
      <trkpt lat="47.18066" lon="-1.63191">
        <ele>-38.91</ele>
        <time>2014-04-18T17:16:15Z</time>
      </trkpt>
      <trkpt lat="47.18051" lon="-1.63167">
        <ele>-38.16</ele>
        <time>2014-04-18T17:16:20Z</time>
      </trkpt>
      <trkpt lat="47.18037" lon="-1.63143">
        <ele>-38.51</ele>
        <time>2014-04-18T17:16:26Z</time>
      </trkpt>
      <trkpt lat="47.18022" lon="-1.63124">
        <ele>-38.05</ele>
        <time>2014-04-18T17:16:30Z</time>
      </trkpt>
      <trkpt lat="47.1801" lon="-1.63104">
        <ele>-37.6</ele>
        <time>2014-04-18T17:16:34Z</time>
      </trkpt>
      <trkpt lat="47.17997" lon="-1.63077">
        <ele>-36.66</ele>
        <time>2014-04-18T17:16:39Z</time>
      </trkpt>
      <trkpt lat="47.17986" lon="-1.63051">
        <ele>-35.33</ele>
        <time>2014-04-18T17:16:44Z</time>
      </trkpt>
      <trkpt lat="47.17978" lon="-1.63026">
        <ele>-34.7</ele>
        <time>2014-04-18T17:16:48Z</time>
      </trkpt>
      <trkpt lat="47.17967" lon="-1.63003">
        <ele>-34.41</ele>
        <time>2014-04-18T17:16:52Z</time>
      </trkpt>
      <trkpt lat="47.17956" lon="-1.62979">
        <ele>-34.31</ele>
        <time>2014-04-18T17:16:56Z</time>
      </trkpt>
      <trkpt lat="47.17943" lon="-1.6296">
        <ele>-33.68</ele>
        <time>2014-04-18T17:17:00Z</time>
      </trkpt>
      <trkpt lat="47.17929" lon="-1.62943">
        <ele>-32.76</ele>
        <time>2014-04-18T17:17:04Z</time>
      </trkpt>
      <trkpt lat="47.17914" lon="-1.62926">
        <ele>-31.85</ele>
        <time>2014-04-18T17:17:08Z</time>
      </trkpt>
      <trkpt lat="47.179" lon="-1.62906">
        <ele>-30.7</ele>
        <time>2014-04-18T17:17:12Z</time>
      </trkpt>
      <trkpt lat="47.17882" lon="-1.62887">
        <ele>-30.59</ele>
        <time>2014-04-18T17:17:17Z</time>
      </trkpt>
      <trkpt lat="47.17863" lon="-1.62868">
        <ele>-29.86</ele>
        <time>2014-04-18T17:17:21Z</time>
      </trkpt>
      <trkpt lat="47.17848" lon="-1.62852">
        <ele>-29.32</ele>
        <time>2014-04-18T17:17:24Z</time>
      </trkpt>
      <trkpt lat="47.17831" lon="-1.6283">
        <ele>-28.03</ele>
        <time>2014-04-18T17:17:28Z</time>
      </trkpt>
      <trkpt lat="47.17815" lon="-1.62814">
        <ele>-27.69</ele>
        <time>2014-04-18T17:17:31Z</time>
      </trkpt>
      <trkpt lat="47.17799" lon="-1.62793">
        <ele>-26.55</ele>
        <time>2014-04-18T17:17:35Z</time>
      </trkpt>
      <trkpt lat="47.17783" lon="-1.62771">
        <ele>-25.23</ele>
        <time>2014-04-18T17:17:39Z</time>
      </trkpt>
      <trkpt lat="47.17766" lon="-1.62749">
        <ele>-23.9</ele>
        <time>2014-04-18T17:17:43Z</time>
      </trkpt>
      <trkpt lat="47.17747" lon="-1.62726">
        <ele>-23.48</ele>
        <time>2014-04-18T17:17:47Z</time>
      </trkpt>
      <trkpt lat="47.17731" lon="-1.62703">
        <ele>-23</ele>
        <time>2014-04-18T17:17:51Z</time>
      </trkpt>
      <trkpt lat="47.17717" lon="-1.62677">
        <ele>-23.18</ele>
        <time>2014-04-18T17:17:55Z</time>
      </trkpt>
      <trkpt lat="47.17699" lon="-1.62657">
        <ele>-22.89</ele>
        <time>2014-04-18T17:17:59Z</time>
      </trkpt>
      <trkpt lat="47.17681" lon="-1.62635">
        <ele>-23.16</ele>
        <time>2014-04-18T17:18:03Z</time>
      </trkpt>
      <trkpt lat="47.17668" lon="-1.62608">
        <ele>-23.6</ele>
        <time>2014-04-18T17:18:07Z</time>
      </trkpt>
      <trkpt lat="47.17653" lon="-1.62582">
        <ele>-23.46</ele>
        <time>2014-04-18T17:18:11Z</time>
      </trkpt>
      <trkpt lat="47.17638" lon="-1.62558">
        <ele>-23.07</ele>
        <time>2014-04-18T17:18:15Z</time>
      </trkpt>
      <trkpt lat="47.17622" lon="-1.62537">
        <ele>-22.44</ele>
        <time>2014-04-18T17:18:19Z</time>
      </trkpt>
      <trkpt lat="47.17605" lon="-1.62516">
        <ele>-21.58</ele>
        <time>2014-04-18T17:18:23Z</time>
      </trkpt>
      <trkpt lat="47.17585" lon="-1.62499">
        <ele>-20.05</ele>
        <time>2014-04-18T17:18:27Z</time>
      </trkpt>
      <trkpt lat="47.17568" lon="-1.62481">
        <ele>-18.49</ele>
        <time>2014-04-18T17:18:31Z</time>
      </trkpt>
      <trkpt lat="47.17553" lon="-1.6246">
        <ele>-17.47</ele>
        <time>2014-04-18T17:18:35Z</time>
      </trkpt>
      <trkpt lat="47.17538" lon="-1.62435">
        <ele>-18.43</ele>
        <time>2014-04-18T17:18:39Z</time>
      </trkpt>
      <trkpt lat="47.1752" lon="-1.62423">
        <ele>-22.63</ele>
        <time>2014-04-18T17:18:43Z</time>
      </trkpt>
      <trkpt lat="47.17499" lon="-1.62408">
        <ele>-22.99</ele>
        <time>2014-04-18T17:18:47Z</time>
      </trkpt>
      <trkpt lat="47.17477" lon="-1.62397">
        <ele>-23.56</ele>
        <time>2014-04-18T17:18:51Z</time>
      </trkpt>
      <trkpt lat="47.17458" lon="-1.62389">
        <ele>-24.97</ele>
        <time>2014-04-18T17:18:54Z</time>
      </trkpt>
      <trkpt lat="47.17438" lon="-1.62387">
        <ele>-26.15</ele>
        <time>2014-04-18T17:18:57Z</time>
      </trkpt>
      <trkpt lat="47.17418" lon="-1.62382">
        <ele>-26.65</ele>
        <time>2014-04-18T17:19:00Z</time>
      </trkpt>
      <trkpt lat="47.17397" lon="-1.62379">
        <ele>-27.28</ele>
        <time>2014-04-18T17:19:03Z</time>
      </trkpt>
      <trkpt lat="47.17374" lon="-1.62378">
        <ele>-27.66</ele>
        <time>2014-04-18T17:19:06Z</time>
      </trkpt>
      <trkpt lat="47.17354" lon="-1.62379">
        <ele>-28.51</ele>
        <time>2014-04-18T17:19:09Z</time>
      </trkpt>
      <trkpt lat="47.17333" lon="-1.62381">
        <ele>-29.05</ele>
        <time>2014-04-18T17:19:12Z</time>
      </trkpt>
      <trkpt lat="47.17312" lon="-1.62383">
        <ele>-30.08</ele>
        <time>2014-04-18T17:19:15Z</time>
      </trkpt>
      <trkpt lat="47.17289" lon="-1.62386">
        <ele>-31.16</ele>
        <time>2014-04-18T17:19:18Z</time>
      </trkpt>
      <trkpt lat="47.17266" lon="-1.62388">
        <ele>-32.35</ele>
        <time>2014-04-18T17:19:21Z</time>
      </trkpt>
      <trkpt lat="47.17242" lon="-1.62392">
        <ele>-34.97</ele>
        <time>2014-04-18T17:19:24Z</time>
      </trkpt>
      <trkpt lat="47.1722" lon="-1.62396">
        <ele>-37.22</ele>
        <time>2014-04-18T17:19:27Z</time>
      </trkpt>
      <trkpt lat="47.17197" lon="-1.62399">
        <ele>-39.33</ele>
        <time>2014-04-18T17:19:30Z</time>
      </trkpt>
      <trkpt lat="47.17175" lon="-1.62405">
        <ele>-41.64</ele>
        <time>2014-04-18T17:19:33Z</time>
      </trkpt>
      <trkpt lat="47.17151" lon="-1.62409">
        <ele>-43.63</ele>
        <time>2014-04-18T17:19:36Z</time>
      </trkpt>
      <trkpt lat="47.17128" lon="-1.62415">
        <ele>-45.22</ele>
        <time>2014-04-18T17:19:39Z</time>
      </trkpt>
      <trkpt lat="47.17107" lon="-1.62421">
        <ele>-46.27</ele>
        <time>2014-04-18T17:19:42Z</time>
      </trkpt>
      <trkpt lat="47.17085" lon="-1.6243">
        <ele>-47.3</ele>
        <time>2014-04-18T17:19:45Z</time>
      </trkpt>
      <trkpt lat="47.17065" lon="-1.62444">
        <ele>-48.44</ele>
        <time>2014-04-18T17:19:48Z</time>
      </trkpt>
      <trkpt lat="47.17045" lon="-1.62455">
        <ele>-49.04</ele>
        <time>2014-04-18T17:19:51Z</time>
      </trkpt>
      <trkpt lat="47.17025" lon="-1.62464">
        <ele>-49.52</ele>
        <time>2014-04-18T17:19:54Z</time>
      </trkpt>
      <trkpt lat="47.17007" lon="-1.62476">
        <ele>-49.58</ele>
        <time>2014-04-18T17:19:57Z</time>
      </trkpt>
      <trkpt lat="47.16988" lon="-1.62487">
        <ele>-49.46</ele>
        <time>2014-04-18T17:20:00Z</time>
      </trkpt>
      <trkpt lat="47.1697" lon="-1.62497">
        <ele>-49</ele>
        <time>2014-04-18T17:20:03Z</time>
      </trkpt>
      <trkpt lat="47.16951" lon="-1.62502">
        <ele>-47.98</ele>
        <time>2014-04-18T17:20:06Z</time>
      </trkpt>
      <trkpt lat="47.16927" lon="-1.62502">
        <ele>-47.02</ele>
        <time>2014-04-18T17:20:10Z</time>
      </trkpt>
      <trkpt lat="47.16911" lon="-1.62517">
        <ele>-46.39</ele>
        <time>2014-04-18T17:20:17Z</time>
      </trkpt>
      <trkpt lat="47.16892" lon="-1.62517">
        <ele>-45.42</ele>
        <time>2014-04-18T17:20:23Z</time>
      </trkpt>
      <trkpt lat="47.16873" lon="-1.62508">
        <ele>-42.7</ele>
        <time>2014-04-18T17:20:29Z</time>
      </trkpt>
      <trkpt lat="47.16852" lon="-1.62508">
        <ele>-39.39</ele>
        <time>2014-04-18T17:20:34Z</time>
      </trkpt>
      <trkpt lat="47.16834" lon="-1.62513">
        <ele>-36.34</ele>
        <time>2014-04-18T17:20:39Z</time>
      </trkpt>
      <trkpt lat="47.16821" lon="-1.62534">
        <ele>-34.64</ele>
        <time>2014-04-18T17:20:45Z</time>
      </trkpt>
      <trkpt lat="47.16828" lon="-1.62559">
        <ele>-32.58</ele>
        <time>2014-04-18T17:20:52Z</time>
      </trkpt>
      <trkpt lat="47.16825" lon="-1.62588">
        <ele>-31.19</ele>
        <time>2014-04-18T17:20:57Z</time>
      </trkpt>
      <trkpt lat="47.16812" lon="-1.62611">
        <ele>-29.78</ele>
        <time>2014-04-18T17:21:01Z</time>
      </trkpt>
      <trkpt lat="47.16799" lon="-1.62632">
        <ele>-29.43</ele>
        <time>2014-04-18T17:21:05Z</time>
      </trkpt>
      <trkpt lat="47.16785" lon="-1.62649">
        <ele>-29.81</ele>
        <time>2014-04-18T17:21:10Z</time>
      </trkpt>
    </trkseg>
  </trk>
</gpx>